[[{"header":{"parameterUnit":"m.s-1","parameterCategory":1,"la1":30.6,"la2":28.766,"lo1":-90.7593,"lo2":-88.6598,"dy":0.0162,"dx":0.0183,"nx":116,"ny":114,"refTime":"2023-05-09T12:00:00:Z","depth":0,"parameterNumber":2,"parameterNumberName":"U-component_of_WINDS"},"data":[0.0,0.0,0.0,0.0,0.0,0.0,0.0,0.0,0.0,0.0,0.0,0.0,0.0,0.0,0.0,0.0,0.0,0.0,0.0,0.0,0.0,0.0,0.0,0.0,0.0,0.0,0.0,0.0,0.0,0.0,0.0,0.0,0.0,0.0,0.0,0.0,0.0,0.0,0.0,0.0,0.0,0.0,0.0,0.0,0.0,0.0,0.0,0.0,0.0,0.0,0.0,0.0,0.0,0.0,0.0,0.0,0.0,0.0,0.0,0.0,0.0,0.0,0.0,0.0,0.0,0.0,0.0,0.0,0.0,0.0,0.0,0.0,0.0,0.0,0.0,0.0,0.0,0.0,0.0,0.0,0.0,0.0,0.0,0.0,0.0,0.0,0.0,0.0,0.0,0.0,0.0,0.0,0.0,0.0,0.0,0.0,0.0,0.0,0.0,0.0,0.0,0.0,0.0,0.0,0.0,0.0,0.0,0.0,0.0,0.0,0.0,0.0,0.0,0.0,0.0,0.0,0.0,0.0,0.0,0.0,0.0,0.0,0.0,0.0,0.0,0.0,0.0,0.0,0.0,0.0,0.0,0.0,0.0,0.0,0.0,0.0,0.0,0.0,0.0,0.0,0.0,0.0,0.0,0.0,0.0,0.0,0.0,0.0,0.0,0.0,0.0,0.0,0.0,0.0,0.0,0.0,0.0,0.0,0.0,0.0,0.0,0.0,0.0,0.0,0.0,0.0,0.0,0.0,0.0,0.0,0.0,0.0,0.0,0.0,0.0,0.0,0.0,0.0,0.0,0.0,0.0,0.0,0.0,0.0,0.0,0.0,0.0,0.0,0.0,0.0,0.0,0.0,0.0,0.0,0.0,0.0,0.0,0.0,0.0,0.0,0.0,0.0,0.0,0.0,0.0,0.0,0.0,0.0,0.0,0.0,0.0,0.0,0.0,0.0,0.0,0.0,0.0,0.0,0.0,0.0,0.0,0.0,0.0,0.0,0.0,0.0,0.0,0.0,0.0,0.0,0.0,0.0,0.0,0.0,0.0,0.0,0.0,0.0,0.0,0.0,0.0,0.0,0.0,0.0,0.0,0.0,0.0,0.0,0.0,0.0,0.0,0.0,0.0,0.0,0.0,0.0,0.0,0.0,0.0,0.0,0.0,0.0,0.0,0.0,0.0,0.0,0.0,0.0,0.0,0.0,0.0,0.0,0.0,0.0,0.0,0.0,0.0,0.0,0.0,0.0,0.0,0.0,0.0,0.0,0.0,0.0,0.0,0.0,0.0,0.0,0.0,0.0,0.0,0.0,0.0,0.0,0.0,0.0,0.0,0.0,0.0,0.0,0.0,0.0,0.0,0.0,0.0,0.0,0.0,0.0,0.0,0.0,0.0,0.0,0.0,0.0,0.0,0.0,0.0,0.0,0.0,0.0,0.0,0.0,0.0,0.0,0.0,0.0,0.0,0.0,0.0,0.0,0.0,0.0,0.0,0.0,0.0,0.0,0.0,0.0,0.0,0.0,0.0,0.0,0.0,0.0,0.0,0.0,0.0,0.0,0.0,0.0,0.0,0.0,0.0,0.0,0.0,0.0,0.0,0.0,0.0,0.0,0.0,0.0,0.0,0.0,0.0,0.0,0.0,0.0,0.0,0.0,0.0,0.0,0.0,0.0,0.0,0.0,0.0,0.0,0.0,0.0,0.0,0.0,0.0,0.0,0.0,0.0,0.0,0.0,0.0,0.0,0.0,0.0,0.0,0.0,0.0,0.0,0.0,0.0,0.0,0.0,0.0,0.0,0.0,0.0,0.0,0.0,0.0,0.0,0.0,0.0,0.0,0.0,0.0,0.0,0.0,0.0,0.0,0.0,0.0,0.0,0.0,0.0,0.0,0.0,0.0,0.0,0.0,0.0,0.0,0.0,0.0,0.0,0.0,0.0,0.0,0.0,0.0,0.0,0.0,0.0,0.0,0.0,0.0,0.0,0.0,0.0,0.0,0.0,0.0,0.0,0.0,0.0,0.0,0.0,0.0,0.0,0.0,0.0,0.0,0.0,0.0,0.0,0.0,0.0,0.0,0.0,0.0,0.0,0.0,0.0,0.0,0.0,0.0,0.0,0.0,0.0,0.0,0.0,0.0,0.0,0.0,0.0,0.0,0.0,0.0,0.0,0.0,0.0,0.0,0.0,0.0,0.0,0.0,0.0,0.0,0.0,0.0,0.0,0.0,0.0,0.0,0.0,0.0,0.0,0.0,0.0,0.0,0.0,0.0,0.0,0.0,0.0,0.0,0.0,0.0,0.0,0.0,0.0,0.0,0.0,0.0,0.0,0.0,0.0,0.0,0.0,0.0,0.0,0.0,0.0,0.0,0.0,0.0,0.0,0.0,0.0,0.0,0.0,0.0,0.0,0.0,0.0,0.0,0.0,0.0,0.0,0.0,0.0,0.0,0.0,0.0,0.0,0.0,0.0,0.0,0.0,0.0,0.0,0.0,0.0,0.0,0.0,0.0,0.0,0.0,0.0,0.0,0.0,0.0,0.0,0.0,0.0,0.0,0.0,0.0,0.0,0.0,0.0,0.0,0.0,0.0,0.0,0.0,0.0,0.0,0.0,0.0,0.0,0.0,0.0,0.0,0.0,0.0,0.0,0.0,0.0,0.0,0.0,0.0,0.0,0.0,0.0,0.0,0.0,0.0,0.0,0.0,0.0,0.0,0.0,0.0,0.0,0.0,0.0,0.0,0.0,0.0,0.0,0.0,0.0,0.0,0.0,0.0,0.0,0.0,0.0,0.0,0.0,0.0,0.0,0.0,0.0,0.0,0.0,0.0,0.0,0.0,0.0,0.0,0.0,0.0,0.0,0.0,0.0,0.0,0.0,0.0,0.0,0.0,0.0,0.0,0.0,0.0,0.0,0.0,0.0,0.0,0.0,0.0,0.0,0.0,0.0,0.0,0.0,0.0,0.0,0.0,0.0,0.0,0.0,0.0,0.0,0.0,0.0,0.0,0.0,0.0,0.0,0.0,0.0,0.0,0.0,0.0,0.0,0.0,0.0,0.0,0.0,0.0,0.0,0.0,0.0,0.0,0.0,0.0,0.0,0.0,0.0,0.0,0.0,0.0,0.0,0.0,0.0,0.0,0.0,0.0,0.0,0.0,0.0,0.0,0.0,0.0,0.0,0.0,0.0,0.0,0.0,0.0,0.0,0.0,0.0,0.0,0.0,0.0,0.0,0.0,0.0,0.0,0.0,0.0,0.0,0.0,0.0,0.0,0.0,0.0,0.0,0.0,0.0,0.0,0.0,0.0,0.0,0.0,0.0,0.0,0.0,0.0,0.0,0.0,0.0,0.0,0.0,0.0,0.0,0.0,0.0,0.0,0.0,0.0,0.0,0.0,0.0,0.0,0.0,0.0,0.0,0.0,0.0,0.0,0.0,0.0,0.0,0.0,0.0,0.0,0.0,0.0,0.0,0.0,0.0,0.0,0.0,0.0,0.0,0.0,0.0,0.0,0.0,0.0,0.0,0.0,0.0,0.0,0.0,0.0,0.0,0.0,0.0,0.0,0.0,0.0,0.0,0.0,0.0,0.0,0.0,0.0,0.0,0.0,0.0,0.0,0.0,0.0,0.0,0.0,0.0,0.0,0.0,0.0,0.0,0.0,0.0,0.0,0.0,0.0,0.0,0.0,0.0,0.0,0.0,0.0,0.0,0.0,0.0,0.0,0.0,0.0,0.0,0.0,0.0,0.0,0.0,0.0,0.0,0.0,0.0,0.0,0.0,0.0,0.0,0.0,0.0,0.0,0.0,0.0,0.0,0.0,0.0,0.0,0.0,0.0,0.0,0.0,0.0,0.0,0.0,0.0,0.0,0.0,0.0,0.0,0.0,0.0,0.0,0.0,0.0,0.0,0.0,0.0,0.0,0.0,0.0,0.0,0.0,0.0,0.0,0.0,0.0,0.0,0.0,0.0,0.0,0.0,0.0,0.0,0.0,0.0,0.0,0.0,0.0,0.0,0.0,0.0,0.0,0.0,0.0,0.0,0.0,0.0,0.0,0.0,0.0,0.0,0.0,0.0,0.0,0.0,0.0,0.0,0.0,0.0,0.0,0.0,0.0,0.0,0.0,0.0,0.0,0.0,0.0,0.0,0.0,0.0,0.0,0.0,0.0,0.0,0.0,0.0,0.0,0.0,0.0,0.0,0.0,0.0,0.0,0.0,0.0,0.0,0.0,0.0,0.0,0.0,0.0,0.0,0.0,0.0,0.0,0.0,0.0,0.0,0.0,0.0,0.0,0.0,0.0,0.0,0.0,0.0,0.0,0.0,0.0,0.0,0.0,0.0,0.0,0.0,0.0,0.0,0.0,0.0,0.0,0.0,0.0,0.0,0.0,0.0,0.0,0.0,0.0,0.0,0.0,0.0,0.0,0.0,0.0,0.0,0.0,0.0,0.0,0.0,0.0,0.0,0.0,0.0,0.0,0.0,0.0,0.0,0.0,0.0,0.0,0.0,0.0,0.0,0.0,0.0,0.0,0.0,0.0,0.0,0.0,0.0,0.0,0.0,0.0,0.0,0.0,0.0,0.0,0.0,0.0,0.0,0.0,0.0,0.0,0.0,0.0,0.0,0.0,0.0,0.0,0.0,0.0,0.0,0.0,0.0,0.0,0.0,0.0,0.0,0.0,0.0,0.0,0.0,0.0,0.0,0.0,0.0,0.0,0.0,0.0,0.0,0.0,0.0,0.0,0.0,0.0,0.0,0.0,0.0,0.0,0.0,0.0,0.0,0.0,0.0,0.0,0.0,0.0,0.0,0.0,0.0,0.0,0.0,0.0,0.0,0.0,0.0,0.0,0.0,0.0,0.0,0.0,0.0,0.0,0.0,0.0,0.0,0.0,0.0,0.0,0.0,0.0,0.0,0.0,0.0,0.0,0.0,0.0,0.0,0.0,0.0,0.0,0.0,0.0,0.0,0.0,0.0,0.0,0.0,0.0,0.0,0.0,0.0,0.0,0.0,0.0,0.0,0.0,0.0,0.0,0.0,0.0,0.0,0.0,0.0,0.0,0.0,0.0,0.0,0.0,0.0,0.0,0.0,0.0,0.0,0.0,0.0,0.0,0.0,0.0,0.0,0.0,0.0,0.0,0.0,0.0,0.0,0.0,0.0,0.0,0.0,0.0,0.0,0.0,0.0,0.0,0.0,0.0,0.0,0.0,0.0,0.0,0.0,0.0,0.0,0.0,0.0,0.0,0.0,0.0,0.0,0.0,0.0,0.0,0.0,0.0,0.0,0.0,0.0,0.0,0.0,0.0,0.0,0.0,0.0,0.0,0.0,0.0,0.0,0.0,0.0,0.0,0.0,0.0,0.0,0.0,0.0,0.0,0.0,0.0,0.0,0.0,0.0,0.0,0.0,0.0,0.0,0.0,0.0,0.0,0.0,0.0,0.0,0.0,0.0,0.0,0.0,0.0,0.0,0.0,0.0,0.0,0.0,0.0,0.0,0.0,0.0,0.0,0.0,0.0,0.0,0.0,0.0,0.0,0.0,0.0,0.0,0.0,0.0,0.0,0.0,0.0,0.0,0.0,0.0,0.0,0.0,0.0,0.0,0.0,0.0,0.0,0.0,0.0,0.0,0.0,0.0,0.0,0.0,0.0,0.0,0.0,0.0,0.0,0.0,0.0,0.0,0.0,0.0,0.0,0.0,0.0,0.0,0.0,0.0,0.0,0.0,0.0,0.0,0.0,0.0,0.0,0.0,0.0,0.0,0.0,0.0,0.0,0.0,0.0,0.0,0.0,0.0,0.0,0.0,0.0,0.0,0.0,0.0,0.0,0.0,0.0,0.0,0.0,0.0,0.0,0.0,0.0,0.0,0.0,0.0,0.0,0.0,0.0,0.0,0.0,0.0,0.0,0.0,0.0,0.0,0.0,0.0,0.0,0.0,0.0,0.0,0.0,0.0,0.0,0.0,0.0,0.0,0.0,0.0,0.0,0.0,0.0,0.0,0.0,0.0,0.0,0.0,0.0,0.0,0.0,0.0,0.0,0.0,0.0,0.0,0.0,0.0,0.0,0.0,0.0,0.0,0.0,0.0,0.0,0.0,0.0,0.0,0.0,-4.0187,-3.8822,0.0,0.0,0.0,0.0,0.0,0.0,0.0,0.0,0.0,0.0,0.0,0.0,0.0,0.0,0.0,0.0,0.0,0.0,0.0,0.0,0.0,0.0,0.0,0.0,0.0,0.0,0.0,0.0,0.0,0.0,0.0,0.0,0.0,0.0,0.0,0.0,0.0,0.0,-3.4315,-3.4942,-3.5626,-3.6327,-3.6518,-3.64,0.0,0.0,0.0,0.0,0.0,0.0,0.0,0.0,0.0,0.0,0.0,0.0,0.0,0.0,0.0,0.0,0.0,0.0,0.0,0.0,0.0,0.0,0.0,0.0,0.0,0.0,0.0,0.0,0.0,0.0,0.0,0.0,0.0,0.0,0.0,0.0,0.0,0.0,0.0,0.0,0.0,0.0,0.0,0.0,0.0,0.0,0.0,0.0,0.0,0.0,0.0,0.0,0.0,0.0,0.0,0.0,0.0,0.0,0.0,0.0,0.0,0.0,0.0,0.0,0.0,0.0,0.0,0.0,0.0,0.0,-4.2673,-4.1564,0.0,0.0,0.0,0.0,0.0,0.0,0.0,0.0,0.0,0.0,0.0,0.0,0.0,0.0,0.0,0.0,0.0,0.0,0.0,0.0,0.0,0.0,0.0,-3.2506,-3.1892,-3.2191,-3.1673,-3.1294,0.0,0.0,0.0,0.0,0.0,0.0,0.0,-3.3317,-3.3649,-3.3751,-3.462,-3.5334,-3.5851,-3.6458,-3.6621,-3.6412,-3.6744,0.0,0.0,0.0,0.0,0.0,0.0,0.0,0.0,0.0,0.0,0.0,0.0,0.0,0.0,0.0,0.0,0.0,0.0,0.0,0.0,0.0,0.0,0.0,0.0,0.0,0.0,0.0,0.0,0.0,0.0,0.0,0.0,0.0,0.0,0.0,0.0,0.0,0.0,0.0,0.0,0.0,0.0,0.0,0.0,0.0,0.0,0.0,0.0,0.0,0.0,0.0,0.0,0.0,0.0,0.0,0.0,0.0,0.0,0.0,0.0,0.0,0.0,0.0,-4.4414,-4.4792,-4.4676,-4.4792,-4.5054,-4.5418,-4.4846,-4.4578,-4.4363,-4.2792,0.0,0.0,0.0,0.0,0.0,0.0,0.0,0.0,0.0,0.0,0.0,0.0,0.0,0.0,0.0,0.0,0.0,0.0,0.0,0.0,0.0,-3.1663,-3.1294,-3.0759,-3.0608,-3.0482,-3.0292,0.0,0.0,0.0,0.0,0.0,-3.2298,-3.2852,-3.3406,-3.3884,-3.5873,-3.7132,-3.7686,-3.8265,-3.864,-3.8661,-3.7078,-3.629,-3.6026,0.0,0.0,0.0,0.0,0.0,0.0,0.0,0.0,0.0,0.0,0.0,0.0,0.0,0.0,0.0,0.0,0.0,0.0,0.0,0.0,0.0,0.0,0.0,0.0,0.0,0.0,0.0,0.0,0.0,0.0,0.0,0.0,0.0,0.0,0.0,0.0,0.0,0.0,0.0,0.0,0.0,-4.1149,-4.1249,0.0,0.0,0.0,0.0,0.0,0.0,0.0,0.0,0.0,0.0,0.0,0.0,0.0,-4.0366,-4.1929,-4.2703,-4.3155,-4.3266,-4.5073,-4.5601,-4.5052,-4.5629,-4.5629,-4.5163,-4.5671,0.0,-4.5325,-4.5089,0.0,0.0,0.0,0.0,0.0,0.0,0.0,0.0,0.0,0.0,0.0,0.0,0.0,0.0,0.0,0.0,0.0,0.0,0.0,0.0,0.0,-3.1209,-3.1113,-3.095,-3.124,-3.1251,-3.0867,-3.0842,0.0,0.0,0.0,-3.1788,-3.2692,-3.2943,-3.3796,-3.5303,-3.6558,-3.7789,-3.8969,-3.8504,-3.8316,-3.8347,-3.6756,-3.6309,-3.6678,-3.6211,0.0,0.0,0.0,0.0,0.0,0.0,0.0,0.0,0.0,0.0,0.0,0.0,0.0,0.0,0.0,0.0,0.0,0.0,0.0,0.0,0.0,0.0,0.0,0.0,0.0,0.0,0.0,0.0,0.0,0.0,0.0,0.0,0.0,0.0,0.0,0.0,0.0,0.0,0.0,-4.0458,-4.1245,-4.0704,-4.1095,-4.0692,0.0,0.0,0.0,0.0,0.0,0.0,0.0,0.0,0.0,-4.21,-4.2188,-4.2922,-4.4289,-4.5014,-4.5363,-4.5363,-4.6256,-4.6553,-4.6256,-4.6226,-4.6035,-4.5816,-4.6496,-4.6459,-4.583,-4.4751,-4.3352,-4.1907,0.0,0.0,0.0,0.0,-3.8739,-3.7896,0.0,0.0,0.0,0.0,0.0,0.0,0.0,0.0,0.0,0.0,0.0,0.0,-3.1029,-3.1021,-3.117,-3.1562,-3.1964,-3.2039,-3.1637,-3.1336,-3.1311,-3.1587,-3.1461,-3.1913,-3.3086,-3.3452,-3.4243,-3.5478,-3.6604,-3.7685,-3.8725,-3.8019,-3.7635,-3.7635,-3.674,-3.6543,-3.6846,-3.6422,-3.569,-3.4816,0.0,0.0,0.0,0.0,0.0,0.0,0.0,0.0,0.0,0.0,0.0,0.0,0.0,0.0,0.0,0.0,0.0,0.0,0.0,0.0,0.0,0.0,0.0,0.0,0.0,0.0,0.0,0.0,0.0,0.0,0.0,0.0,0.0,0.0,0.0,0.0,0.0,-4.0845,-4.166,-4.0233,-4.1892,-4.1952,0.0,0.0,0.0,0.0,0.0,0.0,-4.1531,-4.2075,-4.2869,-4.3827,-4.4146,-4.4838,-4.5952,-4.6243,-4.6376,-4.6376,-4.6512,-4.6512,-4.6485,-4.6087,-4.5795,-4.5688,-4.6195,-4.6061,-4.5395,-4.4466,-4.3396,-4.2293,-4.0996,-3.9766,-3.8776,-3.9715,-3.9252,-3.8374,0.0,0.0,0.0,0.0,0.0,0.0,0.0,0.0,0.0,0.0,0.0,-3.0291,-3.0586,-3.1075,-3.1562,-3.2114,-3.219,-3.2215,-3.2164,-3.121,-3.111,-3.2139,-3.1662,-3.1913,-3.3086,-3.4329,-3.4342,-3.2974,-3.5729,-3.675,-3.6095,-3.685,-3.7213,-3.7269,-3.7406,-3.7002,-3.6064,-3.4509,-3.4474,-3.5329,-3.3836,0.0,0.0,0.0,0.0,0.0,0.0,0.0,0.0,0.0,0.0,0.0,0.0,0.0,0.0,0.0,0.0,0.0,0.0,0.0,0.0,0.0,0.0,0.0,0.0,0.0,0.0,0.0,0.0,0.0,0.0,0.0,0.0,0.0,0.0,0.0,0.0,0.0,0.0,-4.0028,-4.3749,0.0,0.0,0.0,0.0,-4.214,-4.2242,-4.2385,-4.2502,-4.3179,-4.3839,-4.4515,-4.4086,-4.4389,-4.5523,-4.5019,-4.4742,-4.4742,-4.4742,-4.4742,-4.4742,-4.4717,-4.4414,-4.391,-4.396,-4.3658,-4.3326,-4.5316,-4.48,-4.2635,-4.191,-4.0564,-3.9042,-3.9672,-3.9834,-3.987,0.0,0.0,0.0,0.0,0.0,0.0,0.0,0.0,-3.1499,-3.0608,-3.047,-3.0461,-3.0608,-3.1738,-3.2692,-3.3244,-3.3621,-3.3734,-3.3557,-3.2212,-3.1697,-3.2247,-3.1472,-3.1479,-3.2496,-3.2676,-3.3151,-3.3852,-3.5264,-3.6317,-3.6969,-3.645,-3.6479,-3.6881,-3.6209,-3.5798,-3.5629,-3.5647,-3.5313,-3.4755,-3.4198,-3.3354,0.0,0.0,0.0,0.0,0.0,0.0,0.0,0.0,0.0,0.0,0.0,0.0,0.0,0.0,0.0,0.0,0.0,0.0,0.0,0.0,0.0,0.0,0.0,0.0,0.0,0.0,0.0,0.0,0.0,0.0,0.0,0.0,0.0,0.0,0.0,0.0,0.0,-4.2534,-4.511,0.0,-4.3081,-4.338,-4.3749,-4.3749,-4.4498,-4.4919,-4.5011,-4.5875,-4.6307,-4.6225,-4.6376,-4.6476,-4.6552,-4.6351,-4.625,-4.6165,-4.5874,-4.5522,-4.5146,-4.4418,-4.379,-4.3263,-4.3263,-4.3162,-4.3073,-4.3878,-4.3222,-4.1802,-4.1918,-4.0955,-3.9532,-4.0421,-4.0305,-3.9816,0.0,0.0,0.0,0.0,0.0,0.0,0.0,0.0,-3.0895,-3.0101,-3.0335,-3.0758,-3.111,-3.2466,-3.3646,-3.4399,-3.4535,-3.4499,-3.4363,-3.2736,-3.1938,-3.2307,-3.149,-3.1045,-3.1044,-3.1582,-3.2222,-3.295,-3.3963,-3.4823,-3.55,-3.4812,-3.4826,-3.5407,-3.48,-3.486,-3.5521,-3.607,-3.5843,-3.5032,-3.4625,-3.3937,-3.3138,0.0,0.0,0.0,0.0,0.0,0.0,0.0,0.0,0.0,0.0,0.0,0.0,0.0,0.0,0.0,0.0,0.0,0.0,0.0,0.0,0.0,0.0,0.0,0.0,0.0,0.0,0.0,0.0,0.0,0.0,0.0,0.0,0.0,0.0,-4.3865,-4.5748,-4.4267,-4.6878,-4.7782,-4.5171,-4.5598,-4.6024,-4.6024,-4.6376,-4.6677,-4.6828,-4.7531,-4.7657,-4.7093,-4.7631,-4.7581,-4.6853,-4.6993,-4.7068,-4.7068,-4.6577,-4.6225,-4.5999,-4.4869,-4.4066,-4.3514,-4.3338,-4.3162,-4.2986,-4.2986,-4.2333,-4.1358,-4.1694,-4.1052,-4.0052,-4.0517,-4.0262,-3.9697,0.0,0.0,0.0,0.0,0.0,0.0,0.0,-3.1829,-3.0884,-2.9959,-3.0306,-3.1035,-3.2114,-3.3244,-3.4374,-3.5408,-3.4824,-3.4388,-3.4413,-3.2561,-3.1767,-3.2332,-3.1724,-3.0571,-2.8864,-3.1214,-3.1709,-3.0176,-3.1812,-3.2221,-3.1504,-3.1821,-3.2237,-3.2733,-3.3476,-3.4469,-3.5595,-3.5616,-3.5935,-3.6335,-3.494,-3.5133,-3.6082,0.0,0.0,0.0,0.0,0.0,0.0,0.0,0.0,0.0,0.0,0.0,0.0,0.0,0.0,0.0,0.0,0.0,0.0,0.0,0.0,0.0,0.0,0.0,0.0,0.0,0.0,0.0,0.0,0.0,0.0,0.0,0.0,0.0,-4.2514,-4.5598,-4.7205,-4.5095,-4.9138,-5.0845,-4.757,-4.8259,-4.8862,-4.8862,-4.7883,-4.7481,-4.7958,-4.7983,-4.7757,-4.7168,-4.7707,-4.7456,-4.6401,-4.6903,-4.7093,-4.7093,-4.6577,-4.6577,-4.6993,-4.5949,-4.5121,-4.4543,-4.4016,-4.3463,-4.2986,-4.2986,-4.2333,-4.13,-4.13,-4.0949,-4.0425,-3.9898,-3.9697,-3.9697,0.0,0.0,0.0,0.0,0.0,0.0,0.0,-3.1683,-3.0825,-3.045,-3.0859,-3.1612,-3.2717,-3.3822,-3.4685,-3.5226,-3.4757,-3.44,-3.4424,-3.245,-3.1115,-3.0687,-2.9537,-2.9091,-2.9518,-2.9513,-2.9573,-2.9746,-3.0497,-3.0952,-3.1074,-3.1819,-3.2353,-3.2733,-3.355,-3.4195,-3.4853,-3.5756,-3.6588,-3.7244,-3.6081,-3.5233,-3.4779,0.0,0.0,0.0,0.0,0.0,0.0,0.0,0.0,0.0,0.0,0.0,0.0,0.0,0.0,0.0,0.0,0.0,0.0,0.0,0.0,0.0,0.0,0.0,0.0,0.0,0.0,0.0,0.0,0.0,0.0,0.0,-4.3644,-4.5648,-4.5748,-4.8058,-4.9816,-5.0017,-5.1272,-5.19,-5.1398,-5.1247,-5.1197,-5.1197,-5.0544,-5.0017,-4.9741,-4.9741,-4.949,-4.8937,-4.9063,-4.8786,-4.8109,-4.7832,-4.7682,-4.7682,-4.6753,-4.6175,-4.5899,-4.4769,-4.3966,-4.3413,-4.3263,-4.3112,-4.2986,-4.2986,-4.2559,-4.1882,-4.1505,-4.0752,-3.9898,-3.9747,-3.9697,-3.9697,0.0,0.0,0.0,0.0,0.0,0.0,0.0,-3.1756,-3.0953,-3.077,-3.11,-3.1813,-3.2986,-3.3847,-3.451,-3.4948,-3.4318,-3.3794,-3.3594,-3.1605,-3.0223,-2.9756,-2.87,-2.845,-2.9144,-2.8779,-2.8887,-2.9626,-2.9805,-3.0156,-3.0605,-3.1113,-3.1662,-3.2235,-3.2905,-3.3704,-3.4555,-3.5268,-3.6476,-3.7908,-3.7123,-3.649,-3.6019,-3.5713,-3.5146,-3.4624,-3.5562,-3.5769,-3.5524,-3.517,0.0,0.0,0.0,0.0,0.0,0.0,0.0,0.0,0.0,0.0,0.0,0.0,0.0,0.0,0.0,0.0,0.0,0.0,0.0,0.0,0.0,0.0,0.0,0.0,-4.5944,-4.8054,-4.8689,-5.0122,-5.1448,-5.2352,-5.2452,-5.2578,-5.2904,-5.2427,-5.2101,-5.2101,-5.1599,-5.1021,-5.0444,-5.0419,-5.0067,-4.9264,-4.9464,-4.9213,-4.841,-4.8083,-4.7908,-4.7883,-4.6577,-4.5924,-4.5773,-4.4418,-4.3639,-4.3313,-4.3087,-4.2986,-4.2961,-4.2791,-4.2308,-4.1781,0.0,0.0,0.0,0.0,-3.9697,-3.9672,0.0,0.0,0.0,0.0,0.0,0.0,0.0,-3.2055,-3.1307,-3.1238,-3.1337,-3.1863,-3.3119,-3.3646,-3.4123,-3.463,-3.3776,-3.2965,-3.2332,-3.0602,-2.9557,-2.9562,-2.8944,-2.8554,-2.8475,-2.8706,-2.9062,-2.9492,-2.9492,-2.9707,-3.0137,-3.0234,-3.0664,-3.1387,-3.1934,-3.2979,-3.4314,-3.4516,-3.5942,-3.799,-3.7779,-3.8083,-3.8497,-3.6556,-3.6246,-3.6912,-3.7038,-3.6656,-3.6048,-3.6853,0.0,0.0,0.0,0.0,0.0,0.0,0.0,0.0,0.0,0.0,0.0,0.0,0.0,0.0,0.0,0.0,0.0,0.0,0.0,0.0,0.0,0.0,0.0,0.0,-4.8355,-5.0425,-5.1112,-5.183,-5.2391,-5.2742,-5.2792,-5.2792,-5.2792,-5.2409,-5.2133,-5.2133,-5.1674,-5.1147,-5.0645,-5.0494,0.0,0.0,0.0,-4.9113,-4.8109,-4.8033,-4.7983,-4.7883,-4.6326,-4.5773,-4.6075,-4.4518,-4.3765,-4.3689,-4.3187,-4.2986,-4.2936,-4.2514,-4.1882,-4.1275,-4.115,-4.0852,-4.0375,-3.9873,-3.9697,-3.9622,0.0,0.0,0.0,0.0,0.0,0.0,0.0,-3.2806,-3.2357,-3.304,-3.2118,-3.2164,-3.4173,-3.4098,-3.4034,-3.4334,-3.3642,-3.2832,-3.1918,-3.1129,-3.0835,-3.1145,-2.9878,-2.9271,-2.9597,-2.884,-2.8613,-2.9043,-2.9043,-2.9258,-2.9707,-3.043,-3.0644,-3.0508,-3.166,-3.2366,-3.2721,-3.4077,-3.5321,-3.643,-3.7313,-3.7878,-3.8295,-3.8212,-3.7839,-3.7449,-3.7832,-3.827,-3.8562,-3.7695,-3.8124,-3.8734,-3.7532,-3.7325,0.0,0.0,0.0,0.0,0.0,0.0,0.0,0.0,0.0,0.0,0.0,0.0,0.0,0.0,0.0,0.0,0.0,0.0,0.0,-4.5272,-4.8483,-5.1166,-5.2303,-5.288,-5.2893,-5.2104,-5.203,-5.203,-5.203,-5.2208,-5.2341,-5.2341,-5.2116,-5.19,-5.1774,-5.0921,-5.0318,-5.0117,-4.9766,-4.949,-4.9264,-4.8837,-4.836,-4.7883,-4.6728,0.0,-4.492,-4.4141,-4.3564,-4.3137,-4.3037,-4.2986,-4.2961,-4.2861,-4.2233,-4.12,-4.035,-3.9948,-3.9848,-3.9747,-3.9697,-3.9622,0.0,0.0,0.0,0.0,0.0,0.0,0.0,-3.3602,-3.3218,-3.3382,-3.2423,-3.2158,-3.3312,-3.2968,-3.2699,-3.2846,-3.2525,-3.2201,-3.1893,-3.134,-3.1295,-3.1982,-3.0783,-3.0125,-3.0263,-2.9477,-2.9013,-2.8926,-2.8926,-2.9141,-2.9646,-3.0234,-3.0547,-3.0586,-3.168,-3.2285,-3.2559,-3.3804,-3.4823,-3.5673,-3.6622,-3.7156,-3.7458,-3.8718,-3.8916,-3.8605,-3.9288,-3.9682,-3.9806,-3.9351,-3.9427,-3.9538,-3.8853,-3.8399,-3.7799,0.0,0.0,0.0,0.0,0.0,0.0,0.0,0.0,0.0,0.0,0.0,0.0,0.0,0.0,-3.8762,-3.936,0.0,-4.3872,-4.5419,-4.7949,-4.9776,-4.9956,-5.059,-5.1272,-5.2079,-5.2214,-5.2186,-5.2124,-5.2308,-5.2446,-5.2654,-5.2541,-5.2402,-5.2126,-5.1574,-5.0996,-5.0444,-5.0419,-5.0167,-4.9615,-4.9063,-4.8485,-4.7883,-4.625,-4.5171,-4.4593,-4.3765,-4.3237,-4.2986,-4.2986,-4.2986,-4.2961,-4.274,-4.1932,-4.0877,-4.0325,-3.9948,-3.9697,-3.9697,-3.9697,-3.9622,0.0,0.0,0.0,0.0,0.0,0.0,0.0,-3.4245,-3.3889,-3.3647,-3.2802,-3.2292,-3.2479,-3.2,-3.1549,-3.1345,-3.1497,-3.1749,-3.2191,-3.1754,-3.1948,-3.2899,-3.1942,-3.1244,-3.1085,-3.0622,-3.0178,-2.9679,-2.9461,-2.9683,-3.0218,-3.029,-3.0586,-3.1055,-3.1816,-3.2441,-3.2969,-3.375,-3.457,-3.5409,-3.6242,-3.6469,-3.659,-3.8528,-3.9206,-3.933,-4.0389,-4.0348,-3.9844,-4.0462,-4.0071,-3.9363,-3.9627,-3.919,-3.8044,-3.5892,-3.5851,0.0,0.0,0.0,0.0,0.0,0.0,0.0,0.0,-3.525,-3.583,-3.7976,-3.9151,-4.0137,-4.1241,-4.2827,-4.4379,-4.5664,-4.7385,-4.8401,-4.7835,-4.8335,-4.9717,-5.2187,-5.2211,-5.2108,-5.2227,-5.2317,-5.2407,-5.2585,-5.2654,-5.2523,-5.2072,-5.1847,-5.1372,-5.0572,-5.0838,-5.0604,-4.9636,-4.9213,-4.8586,-4.7883,-4.5899,-4.4844,-4.4593,-4.3589,-4.3087,-4.2986,-4.2986,-4.2986,-4.2936,-4.2258,-4.148,-4.0651,-4.045,-4.0099,-3.9697,-3.9697,-3.9697,-3.9622,0.0,0.0,0.0,0.0,0.0,0.0,0.0,0.0,-3.4335,-3.5301,-3.403,-3.3176,-3.3473,-3.2906,-3.2114,-3.1207,-3.158,-3.2222,-3.2995,-3.3241,-3.3786,-3.4921,-3.3677,-3.2905,-3.2919,-3.2384,-3.228,-3.2523,-3.1575,-3.156,-3.2313,-3.1303,-3.1035,-3.1465,-3.1953,-3.2598,-3.3379,-3.3867,-3.4616,-3.5485,-3.6569,-3.6796,-3.6634,-3.7963,-3.8234,-3.8211,-3.9769,-3.9373,-3.8223,-3.9454,-3.9273,-3.8838,-3.9927,-3.9988,-3.9171,-3.73,-3.6053,-3.4906,-3.3316,-3.372,-3.4802,-3.5772,-3.5725,-3.617,0.0,-3.8549,-3.7798,-3.938,-4.0038,-4.0532,-4.1161,-4.3115,-4.505,-4.6028,-4.7538,-4.888,-4.9664,-4.9548,-4.9981,-5.183,-5.0839,-5.0437,-5.1513,-5.187,-5.1864,-5.1401,-5.1726,-5.1935,-5.1861,-5.0949,-5.0604,-5.0949,-5.033,-5.0008,-4.9843,-4.9661,-4.8962,-4.7883,-4.6702,-4.5598,-4.4593,-4.3991,-4.3438,-4.2986,-4.2986,-4.2986,-4.2911,-4.1856,-4.13,-4.11,-4.0174,-3.9747,-3.9697,-3.9697,-3.9697,-3.9622,0.0,0.0,0.0,0.0,0.0,0.0,0.0,0.0,0.0,-3.5209,-3.4328,-3.3629,-3.3555,-3.2478,-3.1422,-3.0417,-3.1315,-3.2332,-3.3291,-3.4247,-3.528,-3.6407,-3.5887,-3.5212,-3.4379,-3.4125,-3.3758,-3.3112,-3.3052,-3.3277,-3.3797,-3.3713,-3.3518,-3.3309,-3.4024,-3.4266,-3.4127,-3.5062,-3.5474,-3.5719,-3.693,-3.691,-3.6242,-3.7502,-3.7098,-3.6176,-3.7859,-3.7887,0.0,-3.7992,-3.8033,-3.7952,-3.8997,-3.8846,-3.7978,-3.6654,-3.6343,-3.6243,-3.5944,-3.5765,-3.5772,-3.6425,-3.6956,-3.7606,-3.8764,-3.8764,-3.8975,-4.0408,-4.1367,-4.207,-4.2246,-4.3536,-4.472,-4.51,-4.6142,-4.6924,-4.7131,-4.6967,-4.7605,-4.9782,-4.9496,-5.0087,-5.2525,-5.2526,-5.2329,-5.203,-5.2147,-5.214,-5.1845,-5.1378,-5.1108,-5.1009,-5.0999,-5.0549,-4.9586,-4.9174,-4.8635,-4.7753,-4.5721,-4.468,-4.4482,-4.3375,-4.2705,-4.2481,-4.2481,-4.2481,-4.2432,-4.1607,-4.1087,-4.0794,-4.0025,-3.9504,-3.9206,-3.9594,-3.9697,-3.9672,0.0,0.0,0.0,0.0,0.0,0.0,0.0,0.0,0.0,0.0,-3.4632,-3.4111,-3.3589,-3.2291,-3.1156,-3.0266,-3.1225,-3.2365,-3.3532,-3.4601,-3.5864,-3.7294,-3.7318,-3.6792,-3.5801,-3.5892,-3.5549,-3.4532,-3.5007,-3.5408,-3.5681,-3.5981,-3.5953,-3.5596,-3.6282,-3.6139,-3.5413,-3.6374,-3.6501,-3.6239,-3.7095,-3.6846,-3.6058,-3.6856,-3.5986,-3.4588,-3.6122,-3.6082,-3.5396,-3.5836,-3.5996,-3.611,-3.6896,-3.6887,-3.6324,-3.5409,-3.5514,-3.5996,-3.655,-3.6522,-3.6484,-3.7062,-3.8262,-3.9238,-3.9043,-3.957,-4.0391,-4.1484,-4.2441,-4.3105,-4.3223,-4.3965,-4.457,-4.457,-4.5195,-4.5605,-4.541,-4.5078,-4.57,-4.8034,-4.8107,-4.9074,-5.1836,-5.2474,-5.2598,-5.2521,-5.2203,-5.1935,-5.169,-5.1467,-5.1198,-5.0885,-5.1244,-5.0729,-4.9383,-4.9001,-4.8453,-4.7651,-4.5159,-4.4151,-4.447,-4.2848,-4.211,-4.211,-4.211,-4.2037,-4.184,-4.1299,-4.0758,-4.0217,-3.9677,-3.921,-3.8841,-3.9258,-3.9413,-3.9413,0.0,0.0,0.0,0.0,0.0,0.0,0.0,0.0,0.0,0.0,0.0,0.0,0.0,-3.2869,-3.1947,-3.1204,-3.1482,-3.2323,-3.379,-3.4155,-3.531,-3.7494,-3.7419,-3.7268,-3.7218,-3.7759,-3.8003,-3.7927,-3.7816,-3.8005,-3.8386,-3.7815,-3.7708,-3.806,-3.8141,-3.7911,-3.7615,-3.7657,-3.7455,-3.7065,-3.6994,-3.6679,-3.6294,-3.5855,-3.4835,-3.3837,-3.4943,-3.4073,-3.2385,-3.2816,-3.2953,-3.3031,-3.3418,-3.4121,-3.459,-3.373,-3.293,-3.2542,-3.332,-3.4746,-3.6426,-3.8105,-3.9824,-4.1191,-4.1601,-4.2012,-4.2461,-4.293,-4.3047,-4.3203,-4.3613,-4.4414,-4.5,-4.5,-4.5391,-4.582,-4.6211,-4.5195,-4.5203,-4.7465,-4.6571,-4.6432,-4.8288,-5.0797,-5.2332,-5.2332,-5.1369,-5.0936,-5.1513,-5.0526,-5.0213,-5.0672,-5.0516,-5.0166,-4.9607,-4.9407,-4.8731,-4.7651,-4.5527,-4.4495,-4.447,-4.2848,-4.211,-4.211,-4.211,-4.1815,-4.1274,-4.0734,-4.0193,-3.9652,-3.9034,-3.8813,-3.8788,-3.8841,-3.8841,-3.8841,0.0,0.0,0.0,0.0,0.0,0.0,0.0,0.0,0.0,0.0,0.0,0.0,0.0,0.0,0.0,0.0,-3.2589,-3.3288,-3.4444,-3.5098,-3.6077,-3.745,-3.7686,-3.7668,-3.7493,-3.8013,-3.8183,-3.8054,-3.89,-3.952,-3.9837,-3.9816,-3.9783,-3.9803,-3.9744,-3.9524,-3.9154,-3.8597,-3.8487,-3.8527,-3.7328,-3.6773,-3.6541,-3.5493,-3.435,-3.3051,0.0,-3.152,-3.0756,-3.0914,-3.1014,-3.1191,-3.1934,-3.2363,-3.2539,-3.2246,-3.2559,-3.332,-3.4766,-3.6406,-3.8125,-3.9863,-4.1367,-4.2402,-4.2246,-4.2773,-4.3144,-4.2734,-4.2656,-4.2598,-4.2461,-4.3144,-4.3828,-4.4101,-4.5,-4.582,-4.625,-4.5703,-4.5639,-4.6557,-4.6306,-4.6379,-4.7127,-4.9335,-5.06,-5.0176,-5.0817,-5.1153,-5.0984,-5.0624,-5.0503,-5.0696,-5.0668,-5.0014,-4.8758,-4.8657,-4.8094,-4.7005,-4.5237,-4.3639,-4.2317,-4.1783,-4.1516,-4.1516,-4.1516,-4.1362,-4.1144,-4.0248,-3.9788,-3.9522,-3.8602,-3.8262,-3.8262,-3.8262,-3.8262,-3.8315,0.0,0.0,0.0,0.0,0.0,0.0,0.0,0.0,0.0,0.0,0.0,0.0,0.0,0.0,0.0,0.0,0.0,-3.3872,-3.4558,-3.5318,-3.6183,-3.7175,-3.7606,-3.7753,-3.7497,-3.783,-3.8117,-3.8356,-3.9095,-3.9901,-4.0727,-4.0714,-4.0799,-4.0854,-4.1047,-4.0779,-4.0279,-3.9742,-3.9143,-3.8516,-3.704,-3.6081,-3.548,-3.4327,-3.3223,0.0,-3.073,-2.9985,-2.9533,-2.9019,-2.9179,-2.9702,-3.0057,-3.0566,-3.1113,-3.1426,-3.2324,-3.3652,-3.5703,-3.7266,-3.8789,-4.0703,-4.2012,-4.2812,-4.2695,-4.3086,-4.332,-4.2773,-4.2168,-4.166,-4.1387,-4.1797,-4.2246,-4.2519,-4.3672,-4.4766,-4.5527,-4.498,-4.4774,-4.5431,-4.5129,-4.4898,-4.4936,-4.6692,-4.8035,-4.8501,-4.968,-5.0316,-5.0174,-5.0508,-5.0696,-5.0696,-5.0696,-5.0022,-4.8579,-4.8579,-4.7762,-4.6126,-4.4861,-4.3337,-4.1461,-4.1268,-4.1172,-4.1172,-4.098,-4.0787,-4.0547,-3.9681,-3.92,-3.896,-3.8262,-3.7974,-3.7974,-3.7974,-3.7974,-3.8027,0.0,0.0,0.0,0.0,0.0,0.0,0.0,0.0,0.0,0.0,0.0,0.0,0.0,0.0,0.0,0.0,0.0,0.0,-3.4315,-3.4826,-3.5562,-3.6606,-3.7208,-3.741,-3.7199,-3.7253,-3.7806,-3.888,-3.8596,-3.9325,-4.0963,-4.0567,-4.0704,-4.1204,-4.176,-4.1626,-4.0908,-4.0875,-3.9465,-3.7188,-3.6151,-3.4847,-3.3418,-3.239,-3.1788,-3.1366,-3.0378,-2.9549,-2.8727,-2.7322,-2.7665,-2.866,-2.8114,-2.9023,-3.0508,-3.1406,-3.2305,-3.3535,-3.6035,-3.7363,-3.8555,-4.0684,-4.1855,-4.2598,-4.2988,-4.3105,-4.3066,-4.2949,-4.1582,-4.0391,-4.0312,-4.0351,-4.0449,-4.0508,-4.1641,-4.2988,-4.4316,-4.3418,-4.3086,-4.4277,-4.332,-4.2383,-4.1914,-4.321,-4.4964,-4.704,-4.7878,-4.8515,-4.8997,-5.0079,-5.0696,-5.0696,-5.0672,-5.0143,-4.9036,-4.8988,-4.7666,-4.5053,-4.4549,-4.3505,-4.1966,-4.1437,-4.1172,-4.1148,-4.0643,-4.0138,-3.9609,-3.908,-3.8527,-3.8022,-3.7998,-3.7974,-3.7974,-3.7974,-3.7974,-3.7974,0.0,0.0,0.0,0.0,0.0,0.0,0.0,0.0,0.0,0.0,0.0,0.0,0.0,0.0,0.0,0.0,0.0,0.0,-3.4971,-3.5318,-3.5619,-3.5714,-3.6117,-3.6306,-3.6266,-3.6634,-3.7016,-3.7301,-3.8387,-3.8903,-3.8891,-3.9116,-3.918,-3.9121,-3.9323,-3.9371,-3.9402,-3.8868,-3.82,-3.7394,-3.5872,-3.5233,-3.5013,-3.3247,-3.2545,-3.2309,-3.0621,-2.9859,-2.9558,-2.8741,-2.9084,-2.9976,-3.08,-3.1523,-3.2363,-3.3535,-3.4746,-3.5898,-3.6875,-3.8476,-4.0156,-4.1348,-4.2519,-4.332,-4.3125,-4.332,-4.3008,-4.1094,-3.9844,-3.8691,-3.7402,-3.8203,-3.9394,-4.0371,-4.2422,-4.4336,-4.5625,-4.5527,-4.5195,-4.4902,-4.457,-4.3945,-4.2851,-4.2842,-4.2942,-4.3195,-4.6414,-4.8354,-4.8492,-4.9889,-5.0696,-5.0696,-5.0287,-4.9565,-4.8507,-4.7714,-4.6583,-4.5053,-4.4549,-4.3505,-4.1966,-4.1437,-4.1172,-4.1172,-4.1052,-4.0691,-4.0138,-3.9633,-3.908,-3.8551,-3.8142,-3.7974,-3.7974,-3.7974,-3.7974,-3.7926,0.0,0.0,0.0,0.0,0.0,0.0,0.0,0.0,0.0,0.0,0.0,0.0,0.0,0.0,0.0,0.0,0.0,0.0,0.0,-3.5511,-3.5583,-3.545,-3.5619,-3.5699,-3.5589,-3.6155,-3.6571,-3.6749,-3.7545,-3.8006,-3.8145,-3.8263,-3.816,-3.7929,-3.8118,-3.8268,-3.8214,-3.7517,-3.686,0.0,0.0,-3.4347,-3.3805,-3.2974,-3.2377,-3.1889,-3.123,-3.1103,-3.123,-3.1136,-3.1017,-3.1172,-3.2366,-3.3144,-3.3848,-3.4961,-3.5937,-3.6836,-3.7637,-3.9023,-4.0449,-4.1308,-4.2207,-4.2715,-4.209,-4.1992,-4.1465,-3.9453,-3.8047,-3.6894,-3.5918,-3.6836,-3.8047,-3.8965,-4.1289,-4.3496,-4.4961,-4.5156,-4.5195,-4.5293,-4.5137,-4.459,-4.3457,-4.2969,-4.2461,-4.1855,-4.4542,-4.6529,-4.7192,-4.8766,-4.9961,-5.0696,-5.0167,-4.9349,-4.8291,-4.7233,-4.6295,-4.5414,-4.4645,-4.3649,-4.2362,-4.2014,-4.1629,-4.1172,-4.1172,-4.0739,-4.0018,-3.9489,-3.8936,-3.8431,-3.8094,-3.7974,-3.795,-3.7733,-3.7637,-3.7517,0.0,0.0,0.0,0.0,0.0,0.0,0.0,0.0,0.0,0.0,0.0,0.0,0.0,0.0,0.0,0.0,0.0,0.0,0.0,0.0,-3.5579,-3.5519,-3.5519,-3.5424,-3.5261,-3.5826,-3.6259,-3.665,-3.6454,-3.6873,-3.7802,-3.76,-3.7244,-3.684,-3.7316,-3.728,-3.6861,-3.6222,-3.5484,-3.4557,-3.4097,-3.3054,-3.1853,0.0,-3.1935,-3.1346,-3.2074,-3.2547,-3.2898,-3.3595,-3.3216,-3.2592,-3.3642,-3.4453,-3.5234,-3.6172,-3.6699,-3.7246,-3.8359,-3.9297,-4.0176,-4.0976,-4.1484,-4.1543,-4.0566,-4.0059,-3.9355,-3.7812,-3.6328,-3.5273,-3.5156,-3.5879,-3.6719,-3.7363,-3.9512,-4.1738,-4.3613,-4.3828,-4.4277,-4.5605,-4.5332,-4.4707,-4.3867,-4.3359,-4.2715,-4.1875,-4.2668,-4.3911,-4.5468,-4.7338,-4.8984,-5.0409,-5.0022,-4.9253,-4.8195,-4.7209,-4.6439,-4.591,-4.4789,-4.3794,-4.2819,-4.2819,-4.2182,-4.1172,-4.1268,-4.0643,-3.9561,-3.9104,-3.8551,-3.7974,-3.7814,-3.7868,-3.7926,-3.7216,-3.7076,-3.7036,0.0,0.0,0.0,0.0,0.0,0.0,0.0,0.0,0.0,0.0,-3.6327,-3.6357,0.0,0.0,0.0,0.0,0.0,0.0,0.0,0.0,0.0,-3.5519,-3.5519,-3.5457,-3.5424,-3.5544,-3.5663,-3.575,-3.6073,-3.6043,-3.5719,-3.6061,-3.5478,-3.4166,-3.4714,-3.4459,-3.37,-3.386,-3.3795,-3.3596,-3.3346,-3.3344,-3.3449,-3.3116,0.0,0.0,-3.2968,-3.2508,-3.2452,-3.4534,-3.5009,-3.5037,-3.659,-3.7015,-3.709,-3.8301,-3.8711,-3.8809,-3.9023,-3.9746,-4.0547,-4.1055,-4.1484,-4.1387,-3.9805,-3.9375,-3.8555,-3.582,-3.5019,-3.4609,-3.3887,-3.4785,-3.6211,-3.8047,-3.9629,-4.1601,-4.4394,-4.4492,-4.4766,-4.6035,-4.5508,-4.4824,-4.4336,-4.3555,-4.2715,-4.1875,-4.1719,-4.2293,-4.3835,-4.6677,-4.8658,-4.9373,-4.9277,-4.87,-4.7642,-4.7016,-4.6439,-4.591,-4.4789,-4.3794,-4.2819,-4.2819,-4.2182,-4.1196,-4.1653,-4.098,-3.9609,-3.9513,-3.8888,-3.7921,-3.6881,-3.7096,-3.7796,-3.6273,-3.6373,-3.7036,0.0,0.0,0.0,0.0,0.0,0.0,0.0,-3.6466,-3.6697,-3.6926,-3.7584,-3.7883,-3.7524,-3.7734,-3.7913,0.0,0.0,0.0,0.0,0.0,0.0,0.0,0.0,0.0,-3.5519,-3.5848,-3.5848,-3.5519,0.0,-3.603,-3.5373,-3.5952,-3.5552,-3.4399,-3.4166,-3.3769,-3.3171,-3.254,-3.2612,-3.3106,-3.2895,-3.3316,-3.4035,0.0,0.0,0.0,-3.3213,-3.3181,-3.4053,-3.432,-3.5063,-3.6047,-3.7729,-3.8078,-3.8125,-3.8965,-3.9199,-3.9297,-3.9766,-4.0195,-4.0625,-4.1074,-4.1152,-4.0566,-3.8379,-3.7715,-3.6816,-3.4238,-3.3711,-3.3652,-3.3457,-3.4492,-3.5801,-3.7051,-3.8906,-4.0937,-4.3047,-4.375,-4.4433,-4.5508,-4.5273,-4.4766,-4.4101,-4.3457,-4.2715,-4.1875,-4.1406,-4.183,-4.34,-4.6529,-4.8681,-4.9517,-4.9229,-4.87,-4.7906,-4.7112,-4.6583,-4.6319,-4.5197,-4.4202,-4.3144,-4.3144,-4.2423,-4.122,-4.1749,-4.1076,-3.9609,-3.9609,-3.8578,-3.7012,-3.6449,-3.6557,-3.6942,-3.5795,-3.6139,-3.7036,0.0,0.0,0.0,0.0,0.0,0.0,0.0,-3.6923,-3.7218,-3.7913,-3.896,-3.9469,-3.908,-3.902,-3.896,0.0,0.0,0.0,0.0,0.0,0.0,0.0,0.0,0.0,-3.5519,0.0,0.0,-3.5699,-3.6357,0.0,0.0,0.0,0.0,0.0,-3.4299,-3.3688,-3.3104,-3.1979,-3.2042,0.0,0.0,-3.3292,-3.428,0.0,0.0,0.0,0.0,-3.4284,-3.5352,-3.4381,-3.4798,-3.5994,-3.7517,-3.8232,-3.8504,-3.8691,-3.9062,-3.9492,-4.0195,-4.0586,-4.0859,-4.1113,-4.0918,-3.9941,-3.7168,-3.6191,-3.5273,-3.3105,-3.2656,-3.2812,-3.332,-3.4277,-3.5176,-3.5781,-3.7598,-3.9531,-4.1289,-4.2383,-4.3496,-4.4746,-4.4805,-4.4433,-4.3652,-4.3183,-4.2578,-4.1738,-4.1367,-4.183,-4.34,-4.5828,-4.7607,-4.8685,-4.8236,-4.7716,-4.7197,-4.621,-4.5691,-4.5573,-4.4911,-4.4103,-4.3079,-4.3503,-4.2832,-4.1365,-4.1798,-4.1076,-3.9585,-3.9189,-3.7911,-3.6122,-3.563,-3.563,-3.5727,-3.5205,-3.5769,-3.6725,0.0,0.0,0.0,0.0,0.0,0.0,0.0,-3.7684,-3.8211,-3.9925,-4.0217,-4.0516,-4.1055,-4.1115,-4.0876,0.0,0.0,0.0,0.0,0.0,0.0,0.0,0.0,0.0,0.0,0.0,0.0,-3.6387,-3.7015,0.0,0.0,0.0,0.0,0.0,0.0,-3.3536,-3.2254,-3.2471,0.0,0.0,0.0,0.0,0.0,0.0,0.0,0.0,0.0,-3.5772,-3.4797,-3.583,-3.542,-3.4656,-3.5997,-3.7064,-3.7845,-3.7532,-3.8594,-3.9844,-3.9922,-4.0801,-4.1601,-4.125,-4.1152,-4.0234,-3.6855,-3.5762,-3.4844,-3.2676,-3.2287,-3.248,-3.3281,-3.3516,-3.4004,-3.5254,-3.5644,-3.6934,-4.0176,-4.0742,-4.1719,-4.416,-4.4082,-4.3633,-4.3183,-4.2734,-4.2129,-4.1289,-4.1191,-4.183,-4.34,-4.346,-4.389,-4.497,-4.4556,-4.4,-4.3514,-4.2938,-4.2454,-4.2081,-4.2759,-4.2604,-4.1761,-4.3455,-4.3409,-4.1894,-4.2,-4.1076,-3.945,-3.7877,-3.6847,-3.6013,-3.3853,-3.3685,-3.4493,-3.3989,-3.4517,-3.5624,0.0,0.0,0.0,0.0,0.0,0.0,-3.7248,-3.7234,-3.7609,-3.9026,-3.9888,-4.0666,-4.1362,-4.1782,-4.1602,-4.0487,0.0,0.0,0.0,0.0,0.0,0.0,0.0,0.0,0.0,0.0,-3.6866,-3.7614,-3.7494,0.0,0.0,0.0,0.0,0.0,0.0,-3.4111,-3.2775,-3.2863,0.0,0.0,0.0,0.0,0.0,0.0,0.0,0.0,0.0,0.0,-3.5903,-3.4803,-3.4582,-3.4614,-3.3729,-3.4632,-3.6288,-3.7322,-3.8255,-3.9166,-4.0056,-4.1016,-4.1699,-4.1269,-4.0566,-3.9297,-3.6621,-3.5273,-3.4062,-3.2168,-3.1992,-3.2344,-3.293,-3.2832,-3.3008,-3.4043,-3.4434,-3.5351,-3.75,-3.8262,-3.9453,-4.1797,-4.1894,-4.1933,-4.2266,-4.2148,-4.1816,-4.1211,-4.1172,-4.1345,-4.1682,-4.2447,-4.3384,-4.4545,-4.4064,-4.3582,-4.3101,-4.2642,-4.216,-4.1746,-4.144,-4.1572,-4.1948,-4.1792,-4.1803,-4.1942,-4.1293,-4.0475,-3.945,-3.772,-3.6248,-3.4947,-3.3346,-3.297,-3.3325,-3.3135,-3.3636,-3.4495,0.0,0.0,0.0,0.0,0.0,-3.6438,-3.7091,-3.708,-3.7489,-3.8816,-3.9978,-4.0935,-4.1632,-4.2291,-4.2192,-4.1085,-4.0038,0.0,0.0,0.0,0.0,0.0,0.0,0.0,0.0,0.0,-3.7494,-3.8392,-3.8123,-3.8123,0.0,0.0,-3.7375,-3.6746,0.0,0.0,0.0,0.0,0.0,0.0,0.0,0.0,0.0,0.0,0.0,0.0,0.0,0.0,0.0,0.0,0.0,-3.458,-3.2586,-3.2998,-3.4574,-3.6203,-3.748,-3.8655,-3.9645,-4.0859,-4.1699,-4.1269,-4.0176,-3.8672,-3.668,-3.5098,-3.3652,-3.2187,-3.2148,-3.2441,-3.2734,-3.2559,-3.25,-3.2969,-3.3301,-3.4004,-3.543,-3.6269,-3.7441,-3.9336,-3.9687,-4.0098,-4.0957,-4.1387,-4.1484,-4.1191,-4.1055,-4.0801,-4.0351,-4.1309,-4.2163,-4.2958,-4.2364,-4.1898,-4.165,-4.1113,-4.0668,-4.0269,-4.001,-4.0388,-4.1448,-4.0731,-4.0924,-4.1677,-4.0421,-3.9466,-3.869,-3.6577,-3.4977,-3.3776,-3.2628,-3.219,-3.219,-3.2571,-3.3022,-3.3461,0.0,0.0,0.0,0.0,0.0,0.0,-3.753,-3.7707,-3.8361,-4.0164,-4.0965,-4.1662,-4.2321,-4.294,-4.306,-4.244,-4.0546,0.0,0.0,0.0,0.0,0.0,0.0,0.0,0.0,0.0,-3.8392,-3.8392,-3.908,-3.905,-3.8392,-3.8392,-3.8033,-3.7375,0.0,0.0,0.0,0.0,0.0,0.0,0.0,0.0,0.0,0.0,0.0,0.0,0.0,0.0,0.0,0.0,0.0,0.0,0.0,-3.269,-3.2888,-3.3693,-3.6055,-3.8458,-3.8622,-4.0156,-4.1699,-4.1269,-4.0176,-3.875,-3.7051,-3.5312,-3.3828,-3.2949,-3.2793,-3.2793,-3.2793,-3.2793,-3.2656,-3.2307,-3.2248,-3.2773,-3.4473,-3.5117,-3.5898,-3.7168,-3.7695,-3.8281,-3.9141,-4.041,-4.1172,-4.1172,-4.0781,-4.0351,-3.9922,-3.9473,-3.9219,-3.9273,-3.8379,-3.793,-3.793,-3.759,-3.716,-3.6749,-3.8112,-3.8961,-3.9493,-4.0864,-4.1355,-4.1091,-3.9371,-3.8044,-3.6777,-3.3933,-3.2742,-3.2571,-3.1402,-3.0898,-3.1054,-3.2227,-3.2685,-3.283,0.0,0.0,0.0,0.0,0.0,0.0,0.0,-3.6348,-3.6723,-3.8153,-3.8931,-3.9768,-4.0905,-4.1594,-4.2102,-4.2381,-4.1422,0.0,0.0,0.0,0.0,0.0,0.0,0.0,0.0,-3.8272,-3.905,-4.0427,-4.0187,-4.0217,-4.0427,-3.9978,-3.917,-3.8063,-3.7883,-3.7114,0.0,0.0,0.0,0.0,0.0,0.0,-3.6593,0.0,0.0,0.0,0.0,0.0,0.0,0.0,0.0,0.0,0.0,0.0,0.0,-3.2813,-3.4372,-3.6137,-3.6328,-3.7754,-3.8984,-3.8281,-3.7559,-3.6719,-3.5586,-3.4453,-3.3379,-3.2539,-3.2598,-3.2715,-3.2422,-3.2129,-3.207,-3.2519,-3.2363,-3.2461,-3.3281,-3.4551,-3.5762,-3.6758,-3.8809,-4.0254,-4.0527,-4.0937,-4.1055,-4.0762,-4.0605,-4.0195,-3.9453,-3.9004,-3.8769,-3.8769,-3.8223,-3.7793,-3.75,-3.709,-3.6504,-3.5801,-3.5917,-3.6587,-3.7614,-3.742,-3.8232,-3.9721,-3.765,-3.6849,-3.6777,-3.3877,-3.2685,-3.2571,-3.1344,-3.0898,-3.0957,-3.1344,-3.112,-3.0658,0.0,0.0,0.0,0.0,0.0,0.0,0.0,-3.5862,-3.6237,-3.7285,-3.8212,-3.929,-4.0636,-4.1392,-4.2051,-4.2671,-4.2342,0.0,0.0,0.0,0.0,0.0,0.0,0.0,-3.8781,-3.902,-3.9768,-4.0995,-4.0846,-4.0965,-4.1422,-4.0965,-4.0187,-3.914,-3.8901,-3.8145,0.0,0.0,0.0,0.0,0.0,0.0,-3.6383,0.0,0.0,0.0,0.0,0.0,0.0,0.0,0.0,0.0,0.0,0.0,0.0,0.0,-3.3155,-3.4153,-3.4962,-3.6152,-3.7148,-3.6953,-3.6211,-3.543,-3.5039,-3.4043,-3.3027,-3.2519,-3.248,-3.2422,-3.1992,-3.1699,-3.1641,-3.2012,-3.1855,-3.1953,-3.2695,-3.4004,-3.5332,-3.6523,-3.875,-4.0195,-4.0195,-4.0644,-4.082,-4.0547,-4.0215,-3.9707,-3.9004,-3.8555,-3.8262,-3.8105,-3.7676,-3.7324,-3.707,-3.6484,-3.5918,-3.5391,-3.4922,-3.5306,-3.6495,-3.5707,-3.6328,-3.7839,-3.5838,-3.5114,0.0,-3.296,-3.2018,-3.196,-3.117,-3.0898,-3.0898,-3.0898,-3.043,-2.9824,0.0,0.0,0.0,0.0,0.0,0.0,0.0,-3.6061,-3.6656,-3.7315,-3.8482,-3.9768,-4.1085,-4.1901,-4.2521,-4.311,0.0,0.0,0.0,0.0,0.0,0.0,0.0,0.0,-3.9373,-4.0068,-4.0427,-4.0457,-4.1115,-4.1444,-4.1444,-4.1444,-4.1085,-4.0367,-3.9768,-3.9104,-3.8365,-3.7329,-3.6987,-3.7043,-3.6501,-3.6075,0.0,0.0,0.0,0.0,0.0,0.0,0.0,0.0,0.0,0.0,0.0,0.0,0.0,0.0,0.0,0.0,0.0,-3.5098,-3.5937,-3.6699,-3.5723,-3.4668,-3.5078,-3.3926,0.0,-3.2754,-3.2441,-3.2031,-3.1601,-3.1523,-3.1387,-3.0996,-3.0937,-3.1367,-3.2617,-3.3672,-3.4941,-3.6699,-3.8008,-3.873,-3.8672,-3.9805,-4.0508,-4.0488,-3.9687,-3.9004,-3.8555,-3.8105,-3.7676,-3.7266,-3.6836,-3.6641,-3.668,-3.582,-3.5371,-3.5332,-3.4902,-3.5062,-3.5747,-3.5397,-3.5363,-3.5627,-3.398,-3.3041,-3.2628,-3.1402,-3.0898,-3.0898,-3.0898,-3.0879,-3.084,-3.084,-3.0527,-3.0059,0.0,0.0,0.0,0.0,0.0,0.0,0.0,0.0,0.0,0.0,-3.7674,-3.8392,-3.9738,-4.0905,-4.1683,0.0,0.0,0.0,0.0,0.0,0.0,0.0,0.0,0.0,-3.9373,-4.0068,-4.0636,-4.1145,-4.1841,-4.2171,-4.2171,-4.2171,-4.1504,-4.0397,-4.0247,-3.9706,-3.8894,-3.7962,-3.7744,-3.7909,-3.6259,-3.5833,0.0,0.0,0.0,0.0,-3.6784,-3.7462,0.0,0.0,0.0,0.0,0.0,0.0,0.0,0.0,-3.2157,-3.2013,-3.2514,0.0,-3.3047,-3.291,-3.3066,-3.3184,0.0,-3.2851,-3.2695,-3.2383,-3.2307,-3.2031,-3.1601,-3.1523,-3.1484,-3.1387,-3.1367,-3.1699,-3.2656,-3.4961,-3.7187,-3.8926,-3.998,-4.0312,-3.9648,-4.0156,-4.0391,-4.0059,-3.9512,-3.8867,-3.8125,-3.7676,-3.7246,-3.6836,-3.6406,-3.6328,-3.666,-3.582,-3.5215,-3.4863,-3.4746,-3.4334,-3.3565,-3.3466,-3.3599,-3.3843,-3.253,-3.2248,-3.2628,-3.1402,-3.0898,-3.0898,-3.0898,-3.0664,-3.0351,-3.0351,-2.9883,-2.9199,0.0,0.0,0.0,0.0,0.0,0.0,0.0,0.0,0.0,0.0,0.0,0.0,0.0,0.0,0.0,0.0,0.0,0.0,0.0,0.0,0.0,0.0,0.0,-3.9738,-3.9403,-4.0367,-4.1025,-4.1422,-4.2342,-4.2791,-4.2791,-4.2791,-4.2102,-4.0816,-4.0217,-3.9661,-3.9215,-3.8927,-3.8705,-3.8388,-3.7263,0.0,0.0,0.0,0.0,0.0,-3.6408,-3.6985,0.0,-3.7466,-3.6601,-3.5382,0.0,0.0,0.0,0.0,-3.197,-3.1848,-3.1914,-3.19,-3.1914,-3.207,-3.2305,-3.25,-3.2461,-3.2324,-3.2148,-3.1914,-3.1719,-3.1504,-3.1269,-3.1387,-3.1445,-3.1269,-3.1719,-3.2539,-3.3809,-3.5723,-3.7656,-3.9375,-4.0176,-4.0488,-4.0215,-4.0215,-3.998,-3.9336,-3.8867,-3.8242,-3.7402,-3.7129,-3.6816,-3.6387,-3.5957,-3.5937,-3.6367,-3.5508,-3.4941,-3.4687,-3.4297,-3.3652,-3.2793,-3.2598,-3.2492,-3.2431,-3.1604,-3.1504,-3.1845,-3.117,-3.0898,-3.0898,-3.0898,-3.0742,-3.0488,-3.0273,-2.9785,-2.9199,0.0,0.0,0.0,0.0,0.0,0.0,0.0,0.0,0.0,0.0,0.0,0.0,0.0,0.0,0.0,0.0,0.0,0.0,0.0,0.0,0.0,0.0,-4.0816,-4.0127,-3.9589,-4.0666,-4.1324,-4.1572,-4.2761,-4.3349,-4.3439,-4.3439,-4.2731,-4.1324,-4.0217,-3.9709,-3.9725,-3.9934,-3.959,-3.8866,-3.8519,0.0,0.0,0.0,0.0,0.0,0.0,0.0,0.0,-3.7563,-3.6392,-3.4605,-3.5175,0.0,0.0,0.0,0.0,0.0,-3.181,-3.1781,-3.1914,-3.2383,-3.2344,-3.2226,-3.2461,-3.1992,-3.1504,-3.1445,-3.1133,-3.0918,-3.0976,-3.123,-3.1348,-3.1113,-3.2266,-3.3789,-3.5527,-3.6582,-3.7695,-3.9141,-3.9766,-4.0156,-4.0312,-4.0059,-3.9531,-3.8652,-3.8164,-3.7559,-3.6719,-3.668,-3.6465,-3.6035,-3.5605,-3.5566,-3.5918,-3.5098,-3.4668,-3.459,-3.3867,-3.3223,-3.2695,-3.2324,-3.1894,-3.1406,-3.1055,-3.0898,-3.0898,-3.0898,-3.0898,-3.0898,-3.0898,-3.082,-3.0644,-3.0254,-2.9785,-2.9316,0.0,0.0,0.0,0.0,0.0,0.0,0.0,0.0,0.0,0.0,0.0,0.0,0.0,0.0,0.0,0.0,0.0,0.0,0.0,0.0,0.0,-4.2261,-4.1055,-4.0337,-4.0247,-4.0457,-4.1085,-4.2261,-4.3,-4.3658,-4.4167,-4.4167,-4.318,-4.1422,-4.1175,-4.1085,-4.1047,-4.0286,-4.0077,-4.0167,-3.8499,0.0,0.0,0.0,0.0,0.0,0.0,0.0,0.0,-3.7262,-3.6128,-3.4693,-3.4762,0.0,0.0,0.0,0.0,0.0,-3.1957,-3.255,-3.2812,-3.1504,-3.168,-3.1992,-3.1328,-3.1348,-3.1406,-3.1055,-3.0937,-3.0996,-3.1367,-3.1191,-3.1211,-3.1875,-3.3672,-3.5586,-3.7305,-3.8613,-3.9492,-3.9766,-4.0488,-4.0566,-3.9512,-3.9707,-3.9531,-3.8652,-3.8164,-3.7559,-3.6719,-3.668,-3.6465,-3.6035,-3.5605,-3.543,-3.5488,-3.4961,-3.4531,-3.416,-3.4043,-3.3379,-3.2266,-3.2268,-3.1738,-3.0976,-3.0918,-3.0898,-3.0898,-3.0898,-3.0898,-3.0898,-3.0898,-3.043,-2.9766,-2.9744,-2.916,-2.8476,0.0,0.0,0.0,0.0,0.0,0.0,0.0,0.0,0.0,0.0,0.0,0.0,0.0,0.0,0.0,0.0,0.0,0.0,0.0,0.0,-4.303,-4.244,-4.1811,-4.1294,-4.0935,-4.0935,-4.1564,-4.288,-4.3569,-4.4227,-4.4825,-4.4107,-4.3299,-4.2432,-4.1713,-4.1422,-4.1384,-4.0935,-4.0463,-3.9943,0.0,0.0,0.0,0.0,0.0,0.0,0.0,0.0,0.0,0.0,-3.5887,-3.428,-3.428,0.0,0.0,0.0,0.0,0.0,-3.1561,-3.1997,-3.2324,-3.1992,-3.2734,-3.3379,-3.2754,-3.2578,-3.2363,-3.1719,-3.1582,-3.1641,-3.1836,-3.2266,-3.3203,-3.498,-3.5723,-3.6523,-3.7754,-3.8437,-3.9004,-3.9473,-4.0098,-4.0254,-3.9629,-3.9766,-3.9336,-3.7988,-3.7695,-3.7207,-3.6367,-3.6328,-3.6133,-3.5703,-3.5488,-3.5156,-3.4687,-3.4473,-3.4258,-3.4062,-3.3594,-3.2949,-3.2168,-3.1934,-3.1484,-3.0898,-3.0898,-3.0898,-3.0898,-3.0898,-3.0898,-3.0898,-3.0898,-3.0644,-3.0234,-2.9746,-2.9023,-2.8301,0.0,0.0,0.0,0.0,0.0,0.0,0.0,0.0,0.0,0.0,0.0,0.0,0.0,0.0,0.0,0.0,0.0,0.0,0.0,-4.2821,-4.294,-4.265,-4.25,-4.2171,-4.1662,-4.1662,-4.2252,-4.3529,-4.4227,-4.4885,-4.5514,-4.4456,-4.3768,-4.3329,-4.2312,-4.1743,-4.1662,-4.1662,-4.1036,-4.0013,0.0,0.0,0.0,0.0,0.0,0.0,0.0,0.0,0.0,0.0,0.0,0.0,0.0,0.0,0.0,-3.0738,-3.0787,-3.095,-3.1047,-3.1348,-3.1836,-3.248,-3.3301,-3.4004,-3.418,-3.373,-3.3184,-3.2832,-3.2676,-3.2578,-3.248,-3.334,-3.4746,-3.6836,-3.7148,-3.7422,-3.8262,-3.8555,-3.8887,-3.9453,-3.9824,-3.9961,-3.9746,-3.9726,-3.9062,-3.7422,-3.7305,-3.6934,-3.6074,-3.6016,-3.582,-3.541,-3.5293,-3.4805,-3.3926,-3.3828,-3.3769,-3.3769,-3.3105,-3.2519,-3.2012,-3.168,-3.1289,-3.0898,-3.0898,-3.0898,-3.0898,-3.0898,-3.0898,-3.0879,-3.0762,-3.0605,-3.0332,-2.9551,-2.8848,-2.8301,0.0,0.0,0.0,0.0,0.0,0.0,0.0,0.0,0.0,0.0,0.0,0.0,0.0,0.0,0.0,0.0,0.0,0.0,0.0,-4.244,-4.2671,-4.32,-4.2671,-4.2381,-4.2321,-4.2321,-4.294,-4.4257,-4.4915,-4.5574,-4.6262,-4.61,-4.5083,-4.329,-4.32,-4.2851,-4.2321,-4.2321,-4.1971,-4.1275,-4.0485,0.0,0.0,0.0,0.0,0.0,0.0,0.0,0.0,0.0,0.0,0.0,0.0,0.0,-3.0632,-3.0073,-3.0158,-3.0489,-3.0307,-3.1172,-3.2129,-3.2268,-3.1973,-3.2266,-3.4199,-3.3711,-3.3164,-3.4277,-3.4199,-3.3809,-3.3398,-3.373,-3.4258,-3.4844,-3.6894,-3.875,-3.9629,-4.043,-4.0801,-4.0469,-4.0469,-4.0156,-3.9336,-3.9258,-3.8711,-3.7402,-3.7305,-3.6934,-3.6074,-3.6016,-3.582,-3.541,-3.498,-3.4336,-3.3476,-3.3086,-3.2891,-3.2891,-3.2832,-3.2363,-3.1562,-3.1523,-3.1289,-3.0898,-3.0898,-3.0898,-3.0898,-3.0898,-3.0898,-3.0859,-3.041,-2.9766,-2.9004,-2.8555,-2.834,-2.8301,0.0,0.0,0.0,0.0,0.0,0.0,0.0,0.0,0.0,0.0,0.0,0.0,0.0,0.0,0.0,0.0,0.0,0.0,0.0,-4.1332,-4.2081,-4.2701,-4.253,-4.241,-4.241,-4.283,-4.3838,-4.5532,-4.6232,-4.6471,-4.6279,-4.5873,-4.5065,-4.3888,-4.3469,-4.314,-4.294,-4.256,-4.2059,-4.1387,-4.0307,-3.9237,0.0,0.0,0.0,0.0,0.0,0.0,0.0,0.0,-3.4969,-3.3155,-3.2883,-3.1629,-3.0158,-2.9553,-2.9695,-3.0048,-2.9856,-3.0566,-3.1504,-3.2031,-3.1836,-3.2226,-3.4902,-3.5156,-3.4863,-3.5078,-3.543,-3.5469,-3.4766,-3.543,-3.6211,-3.6641,-3.7969,-3.918,-3.9805,-4.0176,-4.0312,-4.0156,-3.9883,-3.957,-3.9238,-3.8711,-3.8105,-3.7363,-3.7051,-3.6641,-3.6055,-3.5781,-3.543,-3.498,-3.4531,-3.3906,-3.3047,-3.2871,-3.2519,-3.1992,-3.1992,-3.1836,-3.1504,-3.125,-3.1035,-3.0898,-3.0898,-3.0898,-3.0898,-3.0898,-3.0898,-3.084,-3.0371,-2.9668,-2.8906,-2.875,-2.8516,-2.8301,0.0,0.0,0.0,0.0,0.0,0.0,0.0,0.0,0.0,0.0,0.0,0.0,0.0,0.0,0.0,0.0,0.0,0.0,-3.9343,-4.0277,-4.1055,-4.1752,-4.1991,-4.2145,-4.2288,-4.286,-4.3867,-4.52,-4.631,-4.6488,-4.5836,-4.5196,-4.4495,-4.3688,-4.2808,-4.2544,-4.272,-4.2085,-4.1532,-4.0991,-3.9908,-3.9077,0.0,0.0,0.0,0.0,0.0,0.0,0.0,0.0,-3.4919,-3.3345,-3.2704,-3.1595,-3.0297,-2.9233,-2.9333,-2.9748,-2.9443,-2.9902,-3.0644,-3.1367,-3.1523,-3.2266,-3.5156,-3.582,-3.5976,-3.6484,-3.6426,-3.6133,-3.5684,-3.5976,-3.6465,-3.7031,-3.8066,-3.8906,-3.9219,-3.9394,-3.9434,-3.9297,-3.8984,-3.875,-3.8613,-3.8066,-3.7559,-3.7129,-3.6836,-3.6426,-3.5859,-3.5547,-3.5059,-3.4316,-3.4023,-3.3398,-3.2402,-3.2402,-3.2031,-3.1328,-3.1328,-3.1328,-3.1309,-3.1016,-3.0898,-3.0898,-3.0898,-3.0898,-3.0879,-3.0742,-3.0508,-3.0234,-2.9922,-2.9355,-2.8711,-2.8711,-2.8535,-2.8301,0.0,0.0,0.0,0.0,0.0,0.0,0.0,0.0,0.0,0.0,0.0,0.0,0.0,0.0,0.0,0.0,0.0,0.0,-3.9284,-3.9373,-3.9709,-4.0367,-4.1025,-4.1566,-4.1988,-4.2502,-4.2765,-4.2836,-4.4806,-4.5475,-4.4836,-4.4269,-4.3458,-4.2402,-4.1165,-4.0969,-4.1459,-4.0856,-4.0403,-4.0033,-3.9454,-3.9005,-3.8611,0.0,0.0,0.0,0.0,0.0,0.0,0.0,-3.4831,-3.3839,-3.2808,-3.2072,-3.117,-2.9106,-2.9112,-2.9687,-2.907,-2.9238,-2.9668,-3.0098,-3.0879,-3.2207,-3.4805,-3.5391,-3.6113,-3.8672,-3.7168,-3.5527,-3.5937,-3.4961,-3.4375,-3.5254,-3.6816,-3.791,-3.791,-3.8281,-3.8398,-3.7969,-3.791,-3.7754,-3.7344,-3.7285,-3.7109,-3.6699,-3.666,-3.6289,-3.543,-3.5391,-3.4766,-3.3457,-3.3418,-3.2793,-3.1523,-3.1523,-3.1309,-3.0898,-3.0898,-3.0898,-3.0898,-3.0898,-3.0898,-3.0898,-3.0879,-3.0879,-3.0859,-3.0391,-2.9687,-2.8926,-2.8926,-2.8652,-2.8301,-2.8301,-2.8301,-2.8301,0.0,0.0,0.0,0.0,0.0,0.0,0.0,0.0,0.0,0.0,0.0,0.0,0.0,0.0,0.0,0.0,0.0,0.0,-3.8003,-3.8422,-3.899,-3.9679,-4.0337,-4.0677,-4.0612,-4.035,-4.1179,-4.3199,-4.3811,-4.36,-4.2549,-4.2833,-4.2317,-4.1165,-4.1206,-4.1094,-4.0884,-4.0688,-4.0403,-4.0033,-3.9454,-3.9005,-3.8611,0.0,0.0,0.0,0.0,0.0,0.0,0.0,0.0,0.0,-3.3386,-3.2391,-3.1309,-2.9756,-2.9332,-2.9226,-2.8852,-2.9404,-3.0039,-3.0176,-3.1543,-3.3301,-3.5,-3.5391,-3.5937,-3.7891,-3.7461,-3.6582,-3.6113,-3.5957,-3.5781,-3.5449,-3.6328,-3.7148,-3.7441,-3.7598,-3.7617,-3.75,-3.7226,-3.7109,-3.7285,-3.6758,-3.6348,-3.623,-3.5937,-3.5508,-3.4941,-3.4336,-3.3828,-3.3437,-3.2851,-3.2207,-3.1523,-3.1523,-3.1309,-3.0898,-3.0898,-3.0898,-3.0898,-3.0898,-3.0898,-3.0879,-3.0547,-3.041,-3.0371,-2.9941,-2.9434,-2.8926,-2.8926,-2.8652,-2.8301,-2.8301,-2.8301,-2.8301,0.0,0.0,0.0,0.0,0.0,0.0,0.0,0.0,0.0,0.0,-4.0905,0.0,0.0,0.0,0.0,0.0,0.0,0.0,0.0,-3.8182,-3.8571,-3.899,-3.9528,-3.977,-3.9645,-3.919,-3.9814,-4.1534,-4.2196,-4.1991,-4.1046,-4.1685,-4.1304,-4.024,-4.055,-4.0431,-3.983,-3.983,-3.9491,-3.8844,-3.8737,-3.8535,-3.8272,0.0,0.0,0.0,0.0,0.0,0.0,0.0,0.0,0.0,-3.3637,-3.2958,-3.2176,-3.0264,-2.9686,-2.9615,-2.9305,-2.9715,-3.0332,-3.084,-3.2344,-3.4062,-3.5566,-3.6426,-3.7305,-3.8672,-3.793,-3.6992,-3.6816,-3.6289,-3.584,-3.5664,-3.6074,-3.6504,-3.6758,-3.6797,-3.6797,-3.6797,-3.6426,-3.6269,-3.6523,-3.5918,-3.5488,-3.5488,-3.5254,-3.4922,-3.4473,-3.3789,-3.3262,-3.293,-3.2266,-3.1699,-3.1269,-3.1269,-3.1133,-3.0898,-3.0898,-3.0898,-3.0898,-3.0898,-3.0801,-3.0586,-3.0137,-2.9844,-2.9668,-2.9414,-2.9062,-2.8672,-2.8672,-2.8418,-2.8066,-2.8223,-2.8184,-2.8047,0.0,0.0,0.0,0.0,0.0,0.0,0.0,0.0,0.0,0.0,-4.0876,-4.0457,0.0,0.0,0.0,0.0,0.0,0.0,0.0,-3.8392,-3.8387,-3.8346,-3.8702,-3.8968,-3.9121,-3.8806,-3.8632,-3.8585,-4.0094,-4.0556,-3.9988,-4.0591,-4.0375,-3.9473,-3.9525,-3.9185,-3.8632,-3.8632,-3.7978,-3.6985,-3.7639,-3.7848,-3.7645,-3.6897,0.0,0.0,0.0,0.0,0.0,0.0,0.0,0.0,-3.3646,-3.3592,-3.3315,-3.0599,-3.0135,-3.0381,-3.0043,-3.0069,-3.0566,-3.1855,-3.3305,-3.4746,-3.6465,-3.8027,-3.9355,-4.0078,-3.8418,-3.7051,-3.7734,-3.623,-3.5137,-3.5898,-3.5996,-3.5976,-3.6016,-3.5996,-3.5957,-3.5957,-3.5625,-3.5371,-3.5332,-3.4941,-3.4687,-3.4648,-3.4648,-3.4434,-3.3984,-3.3535,-3.293,-3.2129,-3.168,-3.1269,-3.0898,-3.0898,-3.0898,-3.0898,-3.0859,-3.082,-3.082,-3.082,-3.0547,-3.0059,-2.9668,-2.9258,-2.8848,-2.8828,-2.8574,-2.8223,-2.8203,-2.7949,-2.7708,-2.8027,-2.793,-2.7669,0.0,0.0,0.0,0.0,0.0,0.0,0.0,0.0,0.0,0.0,0.0,0.0,0.0,0.0,0.0,0.0,0.0,0.0,0.0,-3.8392,-3.8317,-3.8098,-3.8343,-3.8687,-3.9166,-3.8482,-3.7964,-3.7779,-3.8559,-3.8699,-3.8103,-3.8908,-3.9073,-3.8709,-3.9103,-3.8834,-3.8083,-3.8083,-3.7377,-3.6384,-3.7482,-3.7325,-3.6541,-3.6836,-3.6004,0.0,0.0,0.0,0.0,0.0,0.0,0.0,-3.3975,-3.3273,-3.241,-3.0971,-3.0018,-2.9366,-2.9331,-3.002,-3.0976,-3.1934,-3.4225,-3.6465,-3.7851,-3.8457,-3.8574,-3.8086,-3.8086,-3.8008,-3.7519,-3.6777,-3.6191,-3.6035,-3.5742,-3.5644,-3.5976,-3.5742,-3.5527,-3.5527,-3.5449,-3.5254,-3.4883,-3.4766,-3.457,-3.4238,-3.4219,-3.3867,-3.3105,-3.2656,-3.2207,-3.168,-3.125,-3.0976,-3.0898,-3.0898,-3.0898,-3.0879,-3.0527,-3.0351,-3.0351,-3.0351,-2.9922,-2.918,-2.9101,-2.8828,-2.8398,-2.8066,-2.7943,-2.7773,-2.7422,-2.7246,-2.7168,-2.7246,-2.7226,-2.7148,0.0,0.0,0.0,0.0,0.0,0.0,0.0,0.0,0.0,0.0,0.0,0.0,0.0,0.0,0.0,0.0,0.0,0.0,0.0,0.0,-3.8708,-3.8318,-3.8324,-3.8421,-3.8594,-3.8011,-3.7644,-3.7505,-3.7556,-3.7484,-3.732,-3.8309,-3.8791,-3.8821,-3.9343,-3.8969,-3.79,-3.79,-3.7063,-3.5783,-3.6671,-3.6671,-3.6123,-3.6175,-3.5504,-3.4571,-3.4289,0.0,0.0,0.0,0.0,0.0,0.0,0.0,-3.2731,-3.095,-3.0173,-2.9792,-2.9501,-3.0099,-3.1348,-3.3242,-3.4902,-3.6387,-3.7676,-3.7812,-3.7598,-3.7344,-3.7656,-3.7773,-3.7109,-3.6641,-3.6289,-3.6055,-3.5664,-3.5469,-3.5684,-3.5332,-3.5059,-3.5059,-3.4883,-3.4668,-3.4414,-3.4199,-3.4004,-3.3769,-3.3574,-3.3262,-3.2812,-3.2207,-3.1758,-3.1523,-3.1113,-3.0898,-3.0898,-3.0664,-3.0566,-3.0547,-3.0098,-2.9785,-2.959,-2.959,-2.9336,-2.8906,-2.8711,-2.8379,-2.7969,-2.7806,-2.7591,-2.7324,-2.7109,-2.6894,-2.6758,-2.7168,-2.707,-2.6777,0.0,0.0,0.0,0.0,0.0,0.0,0.0,0.0,0.0,0.0,0.0,0.0,0.0,0.0,0.0,0.0,0.0,0.0,0.0,0.0,0.0,-3.8434,-3.8258,-3.7998,-3.7743,-3.7514,-3.735,-3.7304,-3.6713,-3.6675,-3.7147,-3.8168,-3.8851,-3.9223,-3.9633,-3.9055,-3.7854,-3.7795,-3.675,-3.5208,-3.5835,-3.5992,-3.5757,-3.5374,-3.4891,-3.4392,-3.3862,-3.3386,-3.3187,-3.3596,0.0,0.0,0.0,0.0,-3.2897,-3.0681,-3.0169,-3.0229,-2.9631,-3.0191,-3.168,-3.4551,-3.5391,-3.5781,-3.6836,-3.6875,-3.6719,-3.6934,-3.7031,-3.6973,-3.6621,-3.6133,-3.5801,-3.5801,-3.543,-3.5195,-3.5254,-3.4883,-3.459,-3.459,-3.4277,-3.4043,-3.3965,-3.3574,-3.332,-3.332,-3.293,-3.2656,-3.2578,-3.1894,-3.1484,-3.1406,-3.1074,-3.0898,-3.0898,-3.043,-3.0195,-3.0195,-2.9687,-2.9238,-2.8809,-2.873,-2.8711,-2.8672,-2.8262,-2.7871,-2.7539,-2.7532,-2.7226,-2.6894,-2.6816,-2.6582,-2.6367,-2.707,-2.6894,-2.6367,0.0,0.0,0.0,0.0,0.0,0.0,0.0,0.0,0.0,0.0,-4.0876,-4.0726,0.0,0.0,0.0,0.0,0.0,0.0,0.0,0.0,0.0,-3.7573,-3.7333,-3.7172,-3.7116,-3.689,-3.6664,-3.6482,-3.5678,-3.5957,-3.7182,-3.7811,-3.8539,-3.9244,-3.9084,-3.8453,-3.7526,-3.7234,-3.6123,-3.4607,-3.5678,-3.5521,-3.4643,-3.4847,-3.4478,-3.3785,-3.3539,-3.3283,-3.3136,-3.3169,-3.2842,0.0,0.0,0.0,-3.0907,-3.0176,-2.9581,-2.8988,-2.8667,-2.9964,-3.1973,-3.4238,-3.5371,-3.5976,-3.6152,-3.6445,-3.6484,-3.5781,-3.5937,-3.6172,-3.6113,-3.543,-3.4883,-3.4883,-3.4531,-3.4375,-3.4746,-3.4434,-3.416,-3.416,-3.4101,-3.3926,-3.3535,-3.3125,-3.2871,-3.2871,-3.248,-3.209,-3.1719,-3.1582,-3.1348,-3.0996,-3.0918,-3.0898,-3.0898,-3.043,-3.0195,-3.0176,-2.9394,-2.8789,-2.8359,-2.8008,-2.7885,-2.7812,-2.7363,-2.7148,-2.707,-2.6719,-2.6523,-2.6426,-2.6055,-2.583,-2.5791,-2.5908,-2.5869,-2.5791,0.0,0.0,0.0,0.0,0.0,0.0,0.0,0.0,0.0,0.0,0.0,-4.0905,0.0,0.0,0.0,-3.7913,0.0,0.0,0.0,0.0,0.0,-3.6442,-3.6469,-3.6488,-3.6488,-3.647,-3.627,-3.5801,-3.5167,-3.5672,-3.7186,-3.7437,-3.8163,-3.9271,-3.8786,-3.8089,-3.7196,-3.6457,-3.54,-3.4241,-3.4606,-3.4545,-3.4215,-3.422,-3.3751,-3.3097,-3.2971,-3.26,-3.2139,-3.2139,-3.1964,-3.1712,-3.1411,0.0,0.0,0.0,-2.9753,-3.0034,-3.0091,-3.0498,-3.1466,-3.3457,-3.4101,-3.4394,-3.5117,-3.5254,-3.5176,-3.5039,-3.4961,-3.5,-3.5234,-3.4961,-3.4707,-3.4707,-3.4336,-3.4043,-3.3984,-3.3828,-3.3535,-3.3066,-3.3418,-3.3535,-3.3105,-3.291,-3.2793,-3.2793,-3.2168,-3.1719,-3.1523,-3.1289,-3.1074,-3.0898,-3.0644,-3.0508,-3.0508,-2.9824,-2.9355,-2.9121,-2.8516,-2.8125,-2.791,-2.7246,-2.7258,-2.7689,-2.7207,-2.6875,-2.6641,-2.6465,-2.625,-2.5996,-2.5771,-2.5693,-2.5713,-2.6016,-2.5937,-2.5752,0.0,0.0,0.0,0.0,0.0,0.0,0.0,0.0,0.0,0.0,0.0,0.0,0.0,0.0,0.0,0.0,-3.8003,0.0,0.0,0.0,0.0,-3.5588,-3.5759,-3.5844,-3.58,-3.5845,-3.5603,-3.5079,-3.4552,-3.5303,-3.7186,-3.7036,-3.7886,-3.9373,-3.8841,-3.81,-3.7143,-3.6089,-3.5172,-3.4392,-3.3896,-3.381,-3.3979,-3.3725,-3.3301,-3.2751,-3.2583,-3.2205,-3.1788,-3.1637,-3.1587,-3.1512,-3.0984,-3.0984,0.0,0.0,0.0,-3.0354,-3.09,-3.0648,-3.0715,-3.2483,-3.2871,-3.3066,-3.4141,-3.4141,-3.4004,-3.4316,-3.4043,-3.3848,-3.416,-3.4297,-3.4375,-3.4375,-3.4023,-3.3633,-3.3301,-3.3164,-3.2871,-3.2246,-3.2715,-3.2988,-3.2656,-3.2539,-3.2461,-3.2461,-3.1777,-3.1367,-3.1367,-3.1055,-3.084,-3.0723,-3.0371,-3.0137,-3.0039,-2.9297,-2.8652,-2.8125,-2.7812,-2.7669,-2.748,-2.6738,-2.6738,-2.7324,-2.6875,-2.6504,-2.623,-2.623,-2.6035,-2.5693,-2.5693,-2.5693,-2.5732,-2.6094,-2.6016,-2.5791,0.0,0.0,0.0,0.0,0.0,0.0,0.0,0.0,0.0,0.0,0.0,0.0,-4.1265,-4.0187,-3.8871,-3.7524,-3.8003,-3.7958,-3.7003,-3.612,0.0,-3.5362,-3.5355,0.0,-3.4969,-3.4804,-3.4543,-3.4274,-3.355,-3.455,-3.7186,-3.6707,-3.7612,-3.9673,-3.9297,-3.8512,-3.7445,-3.6606,-3.5878,-3.5263,-3.4161,-3.3725,-3.3725,-3.3471,-3.3386,-3.3242,-3.2475,-3.2541,-3.2893,-3.2365,-3.2164,-3.2064,-3.1512,-3.1035,-3.0557,0.0,0.0,0.0,-2.9657,-2.9647,-2.9747,-3.1231,-3.2207,-3.291,-3.3379,-3.3476,-3.3457,-3.3476,-3.3164,-3.2871,-3.2891,-3.3223,-3.3496,-3.3496,-3.3144,-3.2851,-3.2832,-3.248,-3.2226,-3.2168,-3.2268,-3.2226,-3.2207,-3.1816,-3.1582,-3.1582,-3.1172,-3.0918,-3.0918,-3.0898,-3.0684,-3.0254,-3.0215,-3.0,-2.9609,-2.9141,-2.8516,-2.7748,-2.7728,-2.7441,-2.7031,-2.6582,-2.6406,-2.6426,-2.5996,-2.5752,-2.5732,-2.5732,-2.5713,-2.5693,-2.5693,-2.5693,-2.5693,-2.5713,-2.5713,-2.5752,0.0,0.0,0.0,0.0,0.0,0.0,0.0,0.0,0.0,0.0,0.0,0.0,0.0,-3.9301,-3.8496,-3.7164,-3.6457,-3.5927,-3.557,-3.4794,0.0,-3.4188,-3.5234,-3.5383,-3.4399,-3.4881,-3.4689,-3.369,-3.3298,-3.4123,-3.6085,-3.5931,-3.6835,-3.8592,-3.8114,-3.7709,-3.7205,-3.5481,-3.473,-3.4564,-3.3672,-3.3386,-3.3471,-3.3283,-3.297,-3.2575,-3.229,-3.2114,-3.1964,-3.1763,-3.1687,-3.1662,-3.1461,-3.1035,-3.0633,-3.0783,-3.0121,-2.9529,-3.044,-3.0313,-3.0075,-3.0747,-3.1348,-3.1978,-3.2522,-3.2617,-3.2617,-3.2617,-3.25,-3.248,-3.2734,-3.2695,-3.2695,-3.2969,-3.2676,-3.2383,-3.2383,-3.2266,-3.1973,-3.1406,-3.1836,-3.2051,-3.1777,-3.1621,-3.1523,-3.1523,-3.1133,-3.0898,-3.0898,-3.0605,-3.0371,-3.0195,-2.9668,-2.918,-2.875,-2.832,-2.7969,-2.7708,-2.7109,-2.6758,-2.6602,-2.6172,-2.5977,-2.5957,-2.5752,-2.5693,-2.5693,-2.5693,-2.5693,-2.5693,-2.5693,-2.5693,-2.5693,-2.5693,-2.5693,-2.5713,0.0,0.0,0.0,0.0,0.0,0.0,0.0,0.0,-4.0217,-4.0498,0.0,0.0,0.0,0.0,-3.8664,-3.7557,-3.6151,-3.5425,-3.5683,-3.4735,-3.4121,-3.4038,-3.5106,-3.5107,-3.3878,-3.4648,-3.4456,-3.3326,-3.2953,-3.3646,-3.5232,-3.5031,-3.5981,-3.7688,-3.6759,-3.6759,-3.7362,-3.5705,-3.4866,-3.4578,-3.3891,-3.3481,-3.3333,-3.374,-3.3319,-3.2541,-3.2717,-3.2416,-3.1938,-3.1738,-3.1662,-3.1662,-3.1662,-3.1185,-3.0708,-3.1235,-3.0728,-3.0081,-3.0513,-3.0233,-2.9846,-2.9928,-3.0178,-3.0636,-3.1524,-3.1621,-3.1601,-3.1894,-3.1836,-3.1875,-3.2285,-3.2031,-3.1973,-3.2676,-3.2324,-3.1953,-3.1953,-3.1836,-3.1523,-3.0957,-3.1387,-3.1621,-3.1328,-3.1309,-3.1309,-3.1309,-3.1055,-3.0898,-3.0898,-3.0449,-3.0059,-2.9785,-2.8945,-2.8359,-2.8086,-2.7656,-2.7383,-2.7278,-2.666,-2.6309,-2.6152,-2.581,-2.5693,-2.5693,-2.5693,-2.5693,-2.5693,-2.5693,-2.5693,-2.5693,-2.5693,-2.5693,-2.5693,-2.5693,-2.5693,-2.5713,0.0,0.0,0.0,0.0,0.0,0.0,0.0,0.0,-3.962,-3.9606,0.0,0.0,0.0,0.0,0.0,-3.8559,-3.7194,-3.6641,-3.7319,-3.6029,-3.5184,-3.4874,0.0,0.0,-3.3436,-3.3969,-3.3864,-3.3093,-3.2516,-3.3093,-3.47,-3.4148,-3.5052,-3.7061,-3.5454,-3.5931,-3.7889,-3.7312,-3.6483,-3.5458,-3.4881,-3.4073,-3.3294,-3.4856,-3.4525,-3.3194,-3.3721,-3.3545,-3.3018,-3.2441,-3.224,-3.224,-3.219,-3.1486,-3.0758,-3.1195,-3.0728,-2.9981,0.0,0.0,0.0,-2.8645,-2.8581,-2.8982,-3.0507,-3.0488,-3.041,-3.1289,-3.1152,-3.0996,-3.1445,-3.1172,-3.1309,-3.2559,-3.2051,-3.1504,-3.1523,-3.1152,-3.0898,-3.0898,-3.0898,-3.0898,-3.0898,-3.0898,-3.0898,-3.0898,-3.0898,-3.0898,-3.0898,-3.043,-2.9785,-2.8906,-2.8086,-2.7708,-2.7708,-2.7226,-2.6797,-2.6387,-2.6387,-2.6152,-2.5693,-2.5693,-2.5693,-2.5693,-2.5693,-2.5693,-2.5693,-2.5693,-2.5693,-2.5693,-2.5693,-2.5693,-2.5693,-2.5693,-2.5693,-2.5752,0.0,0.0,0.0,0.0,0.0,-4.1803,-4.1056,-4.0399,-3.9802,0.0,0.0,0.0,-3.7878,-3.7051,-3.6499,-3.6271,-3.5922,-3.5765,-3.5947,-3.5598,-3.5164,-3.4709,-3.5454,-3.5296,-3.402,-3.4553,-3.4445,-3.3671,-3.3119,-3.3294,-3.4123,-3.3972,-3.465,-3.5934,-3.5483,-3.5608,-3.6085,-3.4776,-3.4726,-3.5408,-3.45,-3.4173,-3.4324,-3.4731,-3.463,-3.4248,-3.3997,-3.3796,-3.3596,-3.3018,-3.2842,-3.2692,-3.1863,-3.1687,-3.1589,-3.0678,-3.0495,-3.0328,-2.9261,0.0,0.0,0.0,0.0,0.0,-2.9329,-2.9355,-2.9512,-3.0391,-3.0469,-3.0625,-3.1387,-3.1172,-3.1113,-3.1758,-3.1426,-3.1172,-3.1465,-3.1152,-3.0898,-3.0898,-3.0898,-3.0898,-3.0898,-3.0898,-3.0898,-3.0898,-3.0898,-3.0898,-3.0898,-3.0156,-2.9219,-2.8047,-2.7845,-2.7571,-2.7207,-2.6777,-2.6504,-2.6387,-2.6074,-2.581,-2.5693,-2.5693,-2.5693,-2.5693,-2.5693,-2.5693,-2.5693,-2.5693,-2.5693,-2.5693,-2.5693,-2.5693,-2.5693,-2.5693,-2.5693,-2.5713,0.0,0.0,0.0,0.0,0.0,-4.0985,-4.0568,-3.9938,-3.9467,0.0,0.0,0.0,-3.7873,-3.6985,-3.6447,-3.6447,-3.6217,-3.6089,-3.6089,-3.5654,-3.52,-3.4849,-3.5437,-3.5251,-3.4073,-3.4855,-3.4836,-3.3897,-3.3345,-3.3244,-3.3545,-3.3319,-3.3796,-3.4806,-3.4625,-3.4731,-3.5056,-3.3671,-3.3897,-3.5132,-3.5002,-3.4851,-3.4801,-3.5479,-3.5328,-3.4751,-3.4876,-3.4776,-3.4474,-3.3696,-3.3269,-3.2842,-3.1486,-3.1587,-3.1922,-3.0416,-3.038,-3.047,-2.8833,-2.8615,-2.8632,-2.7877,0.0,0.0,-2.8377,-2.8295,-2.832,-2.9004,-2.9277,-2.9609,-3.0312,-3.0527,-3.0684,-3.0918,-3.0918,-3.0976,-3.123,-3.1191,-3.1094,-3.0918,-3.1055,-3.1074,-3.0918,-3.0898,-3.0898,-3.0898,-3.0898,-3.0723,-3.0351,-2.9844,-2.9062,-2.7969,-2.7578,-2.7266,-2.7012,-2.6426,-2.6113,-2.6113,-2.581,-2.5693,-2.5693,-2.5693,-2.5693,-2.5693,-2.5693,-2.5693,-2.5693,-2.5693,-2.5693,-2.5693,-2.5693,-2.5693,-2.5693,-2.5693,-2.5693,-2.5693,0.0,0.0,-4.0517,-4.0517,-4.0081,-3.9647,-3.9596,-3.9186,-3.883,0.0,-3.883,-3.883,-3.883,-3.8245,-3.7887,-3.7811,-3.7398,-3.7092,-3.7015,-3.6018,-3.5321,-3.5142,-3.5142,-3.4824,-3.4098,-3.5006,-3.4981,-3.3997,-3.3445,-3.3187,-3.3111,-3.2541,-3.2842,-3.3796,-3.3294,-3.3621,-3.4474,-3.3621,-3.3822,-3.4801,-3.578,-3.568,-3.5052,-3.6533,-3.6182,-3.5027,-3.5931,-3.5956,-3.5332,-3.4274,-3.3571,-3.2893,-3.1163,-3.1322,-3.1811,-3.0236,-3.0153,-3.0164,-2.8386,-2.7932,-2.7828,-2.751,-2.6992,0.0,-2.7708,-2.7412,-2.7141,-2.7689,-2.808,-2.8437,-2.8906,-2.9609,-3.0117,-3.0059,-3.0488,-3.084,-3.0879,-3.1211,-3.1328,-3.0996,-3.125,-3.1328,-3.0996,-3.0918,-3.0898,-3.0898,-3.084,-3.0449,-2.9609,-2.9531,-2.9082,-2.8184,-2.7402,-2.6973,-2.6875,-2.6064,-2.5693,-2.5693,-2.5693,-2.5693,-2.5693,-2.5693,-2.5693,-2.5693,-2.5693,-2.5693,-2.5693,-2.5693,-2.5693,-2.5693,-2.5693,-2.5693,-2.5693,-2.5693,-2.5693,-2.5693,0.0,-4.0542,-4.0517,-4.0517,-4.0414,-4.0083,-3.9448,-3.9295,-3.9119,-3.8919,-3.8869,-3.8869,-3.8869,-3.8339,-3.781,-3.7356,-3.723,-3.6978,-3.6572,-3.5894,-3.547,-3.5424,-3.5424,-3.5328,-3.5182,-3.5382,-3.5182,-3.455,-3.3997,-3.352,-3.3111,-3.2968,-3.3018,-3.3244,-3.3162,-3.3194,-3.3445,-3.4123,-3.4525,-3.4751,-3.4951,-3.5454,-3.6128,-3.6455,-3.638,-3.6006,-3.578,-3.5583,-3.5332,-3.4274,-3.3822,-3.3389,-3.1376,-3.1191,-3.1273,-2.8991,-2.8699,-2.8848,-2.7755,-2.7447,-2.7348,-2.7078,-2.6914,0.0,-2.7211,-2.7043,-2.717,-2.8265,-2.8402,-2.8535,-2.9297,-2.957,-2.957,-2.9219,-2.9824,-3.0469,-3.084,-3.0957,-3.1113,-3.1367,-3.1172,-3.1113,-3.1367,-3.1094,-3.0898,-3.0898,-3.0547,-3.0098,-2.9646,-2.9238,-2.8496,-2.7305,-2.7109,-2.668,-2.5947,-2.5771,-2.5693,-2.5693,-2.5693,-2.5693,-2.5693,-2.5693,-2.5693,-2.5693,-2.5693,-2.5693,-2.5693,-2.5693,-2.5693,-2.5693,-2.5693,-2.5693,-2.5693,-2.5693,-2.5693,-2.5693,-4.0236,-4.0185,-4.0108,-4.0108,-4.0108,-3.9956,-3.9525,-3.9499,-3.9549,-3.9647,-3.9697,-3.9597,-3.932,-3.8517,-3.8015,-3.8015,-3.7262,-3.6832,-3.6832,-3.6006,-3.5508,-3.5508,-3.5508,-3.5508,-3.5508,-3.5805,-3.5554,-3.468,-3.4449,-3.3897,-3.3111,-3.3111,-3.2853,-3.2351,-3.2896,-3.2568,-3.1717,-3.2987,-3.3384,-3.3353,-3.4935,-3.5881,-3.6405,-3.6405,-3.6405,-3.6285,-3.5466,-3.5006,-3.4686,-3.4191,-3.4119,-3.3781,-3.0978,-3.0965,-3.1484,-2.8699,-2.8307,-2.8491,-2.7526,-2.7309,-2.7262,-2.7119,-2.6996,0.0,0.0,-2.6838,-2.6823,-2.7482,-2.752,-2.7617,-2.8271,-2.8587,-2.8775,-2.8775,-2.9447,-2.9961,-3.0195,-3.0801,-3.1211,-3.1211,-3.1211,-3.1211,-3.1211,-3.1016,-3.0898,-3.0898,-3.0684,-3.0254,-2.9609,-2.9355,-2.875,-2.7695,-2.7246,-2.6797,-2.6317,-2.5908,-2.5693,-2.5693,-2.5693,-2.5693,-2.5693,-2.5693,-2.5693,-2.5693,-2.5693,-2.5693,-2.5693,-2.5693,-2.5693,-2.5693,-2.5693,-2.5693,-2.5693,-2.5693,-2.5693,-2.5693,-4.0032,-3.9826,-3.9697,-3.9697,-3.9697,-3.9697,-3.9697,-3.9697,-3.9848,-4.03,-4.045,-4.03,-3.9747,-3.8969,-3.8642,-3.8994,-3.7637,-3.6908,-3.7312,-3.616,-3.5533,-3.5658,-3.5558,-3.5533,-3.5658,-3.6132,-3.583,-3.468,-3.468,-3.4059,-3.281,-3.281,-3.2264,-3.1359,-3.2176,-3.1717,-3.0376,-3.1641,-3.2043,-3.2058,-3.4725,-3.5763,-3.5763,-3.5763,-3.5763,-3.5667,-3.4775,-3.4197,-3.3839,-3.3768,-3.3999,-3.3668,-3.0488,-3.0535,-3.1318,-2.88,-2.8265,-2.8408,-2.7729,-2.7496,-2.7434,-2.7434,-2.7181,-2.6996,0.0,0.0,0.0,-2.6665,-2.6665,-2.6758,-2.7151,-2.7611,-2.8053,-2.843,-2.8987,-2.9391,-2.9372,-3.0371,-3.1074,-3.0918,-3.1035,-3.1113,-3.1016,-3.0937,-3.0898,-3.0898,-3.082,-3.0449,-2.9726,-2.9531,-2.9043,-2.8203,-2.7422,-2.6934,-2.6777,-2.6044,-2.5693,-2.5693,-2.5693,-2.5693,-2.5693,-2.5693,-2.5693,-2.5693,-2.5693,-2.5693,-2.5693,-2.5693,-2.5693,-2.5693,-2.5693,-2.5693,-2.5693,-2.5693,-2.5693,-2.5693,-3.9749,-3.9749,-3.9697,-3.9697,-3.9697,-3.9697,-3.9697,-3.9697,-3.9722,-3.9772,-4.0199,-4.03,-3.9747,-4.0023,-4.0049,-3.9647,-3.8517,-3.7839,-3.7914,-3.6386,-3.5755,-3.6279,-3.5805,-3.578,-3.6304,-3.638,-3.583,-3.468,-3.468,-3.3677,-3.1757,-3.1757,-3.127,-3.0351,-3.0486,-3.0582,-3.0812,-3.1481,-3.1988,-3.2397,-3.3218,-3.3549,-3.3549,-3.3549,-3.3549,-3.3549,-3.3449,-3.3353,-3.3189,-3.275,-3.2591,-3.2356,-3.0585,-2.9899,-2.9606,-2.8768,-2.8278,-2.807,-2.8338,-2.8152,-2.7841,-2.7841,-2.7552,-2.7262,-2.7262,0.0,-2.6954,-2.7293,0.0,-2.7151,-2.7663,0.0,0.0,-2.7589,-2.8239,-2.8706,-2.8491,-2.9219,-3.0059,-3.0801,-3.0234,-3.0234,-3.1348,-3.1113,-3.0898,-3.0898,-3.0508,-3.0234,-3.0137,-2.9414,-2.8613,-2.7806,-2.7266,-2.6641,-2.5849,-2.5732,-2.5693,-2.5693,-2.5693,-2.5693,-2.5693,-2.5693,-2.5693,-2.5693,-2.5693,-2.5693,-2.5693,-2.5693,-2.5693,-2.5693,-2.5693,-2.5693,-2.5693,-2.5693,-2.5693,-2.5693,-3.9697,-3.9697,-3.9697,-3.9697,-3.9697,-3.9697,-3.9697,-3.9973,-4.0049,-3.9747,-4.0174,-4.0425,-4.0199,-4.0099,-4.0074,-4.0174,-3.9145,-3.8517,-3.8517,-3.7538,-3.7086,-3.7312,-3.6784,-3.6609,-3.6883,-3.5936,-3.5083,-3.4277,-3.3403,-3.2343,-3.1132,-3.0896,-3.0422,-2.9749,-3.033,-3.0182,-2.9591,-3.0705,-3.0938,-3.0629,-3.1156,-3.1351,-3.1505,-3.275,-3.2801,-3.2348,-3.3001,-3.2801,-3.2208,-3.1716,-3.2135,-3.24,-2.9688,-2.9504,-2.9992,-2.8593,-2.8276,-2.8359,-2.8566,-2.8276,-2.7924,-2.7924,-2.7593,-2.7309,-2.7309,-2.7214,-2.7181,-2.7366,0.0,0.0,0.0,0.0,0.0,0.0,-2.8257,-2.8621,-2.8354,-2.8594,-2.916,-3.0019,-2.9785,-2.9785,-3.0332,-3.0449,-3.0273,-2.9785,-3.0273,-3.0273,-2.9492,-2.9121,-2.8652,-2.8047,-2.7129,-2.6484,-2.6113,-2.5859,-2.5693,-2.5693,-2.5693,-2.5693,-2.5693,-2.5693,-2.5693,-2.5693,-2.5693,-2.5693,-2.5693,-2.5693,-2.5693,-2.5693,-2.5693,-2.5693,-2.5693,-2.5693,-2.5693,-2.5693,-3.9697,-3.9697,-3.9697,-3.9697,-3.9697,-3.9697,-3.9697,-4.0023,-4.0149,-3.9747,-4.0174,-4.0576,-4.0727,-4.0375,-4.0425,-4.1128,-4.0049,-3.932,-3.932,-3.8315,-3.7742,-3.7789,-3.6924,-3.6505,-3.655,-3.5138,-3.4075,-3.3553,-3.232,-3.1359,-3.0595,-3.0191,-2.9678,-2.9209,-2.9752,-2.958,-2.8865,-2.9934,-3.0066,-2.9518,-2.9849,-2.9994,-3.0151,-3.1761,-3.1841,-3.1278,-3.2044,-3.1841,-3.1133,-3.0788,-3.1403,-3.1844,-2.9147,-2.9197,-2.9992,-2.8543,-2.8255,-2.8483,-2.8731,-2.8462,-2.811,-2.811,-2.7779,-2.7455,-2.733,-2.7413,-2.7448,-2.7448,-2.7282,0.0,0.0,0.0,-2.788,-2.8077,0.0,-2.8589,-2.8441,-2.8256,-2.8437,-2.9297,-2.9492,-2.9531,-2.9394,-2.9785,-2.9766,-2.9141,-2.9883,-2.9941,-2.8965,-2.8711,-2.8379,-2.7949,-2.6934,-2.6328,-2.6211,-2.5849,-2.5693,-2.5693,-2.5693,-2.5693,-2.5693,-2.5693,-2.5693,-2.5693,-2.5693,-2.5693,-2.5693,-2.5693,-2.5693,-2.5693,-2.5693,-2.5693,-2.5693,-2.5693,-2.5693,-2.5693,-3.9697,-3.9697,-3.9697,-3.9697,-3.9697,-3.9697,-3.9697,-3.9697,-3.9722,-3.9697,-4.0174,-4.0727,-4.12,-4.125,-4.1731,-4.2811,-4.1404,-4.0475,-4.0475,-3.8362,-3.7134,-3.7213,-3.5544,-3.4671,-3.4872,-3.3796,-3.2997,-3.2443,-3.1938,-3.116,-3.0095,-2.9642,-2.9155,-2.8616,-2.816,-2.8471,-2.929,-2.9342,-2.9611,-2.9973,-2.9994,-2.9994,-2.9994,-3.0099,-3.0099,-3.0047,-3.0099,-3.0099,-3.0047,-3.0026,-3.0078,-3.0016,-2.9415,-2.898,-2.8678,-2.8607,-2.8297,-2.8152,-2.9042,-2.8938,-2.8587,-2.8587,-2.8235,-2.78,-2.7413,-2.7593,-2.7903,-2.7903,-2.8235,-2.8545,-2.8566,-2.8587,-2.8652,-2.8819,-2.8643,0.0,0.0,-2.8107,-2.7988,-2.8848,-2.9316,-2.9394,-2.8984,-2.9336,-2.9646,-2.9551,-2.9199,-2.8965,-2.8926,-2.8144,-2.75,-2.707,-2.6621,-2.6191,-2.5713,-2.5693,-2.5693,-2.5693,-2.5693,-2.5693,-2.5693,-2.5693,-2.5693,-2.5693,-2.5693,-2.5693,-2.5693,-2.5693,-2.5693,-2.5693,-2.5693,-2.5693,-2.5693,-2.5693,-2.5693,-2.5693,-3.9697,-3.9697,-3.9697,-3.9697,-3.9697,-3.9413,-3.8659,-3.8502,-3.8798,-3.956,-3.9805,-4.0337,-4.1493,-4.1355,-4.1306,-4.1672,-4.0867,-4.0389,-4.0498,-3.9047,-3.8036,-3.7697,-3.6004,-3.512,-3.5212,-3.3514,-3.2545,-3.2339,-3.0817,-2.9949,-2.9547,-2.8768,-2.8467,-2.8587,-2.8131,-2.8442,-2.9311,-2.9311,-2.958,-2.9994,-2.9994,-3.018,-3.0408,-3.0118,-2.9994,-2.9994,-2.9994,-2.9994,-2.9994,-2.9994,-2.9787,-2.9456,-2.898,-2.8731,-2.8545,-2.8255,-2.8255,-2.8442,-2.8773,-2.8504,-2.8235,-2.8545,-2.8048,-2.751,-2.7655,-2.7821,-2.7924,-2.7924,-2.8297,-2.8607,-2.8607,-2.8856,-2.9023,-2.8952,-2.9094,-2.9027,0.0,-2.7708,-2.7441,-2.8027,-2.8276,-2.8359,-2.8496,-2.8398,-2.8374,-2.8374,-2.8437,-2.8379,-2.8105,-2.7865,-2.7461,-2.7031,-2.6328,-2.583,-2.5693,-2.5693,-2.5693,-2.5693,-2.5693,-2.5693,-2.5693,-2.5693,-2.5693,-2.5693,-2.5693,-2.5693,-2.5693,-2.5693,-2.5693,-2.5693,-2.5693,-2.5693,-2.5693,-2.5693,-2.5693,-2.5693,-3.8579,-3.8425,-3.8712,-3.9517,-3.9362,-3.8659,-3.7501,-3.7594,-3.8083,-3.8989,-3.9382,-4.0138,-4.1447,-4.1035,-4.0681,-4.0869,-4.029,-3.9801,-3.9539,-3.8572,-3.7769,-3.7281,-3.5613,-3.4734,-3.4755,-3.2908,-3.1922,-3.1751,-3.0276,-2.9559,-2.9539,-2.8607,-2.8421,-2.8835,-2.8193,-2.8442,-2.9311,-2.9209,-2.9425,-2.9837,-2.9732,-2.9843,-3.0069,-2.9782,-2.994,-3.0222,-3.0056,-2.9994,-2.9994,-2.9994,-2.9787,-2.9435,-2.8814,-2.8507,-2.8334,-2.7716,-2.7708,-2.7926,-2.8169,-2.8004,-2.7889,-2.8247,-2.7924,-2.7572,-2.7862,-2.8048,-2.8173,-2.8173,-2.8669,-2.9001,-2.8669,-2.9125,-2.9446,-2.9096,-2.9372,-2.9193,0.0,-2.7393,-2.7129,-2.7402,-2.763,-2.7826,-2.8047,-2.7969,-2.7748,-2.7246,-2.7461,-2.7422,-2.7012,-2.6836,-2.668,-2.6562,-2.5986,-2.5693,-2.5693,-2.5693,-2.5693,-2.5693,-2.5693,-2.5693,-2.5693,-2.5693,-2.5693,-2.5693,-2.5693,-2.5693,-2.5693,-2.5693,-2.5693,-2.5693,-2.5693,-2.5693,-2.5693,-2.5693,-2.5693,-2.5693,-3.6549,-3.6185,-3.6911,-3.9025,-3.8554,-3.7447,-3.6294,-3.6914,-3.7702,-3.8169,-3.9007,-4.0007,-4.1148,-4.0311,-3.9962,-4.0495,-3.9648,-3.8745,-3.7816,-3.6991,-3.644,-3.6082,-3.4361,-3.3449,-3.3573,-3.2159,-3.1195,-3.076,-3.0263,-3.0036,-3.0015,-2.9083,-2.8876,-2.927,-2.8359,-2.8462,-2.926,-2.9024,-2.9166,-2.9554,-2.9237,-2.9099,-2.9099,-2.9079,-2.9733,-3.0562,-3.0107,-2.9942,-2.9942,-2.9942,-2.9921,-2.9808,-2.8847,-2.8387,-2.8003,-2.7145,-2.6709,-2.6645,-2.7342,-2.7562,-2.7611,-2.7827,-2.7855,-2.7855,-2.7875,-2.8206,-2.8537,-2.8537,-2.929,-2.9663,-2.8773,-2.9332,-2.9787,-2.9352,-2.9394,-2.901,-2.758,-2.7106,-2.6953,-2.6973,-2.7324,-2.765,-2.7708,-2.7969,-2.7676,-2.6484,-2.6367,-2.6172,-2.5674,-2.5352,-2.5332,-2.5635,-2.5674,-2.5693,-2.5693,-2.5693,-2.5693,-2.5693,-2.5693,-2.5693,-2.5693,-2.5693,-2.5693,-2.5693,-2.5693,-2.5693,-2.5693,-2.5693,-2.5693,-2.5693,-2.5693,-2.5693,-2.5713,-2.5693,-2.5693,-2.5713,-3.6263,-3.6185,-3.6131,-3.5881,-3.6263,-3.624,-3.5113,-3.5985,-3.7155,-3.8094,-3.9007,-3.9784,-4.0381,-3.9648,-3.8962,-3.8719,-3.8144,-3.794,-3.8206,-3.7191,-3.6246,-3.5376,-3.4095,-3.3235,-3.2937,-3.2218,-3.1816,-3.1692,-3.0905,-3.0512,-3.0491,-2.9559,-2.9187,-2.927,-2.869,-2.8622,-2.9024,-2.8921,-2.901,-2.9237,-2.9132,-2.9333,-2.9595,-2.9199,-2.9467,-2.9971,-2.9505,-2.9343,-2.9343,-2.9343,-2.9245,-2.9034,-2.8239,-2.7882,-2.7594,-2.6802,-2.6544,-2.6516,-2.6734,-2.6754,-2.6932,-2.7549,-2.724,-2.698,-2.757,-2.7783,-2.7865,-2.7865,-2.8466,-2.8897,-2.8649,-2.8814,-2.8938,-2.8814,-2.8257,-2.7583,-2.7063,-2.6399,-2.6142,-2.6504,-2.6367,-2.6602,-2.763,-2.6894,-2.6387,-2.6387,-2.6094,-2.5703,-2.5273,-2.6055,-2.6133,-2.5273,-2.5566,-2.5693,-2.5693,-2.5693,-2.5693,-2.5693,-2.5693,-2.5693,-2.5693,-2.5693,-2.5693,-2.5693,-2.5693,-2.5693,-2.5693,-2.5693,-2.5693,-2.5693,-2.5693,-2.5937,-2.6191,-2.581,-2.5937,-2.623,-3.4825,-3.467,-3.4469,-3.3818,-3.4593,-3.5015,-3.414,-3.4859,-3.584,-3.682,-3.8146,-3.8936,-3.9,-3.8893,-3.8551,-3.7868,-3.7185,-3.6832,-3.7079,-3.6458,-3.5717,-3.4992,-3.4194,-3.3555,-3.3327,-3.2478,-3.1988,-3.1988,-3.1133,-3.0677,-3.0677,-2.9746,-2.9311,-2.929,-2.8814,-2.8725,-2.887,-2.8865,-2.8773,-2.8761,-2.8761,-2.892,0.0,-2.886,-2.892,-2.9098,-2.886,-2.892,-2.9079,-2.9079,-2.9023,-2.8897,-2.8298,-2.7975,-2.7653,-2.6812,-2.6534,-2.6466,-2.6363,-2.6352,-2.646,-2.6992,-2.6822,-2.6665,-2.7305,-2.7455,-2.7455,-2.7455,-2.7921,-2.8155,-2.7746,-2.8012,-2.8277,-2.8277,-2.7591,-2.6963,-2.6814,-2.6369,-2.6113,-2.6367,-2.6504,-2.6797,-2.7324,-2.6387,-2.5791,-2.6094,-2.583,-2.5547,-2.5145,-2.5957,-2.6035,-2.5145,-2.5684,-2.5937,-2.5693,-2.5869,-2.5869,-2.5693,-2.5693,-2.5693,-2.5693,-2.5693,-2.5693,-2.5693,-2.5693,-2.5693,-2.5693,-2.5693,-2.5693,-2.5713,-2.5937,-2.6172,-2.6387,-2.6328,-2.6445,-2.666,-3.2981,-3.2768,-3.2789,-3.269,-3.3513,-3.4051,-3.3699,-3.4196,-3.4921,-3.5769,-3.7384,-3.8274,-3.7819,-3.8357,-3.8419,-3.757,-3.6701,-3.5997,-3.5542,-3.55,-3.5293,-3.4837,-3.4443,-3.4152,-3.4049,-3.283,-3.2132,-3.207,-3.1215,-3.0781,-3.076,-2.9766,-2.9332,-2.9322,-2.8867,-2.8727,-2.8868,-2.8727,-2.8514,-2.8301,-2.8301,-2.8301,-2.8301,-2.8301,-2.8301,-2.8301,-2.8301,-2.8601,-2.8973,-2.8973,-2.9026,-2.8946,-2.8525,-2.8281,-2.7946,-2.7012,-2.6595,-2.6417,-2.6211,-2.6141,-2.617,-2.642,-2.64,-2.65,-2.693,-2.708,-2.708,-2.708,-2.7402,-2.7471,-2.6637,-2.7189,-2.7713,-2.7663,-2.7122,-2.6715,-2.6666,-2.6438,-2.6309,-2.6309,-2.6953,0.0,-2.6875,-2.622,-2.583,-2.5771,-2.5771,-2.5586,-2.5067,-2.5508,-2.5586,-2.5125,-2.5937,-2.6269,-2.5947,-2.625,-2.623,-2.5849,-2.5732,-2.5693,-2.5693,-2.5693,-2.5693,-2.5693,-2.5693,-2.5713,-2.5771,-2.5713,-2.5732,-2.581,-2.6172,-2.6406,-2.6602,-2.6894,-2.709,-2.7168,-3.2747,-3.3016,-3.3161,-3.2789,-3.3782,-3.4734,-3.5024,-3.6432,-3.7653,-3.8104,-3.9137,-3.9702,-3.9226,-3.8647,-3.8088,-3.755,-3.6991,-3.6494,-3.6018,-3.5997,-3.5625,-3.4857,-3.4733,-3.4339,-3.3513,-3.3265,-3.2975,-3.2545,-3.1692,-3.1257,-3.1236,-2.9911,-2.9394,-2.9516,-2.9034,-2.8785,-2.8734,-2.8475,-2.8354,-2.8301,-2.8301,-2.8301,-2.8301,-2.8301,-2.8301,-2.8301,-2.8301,-2.8335,-2.8441,-2.8441,-2.8621,-2.8648,-2.8055,-2.7969,-2.7954,-2.7184,-2.6894,-2.6816,-2.6436,-2.6369,-2.632,-2.619,-2.6014,-2.5936,-2.621,-2.6307,-2.6307,-2.6307,-2.6532,-2.6677,-2.6536,-2.6617,-2.6689,-2.6426,-2.6318,-2.6161,-2.5937,-2.584,-2.581,-2.581,-2.5977,-2.6005,-2.5927,-2.6465,-2.6641,-2.6289,-2.6269,-2.5762,-2.459,-2.5644,-2.5898,-2.5145,-2.5937,-2.6699,-2.7324,-2.6699,-2.6523,-2.6777,-2.6025,-2.5693,-2.5693,-2.5693,-2.5693,-2.5693,-2.5693,-2.5937,-2.625,-2.583,-2.5957,-2.625,-2.5957,-2.6504,-2.7402,-2.7129,-2.7461,-2.8027,-3.343,-3.3389,-3.3534,-3.4031,-3.4859,-3.5852,-3.7011,-3.8357,-3.8978,-3.8233,-3.8937,-3.9351,-3.8895,-3.8874,-3.8709,-3.8233,-3.757,-3.697,-3.6494,-3.6246,-3.5811,-3.5128,-3.4879,-3.4505,-3.38,-3.3037,-3.2628,-3.2498,-3.11,-3.0722,-3.11,-2.9811,-2.935,-2.9606,-2.9036,-2.876,-2.8674,-2.8408,-2.8301,-2.8301,-2.8301,-2.8301,-2.8301,-2.8301,-2.8301,-2.8301,-2.8301,-2.8301,-2.8301,-2.8301,-2.8408,-2.8422,-2.81,-2.8094,-2.8101,-2.7532,-2.7344,-2.7266,-2.6836,-2.6562,-2.6436,-2.6536,-2.6104,-2.5801,-2.6163,-2.6074,-2.5868,-2.5868,-2.6014,-2.6062,-2.6062,-2.6062,-2.6014,-2.5917,-2.5868,-2.5868,-2.5742,-2.5693,-2.5596,-2.541,-2.5557,-2.5771,-2.6055,-2.6641,-2.6758,-2.6094,-2.6055,-2.5566,-2.4473,-2.5449,-2.5644,-2.4766,-2.582,-2.6484,-2.666,-2.6699,-2.6582,-2.6298,-2.5888,-2.5693,-2.5693,-2.5693,-2.5693,-2.5693,-2.5977,-2.6191,-2.6387,-2.6406,-2.6523,-2.6719,-2.6738,-2.7109,-2.7728,-2.7676,-2.793,-2.8262,-3.4341,-3.4134,-3.432,-3.5521,-3.6266,-3.7177,-3.8559,-3.964,-3.9744,-3.8398,-3.8833,-3.9144,-3.8792,-3.9226,-3.9323,-3.8951,-3.8171,-3.7405,-3.6846,-3.641,-3.5892,-3.5314,-3.4902,-3.4449,-3.3893,-3.2786,-3.2158,-3.2048,-3.0622,-3.0194,-3.0628,-2.9601,-2.9177,-2.9254,-2.8794,-2.8621,-2.8621,-2.8408,-2.8301,-2.8301,-2.8301,-2.8301,-2.8301,-2.8301,-2.8301,-2.8301,-2.8301,-2.8301,-2.8301,-2.8301,-2.8301,-2.8301,-2.8301,-2.8301,-2.8223,-2.7891,-2.7845,-2.7695,-2.7266,-2.6914,-2.6719,-2.6953,-2.6454,-2.6044,-2.6445,-2.6191,-2.5849,-2.5947,-2.5888,-2.581,-2.5713,-2.5693,-2.5713,-2.581,-2.583,-2.583,-2.583,-2.5908,-2.5781,-2.5184,-2.5625,-2.5996,-2.5977,-2.6523,-2.6484,-2.5479,-2.5674,-2.5527,-2.4746,-2.5304,-2.5362,-2.4727,-2.5879,-2.6445,-2.6239,-2.668,-2.6582,-2.5966,-2.5869,-2.583,-2.583,-2.583,-2.5869,-2.5966,-2.6289,-2.6445,-2.6562,-2.6973,-2.7148,-2.7187,-2.7422,-2.7637,-2.7885,-2.8066,-2.8223,-2.8301,-3.5211,-3.5604,-3.6018,-3.6577,-3.7736,-3.8579,-3.8745,-3.964,-4.0303,-4.053,-4.0634,-4.0675,-4.0634,-3.9972,-3.9447,-3.9406,-3.8647,-3.7736,-3.6867,-3.6442,-3.5904,-3.4962,-3.4632,-3.4022,-3.3175,-3.3034,-3.2409,-3.124,-3.1023,-3.0616,-2.991,-2.9353,-2.8773,-2.8152,-2.8284,-2.8354,-2.8354,-2.8281,-2.8301,-2.8301,-2.8301,-2.8301,-2.8301,-2.8301,-2.8301,-2.8301,-2.8301,-2.8301,-2.8301,-2.8301,-2.8301,-2.8301,-2.8301,-2.8301,-2.8281,-2.8242,-2.8242,-2.8144,-2.7767,-2.763,-2.7513,-2.7109,-2.6953,-2.6914,-2.6953,-2.6641,-2.6445,-2.6816,-2.6602,-2.6211,-2.5752,-2.5693,-2.581,-2.6269,-2.6328,-2.6328,-2.6328,-2.666,-2.6445,-2.5262,-2.6152,-2.6289,-2.4746,-2.5723,-2.5918,-2.4629,-2.5644,-2.6113,-2.5596,-2.5635,-2.5654,-2.5577,-2.6484,-2.7305,-2.8047,-2.6992,-2.6602,-2.6894,-2.6504,-2.6328,-2.6328,-2.6328,-2.6543,-2.6875,-2.6543,-2.6602,-2.6992,-2.7422,-2.7598,-2.763,-2.7207,-2.7559,-2.8184,-2.7904,-2.7969,-2.8301,-3.6577,-3.6597,-3.6929,-3.8212,-3.844,-3.8662,-3.9281,-3.9605,-3.9729,-3.9774,-3.9935,-4.0075,-4.0075,-3.9495,-3.8986,-3.8781,-3.8206,-3.7381,-3.6286,-3.6095,-3.5561,-3.4651,-3.4244,-3.3739,-3.3115,-3.2592,-3.1933,-3.1239,-3.0701,-3.0402,-3.0247,-2.9367,-2.8706,-2.8206,-2.8276,-2.8301,-2.8301,-2.8301,-2.8301,-2.8301,-2.8301,-2.8301,-2.8301,-2.8301,-2.8301,-2.8301,-2.8301,-2.8301,-2.8301,-2.8301,-2.8301,-2.8301,-2.8301,-2.8301,-2.8301,-2.8301,-2.8301,-2.8262,-2.8086,-2.7851,-2.7695,-2.7754,-2.7402,-2.709,-2.7344,-2.707,-2.6738,-2.666,-2.6289,-2.6016,-2.6113,-2.6133,-2.6191,-2.6367,-2.6602,-2.6758,-2.6758,-2.6465,-2.5957,-2.5204,-2.5078,-2.4902,-2.4453,-2.5137,-2.5703,-2.5957,-2.5996,-2.5684,-2.498,-2.4894,-2.5148,-2.5674,-2.5801,-2.6269,-2.7148,-2.6894,-2.6582,-2.62,-2.6602,-2.6641,-2.6406,-2.6641,-2.6992,-2.7402,-2.7226,-2.7402,-2.7793,-2.7969,-2.8047,-2.8027,-2.7851,-2.7988,-2.8262,-2.8105,-2.8144,-2.8301,-3.7262,-3.7324,-3.7734,-3.913,-3.8965,-3.8835,-3.9464,-3.9339,-3.906,-3.8661,-3.8725,-3.8952,-3.9309,-3.8849,-3.8425,-3.8173,-3.7624,-3.6841,-3.5876,-3.5565,-3.51,-3.4275,-3.3893,-3.3452,-3.3014,-3.2276,-3.1699,-3.117,-3.0559,-3.0204,-3.0105,-2.9137,-2.8574,-2.8301,-2.8301,-2.8301,-2.8301,-2.8301,-2.8301,-2.8301,-2.8301,-2.8301,-2.8301,-2.8301,-2.8301,-2.8301,-2.8301,-2.8301,-2.8301,-2.8301,-2.8301,-2.8301,-2.8301,-2.8301,-2.8301,-2.8301,-2.8301,-2.8301,-2.8301,-2.8066,-2.793,-2.8223,-2.7832,-2.7461,-2.7773,-2.7519,-2.709,-2.666,-2.6328,-2.6161,-2.6523,-2.6465,-2.6465,-2.6719,-2.7012,-2.7207,-2.7207,-2.668,-2.6055,-2.5352,-2.4844,-2.4473,-2.4258,-2.4746,-2.5391,-2.6191,-2.5801,-2.5332,-2.4824,-2.4758,-2.5039,-2.5527,-2.5488,-2.582,-2.6562,-2.6738,-2.6582,-2.6064,-2.6855,-2.7051,-2.6777,-2.7207,-2.75,-2.7728,-2.7845,-2.8027,-2.8301,-2.8301,-2.8301,-2.8301,-2.8301,-2.8301,-2.8301,-2.8301,-2.8301,-2.8301,-3.6998,-3.7803,-3.8547,-3.9061,-3.9412,-3.9533,-3.9202,-3.8688,-3.8246,-3.7892,-3.7428,-3.7644,-3.8881,-3.83,-3.7811,-3.7831,-3.6938,-3.6234,-3.5856,-3.5091,-3.4398,-3.3942,-3.3607,-3.3223,-3.2793,-3.2363,-3.1798,-3.0898,-3.0879,-3.0215,-2.8926,-2.8496,-2.8301,-2.8301,-2.8301,-2.8301,-2.8301,-2.8301,-2.8301,-2.8301,-2.8301,-2.8301,-2.8301,-2.8301,-2.8301,-2.8301,-2.8301,-2.8301,-2.8301,-2.8301,-2.8301,-2.8301,-2.8301,-2.8301,-2.8301,-2.8301,-2.8301,-2.8301,-2.8301,-2.8281,-2.8281,-2.8301,-2.8281,-2.8281,-2.8281,-2.7969,-2.7539,-2.709,-2.7012,-2.7012,-2.7012,-2.666,-2.666,-2.7571,-2.7708,-2.7708,-2.7708,-2.7708,-2.7168,-2.583,-2.6094,-2.5684,-2.3965,-2.457,-2.4902,-2.4473,-2.4844,-2.5273,-2.5654,-2.5674,-2.5527,-2.5145,-2.5918,-2.6582,-2.7012,-2.6602,-2.6602,-2.7012,-2.7441,-2.7708,-2.7728,-2.8086,-2.8047,-2.7748,-2.8105,-2.8281,-2.8301,-2.8301,-2.8301,-2.8301,-2.8301,-2.8301,-2.8301,-2.8301,-2.8301,-2.8301,-3.7964,-3.8467,-3.901,-3.9433,-3.9131,-3.8698,-3.8316,-3.7846,-3.7373,-3.6961,-3.6562,-3.6469,-3.6816,-3.6851,-3.665,-3.615,-3.6084,-3.5633,-3.4705,-3.4674,-3.4373,-3.3583,-3.3207,-3.293,-3.2793,-3.209,-3.1601,-3.1328,-3.1035,-3.0508,-2.9785,-2.9355,-2.9004,-2.8711,-2.8418,-2.8301,-2.8301,-2.8301,-2.8301,-2.8301,-2.8301,-2.8301,-2.8301,-2.8301,-2.8301,-2.8301,-2.8301,-2.8301,-2.8301,-2.8301,-2.8301,-2.8301,-2.8301,-2.8301,-2.8301,-2.8301,-2.8301,-2.8301,-2.8301,-2.8301,-2.8301,-2.8301,-2.8301,-2.8301,-2.8301,-2.7969,-2.7767,-2.7851,-2.7422,-2.7109,-2.7402,-2.7344,-2.7395,-2.7669,-2.791,-2.7988,-2.7767,-2.7219,-2.6426,-2.541,-2.4883,-2.4277,-2.3437,-2.4121,-2.4824,-2.5226,-2.5401,-2.5449,-2.5293,-2.5566,-2.5801,-2.5957,-2.5957,-2.6426,-2.7441,-2.7031,-2.6875,-2.7031,-2.7754,-2.8086,-2.8105,-2.8223,-2.8223,-2.8105,-2.8242,-2.8301,-2.8301,-2.8301,-2.8301,-2.8301,-2.8301,-2.8301,-2.8301,-2.8301,-2.8301,-2.8301,-3.753,-3.7987,-3.8425,-3.8544,-3.8246,-3.7878,-3.7509,-3.7153,-3.6805,-3.6355,-3.5961,-3.5626,-3.5448,-3.5488,-3.5415,-3.5119,-3.5198,-3.491,-3.4166,-3.416,-3.3984,-3.3437,-3.3164,-3.3027,-3.3027,-3.2207,-3.1758,-3.1758,-3.0996,-3.0488,-3.0176,-2.959,-2.918,-2.8906,-2.8476,-2.8301,-2.8301,-2.8301,-2.8301,-2.8301,-2.8301,-2.8301,-2.8301,-2.8301,-2.8301,-2.8301,-2.8301,-2.8301,-2.8301,-2.8301,-2.8301,-2.8301,-2.8301,-2.8301,-2.8301,-2.8301,-2.8301,-2.8301,-2.8301,-2.8301,-2.8301,-2.8301,-2.8301,-2.8301,-2.8301,-2.8086,-2.7969,-2.8242,-2.7734,-2.7383,-2.7832,-2.7826,-2.7767,-2.7871,-2.8125,-2.8144,-2.7787,-2.707,-2.6367,-2.5644,-2.4941,-2.4355,-2.3906,-2.4336,-2.4883,-2.5449,-2.5596,-2.5557,-2.5332,-2.5742,-2.6035,-2.6133,-2.6191,-2.668,-2.7708,-2.7402,-2.7344,-2.75,-2.8027,-2.8301,-2.8301,-2.8301,-2.8301,-2.8301,-2.8301,-2.8301,-2.8301,-2.8301,-2.8301,-2.8301,-2.8301,-2.8301,-2.8301,-2.8301,-2.8301,-2.8301,-3.6152,-3.6719,-3.7168,-3.6777,-3.7012,-3.7129,-3.6738,-3.6641,-3.6484,-3.6074,-3.5625,-3.5176,-3.4746,-3.4297,-3.418,-3.457,-3.4277,-3.4062,-3.4023,-3.3672,-3.3437,-3.3379,-3.3398,-3.3418,-3.3379,-3.2578,-3.2148,-3.209,-3.084,-3.0234,-3.0234,-2.9375,-2.8965,-2.8945,-2.8496,-2.8301,-2.8301,-2.8301,-2.8301,-2.8301,-2.8301,-2.8301,-2.8301,-2.8301,-2.8301,-2.8301,-2.8301,-2.8301,-2.8301,-2.8301,-2.8301,-2.8301,-2.8301,-2.8301,-2.8301,-2.8301,-2.8301,-2.8301,-2.8301,-2.8301,-2.8301,-2.8301,-2.8301,-2.8301,-2.8301,-2.8301,-2.8301,-2.8301,-2.7988,-2.7885,-2.8223,-2.7969,-2.7832,-2.8223,-2.8301,-2.8125,-2.7728,-2.7266,-2.6836,-2.6348,-2.5957,-2.5547,-2.5078,-2.5125,-2.5165,-2.5204,-2.5547,-2.5752,-2.581,-2.625,-2.6269,-2.5791,-2.6621,-2.7266,-2.7767,-2.7728,-2.7871,-2.8301,-2.8301,-2.8301,-2.8301,-2.8301,-2.8301,-2.8301,-2.8301,-2.8301,-2.8301,-2.8301,-2.8301,-2.8301,-2.8301,-2.8301,-2.8301,-2.8301,-2.8301,-2.8301,-3.6601,-3.6934,-3.7266,-3.7168,-3.6973,-3.6777,-3.668,-3.6387,-3.6133,-3.6035,-3.5351,-3.4824,-3.4707,-3.4023,-3.3613,-3.3711,-3.3945,-3.3926,-3.3594,-3.3789,-3.3633,-3.2969,-3.3242,-3.3281,-3.2949,-3.2441,-3.1855,-3.1191,-3.0879,-3.0723,-3.0703,-2.9824,-2.9414,-2.9375,-2.8633,-2.8301,-2.8301,-2.8301,-2.8301,-2.8301,-2.8301,-2.8301,-2.8301,-2.8301,-2.8301,-2.8301,-2.8301,-2.8301,-2.8301,-2.8301,-2.8301,-2.8301,-2.8301,-2.8301,-2.8301,-2.8301,-2.8301,-2.8301,-2.8301,-2.8301,-2.8301,-2.8301,-2.8301,-2.8301,-2.8301,-2.8301,-2.8301,-2.8301,-2.8203,-2.8184,-2.8281,-2.8203,-2.8184,-2.8281,-2.8301,-2.8027,-2.7266,-2.709,-2.6602,-2.5508,-2.5586,-2.5382,-2.4648,-2.5176,-2.5723,-2.6055,-2.6172,-2.6523,-2.7168,-2.7305,-2.7168,-2.6719,-2.7226,-2.7715,-2.8144,-2.7832,-2.7871,-2.8301,-2.8301,-2.8301,-2.8301,-2.8301,-2.8301,-2.8301,-2.8301,-2.8301,-2.8301,-2.8301,-2.8301,-2.8301,-2.8301,-2.8301,-2.8301,-2.8301,-2.8301,-2.8301,-3.6426,-3.6562,-3.6719,-3.6719,-3.6523,-3.6367,-3.6367,-3.6172,-3.5957,-3.5762,-3.5137,-3.4629,-3.4434,-3.3828,-3.3418,-3.3418,-3.3633,-3.3672,-3.3437,-3.3633,-3.3574,-3.3105,-3.3105,-3.3027,-3.2793,-3.2187,-3.1543,-3.0898,-3.0898,-3.0898,-3.0879,-3.0176,-2.9863,-2.9824,-2.8965,-2.8574,-2.8574,-2.8379,-2.8301,-2.8301,-2.8301,-2.8398,-2.8574,-2.8574,-2.8574,-2.8574,-2.8574,-2.8457,-2.832,-2.8516,-2.8457,-2.8359,-2.875,-2.873,-2.8613,-2.8828,-2.8594,-2.8301,-2.8301,-2.8301,-2.8301,-2.8301,-2.8301,-2.8301,-2.8301,-2.8301,-2.8301,-2.8301,-2.8301,-2.8359,-2.8535,-2.8574,-2.8574,-2.8574,-2.8418,-2.7988,-2.7129,-2.6855,-2.6465,-2.5762,-2.5898,-2.5918,-2.5644,-2.6035,-2.6426,-2.666,-2.6855,-2.7168,-2.7689,-2.7851,-2.7754,-2.7324,-2.7734,-2.8066,-2.8301,-2.8066,-2.8066,-2.8301,-2.8301,-2.8301,-2.8301,-2.8301,-2.8301,-2.8301,-2.8301,-2.8301,-2.8301,-2.8301,-2.8301,-2.8301,-2.8301,-2.8301,-2.8301,-2.8301,-2.8301,-2.8301,-3.6016,-3.6016,-3.6016,-3.6016,-3.6016,-3.6016,-3.6016,-3.5976,-3.5801,-3.543,-3.4941,-3.4473,-3.4121,-3.3691,-3.3418,-3.3418,-3.3418,-3.3418,-3.3418,-3.3359,-3.332,-3.332,-3.293,-3.2695,-3.2695,-3.1914,-3.1309,-3.0898,-3.0898,-3.0898,-3.0879,-3.041,-3.0195,-3.0156,-2.9297,-2.8926,-2.8887,-2.8476,-2.8301,-2.8301,-2.8301,-2.8535,-2.8926,-2.8926,-2.8965,-2.9023,-2.9023,-2.8789,-2.8535,-2.8887,-2.8789,-2.8613,-2.9336,-2.9316,-2.9082,-2.9453,-2.9062,-2.8476,-2.8398,-2.834,-2.8301,-2.8379,-2.834,-2.832,-2.8457,-2.8437,-2.8398,-2.8476,-2.8437,-2.8516,-2.8945,-2.8906,-2.8867,-2.9004,-2.8613,-2.8008,-2.7226,-2.6816,-2.6543,-2.6406,-2.6504,-2.6699,-2.6992,-2.707,-2.7109,-2.7109,-2.7461,-2.7748,-2.7806,-2.8105,-2.8125,-2.7826,-2.8105,-2.8301,-2.8301,-2.8301,-2.832,-2.8379,-2.832,-2.832,-2.8379,-2.832,-2.8301,-2.8301,-2.8301,-2.8301,-2.8301,-2.8301,-2.8301,-2.8301,-2.8301,-2.8301,-2.8301,-2.8301,-2.8301,-2.8301,-3.6016,-3.6016,-3.6016,-3.6016,-3.6016,-3.6016,-3.6016,-3.5723,-3.5469,-3.541,-3.4687,-3.4141,-3.4082,-3.3691,-3.3418,-3.3418,-3.3418,-3.3418,-3.3418,-3.3086,-3.2891,-3.2891,-3.248,-3.2266,-3.2266,-3.1777,-3.1309,-3.0898,-3.0898,-3.0898,-3.0879,-3.041,-3.0195,-3.0156,-2.9297,-2.8926,-2.8887,-2.8476,-2.8301,-2.8301,-2.8301,-2.8535,-2.8926,-2.8926,-2.9141,-2.9473,-2.9473,-2.9434,-2.9375,-2.9453,-2.9434,-2.9394,-2.9587,-2.9531,-2.9492,-2.9551,-2.9473,-2.9297,-2.8926,-2.8555,-2.8379,-2.873,-2.8555,-2.8476,-2.9199,-2.9082,-2.8926,-2.9297,-2.9082,-2.8945,-2.9394,-2.8887,-2.8633,-2.9355,-2.8809,-2.8125,-2.7637,-2.7552,-2.7258,-2.6484,-2.7031,-2.7344,-2.7051,-2.7344,-2.7559,-2.7559,-2.7689,-2.7865,-2.8184,-2.8262,-2.8262,-2.8203,-2.8262,-2.8301,-2.8301,-2.8301,-2.8476,-2.8809,-2.8457,-2.8476,-2.8809,-2.8457,-2.8301,-2.8301,-2.8301,-2.8301,-2.8301,-2.8301,-2.8301,-2.8301,-2.8301,-2.8301,-2.8301,-2.8301,-2.8301,-2.8301,-3.6016,-3.6016,-3.6016,-3.6016,-3.6016,-3.6016,-3.6016,-3.5664,-3.5293,-3.5059,-3.4473,-3.3984,-3.375,-3.3535,-3.3418,-3.3418,-3.3418,-3.332,-3.3105,-3.291,-3.2793,-3.2793,-3.2168,-3.1719,-3.1484,-3.1289,-3.1094,-3.0898,-3.0898,-3.0898,-3.0879,-3.0664,-3.0566,-3.0547,-2.9902,-2.9473,-2.9238,-2.8809,-2.8633,-2.8633,-2.8633,-2.9023,-2.9609,-2.9609,-2.9726,-2.9902,-2.9902,-2.9766,-2.9609,-2.9824,-2.9766,-2.9648,-3.0137,-3.0117,-2.9961,-3.0215,-2.9941,-2.9531,-2.9316,-2.9121,-2.9023,-2.9219,-2.9121,-2.9082,-2.9528,-2.9414,-2.9336,-2.9587,-2.9414,-2.9394,-2.9824,-2.959,-2.9453,-2.9844,-2.918,-2.8476,-2.8066,-2.7598,-2.7246,-2.709,-2.7474,-2.7676,-2.7695,-2.7891,-2.8105,-2.832,-2.834,-2.8535,-2.8965,-2.875,-2.873,-2.8965,-2.8535,-2.8301,-2.8301,-2.8516,-2.8613,-2.8574,-2.8613,-2.8613,-2.8574,-2.8379,-2.8301,-2.8301,-2.8301,-2.8301,-2.8301,-2.8301,-2.8301,-2.8301,-2.8301,-2.8301,-2.8301,-2.8301,-2.8301,-2.8301,-3.5996,-3.5937,-3.5898,-3.5996,-3.6016,-3.5996,-3.5879,-3.5508,-3.5078,-3.4609,-3.418,-3.3789,-3.3457,-3.3418,-3.3418,-3.3418,-3.3418,-3.3281,-3.2969,-3.2754,-3.2656,-3.2656,-3.1934,-3.1328,-3.0898,-3.0898,-3.0898,-3.0898,-3.0898,-3.0898,-3.0898,-3.0898,-3.0898,-3.0859,-3.041,-3.0019,-2.9687,-2.9258,-2.9062,-2.9062,-2.9062,-2.9531,-3.0195,-3.0195,-3.0273,-3.0351,-3.0351,-3.0156,-2.9922,-3.0254,-3.0137,-3.0,-3.0684,-3.0644,-3.043,-3.0781,-3.041,-2.9844,-2.9746,-2.9648,-2.959,-2.9744,-2.9648,-2.9685,-2.988,-2.9785,-2.9746,-2.9863,-2.9785,-2.9844,-3.0273,-3.0195,-3.0078,-3.0176,-2.9473,-2.8769,-2.8359,-2.7734,-2.7402,-2.7689,-2.7885,-2.8086,-2.8398,-2.8535,-2.873,-2.9043,-2.9062,-2.9219,-2.9551,-2.9258,-2.9219,-2.9607,-2.8926,-2.8535,-2.8437,-2.8867,-2.8867,-2.8437,-2.8867,-2.8848,-2.8437,-2.8437,-2.8379,-2.8301,-2.8301,-2.8301,-2.8301,-2.8301,-2.8301,-2.8301,-2.8301,-2.8301,-2.8301,-2.8301,-2.8301,-2.8301,-3.5937,-3.5703,-3.5566,-3.5957,-3.6016,-3.5879,-3.5508,-3.5039,-3.459,-3.418,-3.375,-3.3457,-3.3418,-3.3418,-3.3418,-3.3418,-3.3418,-3.3418,-3.3379,-3.2656,-3.2207,-3.2207,-3.1758,-3.1328,-3.0898,-3.0898,-3.0898,-3.0898,-3.0898,-3.0898,-3.0898,-3.0898,-3.0898,-3.0859,-3.041,-3.0176,-3.0117,-2.9707,-2.9531,-2.9531,-2.9531,-2.9785,-3.0195,-3.0195,-3.0469,-3.084,-3.084,-3.082,-3.0801,-3.082,-3.082,-3.0801,-3.0859,-3.0859,-3.084,-3.0879,-3.084,-3.0703,-3.0273,-2.9863,-2.9668,-3.0059,-2.9863,-2.9785,-3.0605,-3.0449,-3.0273,-3.0703,-3.0449,-3.0293,-3.0762,-3.0176,-2.9746,-3.0137,-2.9473,-2.8769,-2.8359,-2.8242,-2.8066,-2.7767,-2.8359,-2.8848,-2.8867,-2.9238,-2.9548,-2.9567,-2.9531,-2.9531,-2.9626,-2.9607,-2.9531,-2.9626,-2.9567,-2.9277,-2.8887,-2.9297,-2.9297,-2.8887,-2.9316,-2.9297,-2.8867,-2.8867,-2.8652,-2.8301,-2.8301,-2.8301,-2.8301,-2.8301,-2.8301,-2.8301,-2.8301,-2.8301,-2.8301,-2.8301,-2.8301,-2.8301,-3.5547,-3.5508,-3.5449,-3.5605,-3.5625,-3.5586,-3.541,-3.4785,-3.4258,-3.4101,-3.3691,-3.3418,-3.3418,-3.3418,-3.3418,-3.3418,-3.3418,-3.3203,-3.2676,-3.2344,-3.1934,-3.1406,-3.1211,-3.1055,-3.0898,-3.0898,-3.0898,-3.0898,-3.0898,-3.0898,-3.0898,-3.0898,-3.0898,-3.0879,-3.0703,-3.0469,-3.0176,-3.0019,-2.9961,-2.9961,-2.9961,-3.0234,-3.0625,-3.0625,-3.0742,-3.0898,-3.0898,-3.0898,-3.0898,-3.0898,-3.0898,-3.0898,-3.0898,-3.0898,-3.0898,-3.0898,-3.0898,-3.0859,-3.0684,-3.0508,-3.043,-3.0586,-3.0508,-3.0469,-3.082,-3.0762,-3.0684,-3.0859,-3.0762,-3.0684,-3.0859,-3.0625,-3.0449,-3.0605,-3.0117,-2.9648,-2.9492,-2.9238,-2.9023,-2.8922,-2.9121,-2.9316,-2.9316,-2.9473,-2.9668,-2.9941,-2.9961,-3.0078,-3.0371,-3.0391,-3.0254,-2.9961,-3.0234,-3.0039,-2.9336,-2.9746,-2.9746,-2.9336,-2.9746,-2.9746,-2.9316,-2.9316,-2.9082,-2.8672,-2.8672,-2.8535,-2.8301,-2.8301,-2.8301,-2.8301,-2.8301,-2.8301,-2.8301,-2.8301,-2.8301,-2.8301,-3.5078,-3.5078,-3.5019,-3.5156,-3.5176,-3.5137,-3.5,-3.4453,-3.4023,-3.3887,-3.3613,-3.3418,-3.3418,-3.3418,-3.3418,-3.3418,-3.3418,-3.3125,-3.2422,-3.2109,-3.1641,-3.0918,-3.0898,-3.0898,-3.0898,-3.0898,-3.0898,-3.0898,-3.0898,-3.0898,-3.0898,-3.0898,-3.0898,-3.0898,-3.0898,-3.0703,-3.041,-3.041,-3.041,-3.041,-3.041,-3.0605,-3.0898,-3.0898,-3.0898,-3.0898,-3.0898,-3.0898,-3.0898,-3.0898,-3.0898,-3.0898,-3.0898,-3.0898,-3.0898,-3.0898,-3.0898,-3.0898,-3.0898,-3.0898,-3.0898,-3.0898,-3.0898,-3.0898,-3.0898,-3.0898,-3.0898,-3.0898,-3.0898,-3.0898,-3.0898,-3.0898,-3.084,-3.0703,-3.041,-3.0156,-3.0019,-2.9746,-2.9626,-2.9626,-2.9687,-2.9766,-2.9766,-2.9902,-3.0098,-3.0391,-3.041,-3.0547,-3.0879,-3.0898,-3.0742,-3.043,-3.0723,-3.0605,-2.998,-3.0273,-3.0137,-2.9626,-3.0137,-3.0117,-2.957,-2.9707,-2.9531,-2.9121,-2.8984,-2.875,-2.8476,-2.834,-2.8301,-2.8301,-2.8301,-2.8301,-2.8301,-2.8301,-2.8301,-2.8301,-3.4609,-3.4355,-3.4199,-3.4629,-3.4687,-3.4551,-3.4141,-3.4082,-3.3906,-3.3476,-3.3418,-3.3418,-3.3418,-3.3418,-3.3418,-3.3418,-3.3418,-3.3242,-3.2812,-3.1992,-3.1328,-3.0918,-3.0898,-3.0898,-3.0898,-3.0898,-3.0898,-3.0898,-3.0898,-3.0898,-3.0898,-3.0898,-3.0898,-3.0898,-3.0898,-3.0898,-3.0898,-3.0898,-3.0898,-3.0898,-3.0898,-3.0898,-3.0898,-3.0898,-3.0898,-3.0898,-3.0898,-3.0898,-3.0898,-3.0898,-3.0898,-3.0898,-3.0898,-3.0898,-3.0898,-3.0898,-3.0898,-3.0898,-3.0898,-3.0898,-3.0898,-3.0898,-3.0898,-3.0898,-3.0898,-3.0898,-3.0898,-3.0898,-3.0898,-3.0898,-3.0898,-3.0898,-3.0742,-3.0273,-3.0195,-3.0059,-2.9704,-2.9646,-2.9646,-2.9646,-2.9941,-3.0195,-3.0195,-3.0625,-3.0898,-3.0898,-3.0898,-3.0898,-3.0898,-3.0898,-3.0898,-3.0898,-3.0898,-3.0898,-3.0898,-3.0898,-3.0449,-2.959,-3.0469,-3.043,-2.959,-3.0019,-2.998,-2.9551,-2.9121,-2.8926,-2.8887,-2.8476,-2.8301,-2.8301,-2.8301,-2.8301,-2.8301,-2.8301,-2.8301,-2.8301,-3.418,-3.416,-3.4121,-3.4238,-3.4258,-3.4219,-3.4082,-3.3809,-3.3574,-3.3437,-3.3418,-3.3418,-3.3418,-3.3418,-3.3418,-3.3418,-3.3418,-3.3125,-3.2402,-3.1562,-3.1016,-3.0898,-3.0898,-3.0898,-3.0898,-3.0898,-3.0898,-3.0898,-3.0898,-3.0898,-3.0898,-3.0898,-3.0898,-3.0898,-3.0898,-3.0898,-3.0898,-3.0898,-3.0898,-3.0898,-3.0898,-3.0898,-3.0898,-3.0898,-3.0898,-3.0898,-3.0898,-3.0898,-3.0898,-3.0898,-3.0898,-3.0898,-3.0898,-3.0898,-3.0898,-3.0898,-3.0898,-3.0898,-3.0898,-3.0898,-3.0898,-3.0898,-3.0898,-3.0898,-3.0898,-3.0898,-3.0898,-3.0898,-3.0898,-3.0898,-3.0898,-3.0898,-3.084,-3.0703,-3.0684,-3.0644,-3.0508,-3.0488,-3.0488,-3.0488,-3.0605,-3.0684,-3.0684,-3.082,-3.0898,-3.0898,-3.0898,-3.0898,-3.0898,-3.0898,-3.0898,-3.0898,-3.0898,-3.0898,-3.0898,-3.0898,-3.0762,-3.0508,-3.0762,-3.0762,-3.0508,-3.0625,-3.043,-2.998,-2.9551,-2.9375,-2.9316,-2.8594,-2.8457,-2.8711,-2.8398,-2.8301,-2.8301,-2.8301,-2.8301,-2.8301,-3.3769,-3.3809,-3.3809,-3.3809,-3.3809,-3.3809,-3.3809,-3.3594,-3.3418,-3.3418,-3.3418,-3.3418,-3.3418,-3.3281,-3.3164,-3.3164,-3.2871,-3.2461,-3.1934,-3.1269,-3.0898,-3.0898,-3.0898,-3.0898,-3.0898,-3.0898,-3.0898,-3.0898,-3.0898,-3.0898,-3.0898,-3.0898,-3.0898,-3.0898,-3.0898,-3.0898,-3.0898,-3.0898,-3.0898,-3.0898,-3.0898,-3.0898,-3.0898,-3.0898,-3.0898,-3.0898,-3.0898,-3.0898,-3.0898,-3.0898,-3.0898,-3.0898,-3.0898,-3.0898,-3.0898,-3.0898,-3.0898,-3.0898,-3.0898,-3.0898,-3.0898,-3.0898,-3.0898,-3.0898,-3.0898,-3.0898,-3.0898,-3.0898,-3.0898,-3.0898,-3.0898,-3.0898,-3.0898,-3.0898,-3.0898,-3.0898,-3.0898,-3.0898,-3.0898,-3.0898,-3.0898,-3.0898,-3.0898,-3.0898,-3.0898,-3.0898,-3.0898,-3.0898,-3.0898,-3.0898,-3.0898,-3.0898,-3.0898,-3.0898,-3.0898,-3.0898,-3.0898,-3.0898,-3.0898,-3.0898,-3.0898,-3.0898,-3.0742,-3.0449,-3.0,-2.9824,-2.9746,-2.8887,-2.8691,-2.8887,-2.8457,-2.8301,-2.8301,-2.8301,-2.8301,-2.8301,-3.3418,-3.3418,-3.3418,-3.3418,-3.3418,-3.3418,-3.3418,-3.3418,-3.3418,-3.3418,-3.3379,-3.3379,-3.3418,-3.3008,-3.2754,-3.2793,-3.2012,-3.1523,-3.1523,-3.1133,-3.0898,-3.0898,-3.0898,-3.0898,-3.0898,-3.0898,-3.0898,-3.0898,-3.0898,-3.0898,-3.0898,-3.0898,-3.0898,-3.0898,-3.0898,-3.0898,-3.0898,-3.0898,-3.0898,-3.0898,-3.0898,-3.0898,-3.0898,-3.0898,-3.0898,-3.0898,-3.0898,-3.0898,-3.0898,-3.0898,-3.0898,-3.0898,-3.0898,-3.0898,-3.0898,-3.0898,-3.0898,-3.0898,-3.0898,-3.0898,-3.0898,-3.0898,-3.0918,-3.0937,-3.0898,-3.0898,-3.0898,-3.0898,-3.0898,-3.0898,-3.0898,-3.0898,-3.0898,-3.0898,-3.0898,-3.0898,-3.0898,-3.0898,-3.0898,-3.0898,-3.0898,-3.0898,-3.0898,-3.0898,-3.0898,-3.0898,-3.0898,-3.0898,-3.0898,-3.0898,-3.0898,-3.0898,-3.0898,-3.0898,-3.0898,-3.0898,-3.0898,-3.0898,-3.0898,-3.0898,-3.0898,-3.0898,-3.0898,-3.0859,-3.0391,-3.0215,-3.0195,-2.9336,-2.8984,-2.8945,-2.8555,-2.8359,-2.8301,-2.834,-2.832,-2.8301,-3.3418,-3.3418,-3.3418,-3.3418,-3.3418,-3.3418,-3.3418,-3.3418,-3.3418,-3.3418,-3.3144,-3.3066,-3.3379,-3.2754,-3.2441,-3.2773,-3.2012,-3.1523,-3.1523,-3.1133,-3.0898,-3.0898,-3.0898,-3.0898,-3.0898,-3.0898,-3.0898,-3.0898,-3.0898,-3.0898,-3.0898,-3.0898,-3.0898,-3.0898,-3.0898,-3.0898,-3.0898,-3.0898,-3.0898,-3.0898,-3.0898,-3.0898,-3.0898,-3.0898,-3.0898,-3.0898,-3.0898,-3.0898,-3.0898,-3.0898,-3.0898,-3.0898,-3.0898,-3.0898,-3.0898,-3.0898,-3.0898,-3.0898,-3.0898,-3.0898,-3.0898,-3.0898,-3.1133,-3.1289,-3.0957,-3.0898,-3.0898,-3.0898,-3.0898,-3.0898,-3.0898,-3.0898,-3.0898,-3.0898,-3.0898,-3.0898,-3.0898,-3.0898,-3.0898,-3.0898,-3.0898,-3.0898,-3.0898,-3.0898,-3.0898,-3.0898,-3.0898,-3.0898,-3.0898,-3.0898,-3.0898,-3.0898,-3.0898,-3.0898,-3.0898,-3.0898,-3.0898,-3.0898,-3.0898,-3.0898,-3.0898,-3.0898,-3.0898,-3.0859,-3.0391,-3.041,-3.0664,-2.9785,-2.9434,-2.9414,-2.9336,-2.8887,-2.834,-2.8652,-2.8574,-2.8301,-3.3418,-3.3418,-3.3418,-3.3418,-3.3418,-3.3418,-3.3418,-3.3242,-3.3184,-3.3398,-3.2871,-3.2656,-3.3066,-3.2363,-3.1875,-3.1875,-3.1484,-3.1211,-3.1211,-3.1016,-3.0898,-3.0898,-3.0898,-3.0898,-3.0898,-3.0898,-3.0898,-3.0898,-3.0898,-3.0898,-3.0898,-3.0898,-3.0898,-3.0898,-3.0898,-3.0898,-3.0898,-3.0898,-3.0898,-3.0898,-3.0898,-3.0898,-3.0898,-3.0898,-3.0898,-3.0898,-3.0898,-3.0898,-3.0898,-3.0898,-3.0898,-3.0898,-3.0898,-3.0898,-3.0898,-3.0898,-3.0898,-3.0937,-3.1133,-3.1191,-3.125,-3.1445,-3.1504,-3.1465,-3.123,-3.1191,-3.1191,-3.1191,-3.1035,-3.0898,-3.0898,-3.0898,-3.0898,-3.0898,-3.0898,-3.0898,-3.0898,-3.0898,-3.0898,-3.0898,-3.0898,-3.0898,-3.0898,-3.0898,-3.0898,-3.0898,-3.0898,-3.0898,-3.0898,-3.0898,-3.0898,-3.0898,-3.0898,-3.0898,-3.0898,-3.0898,-3.0898,-3.0898,-3.0898,-3.0898,-3.0898,-3.0898,-3.0898,-3.0879,-3.0644,-3.0664,-3.084,-3.0156,-2.9746,-2.9626,-2.9626,-2.916,-2.8633,-2.9062,-2.8965,-2.8594,-3.3418,-3.3418,-3.3418,-3.3418,-3.3418,-3.3418,-3.3418,-3.3066,-3.293,-3.3262,-3.2578,-3.2226,-3.2637,-3.2051,-3.1426,-3.0937,-3.0957,-3.0957,-3.0898,-3.0957,-3.0957,-3.0898,-3.0957,-3.0957,-3.0898,-3.0898,-3.0898,-3.0898,-3.0898,-3.0898,-3.0898,-3.0898,-3.0898,-3.0898,-3.0898,-3.0898,-3.0898,-3.0898,-3.0898,-3.0898,-3.0898,-3.0898,-3.0898,-3.0898,-3.0898,-3.0898,-3.0898,-3.0898,-3.0898,-3.0898,-3.0898,-3.0898,-3.0898,-3.0898,-3.0898,-3.0976,-3.0996,-3.1094,-3.1523,-3.1621,-3.1719,-3.207,-3.1953,-3.1738,-3.1738,-3.1621,-3.1543,-3.1621,-3.1289,-3.0996,-3.0996,-3.0937,-3.0898,-3.0898,-3.0898,-3.0898,-3.0898,-3.0898,-3.0898,-3.0898,-3.0898,-3.0898,-3.0898,-3.0898,-3.0898,-3.0898,-3.0898,-3.0898,-3.0898,-3.0898,-3.0898,-3.0898,-3.0898,-3.0898,-3.0898,-3.0898,-3.0898,-3.0898,-3.0898,-3.0898,-3.0898,-3.0898,-3.0898,-3.0898,-3.0898,-3.0898,-3.0859,-3.0469,-3.0059,-2.9687,-2.9766,-2.9434,-2.8945,-2.9238,-2.918,-2.8906,-3.334,-3.3418,-3.3418,-3.3418,-3.3418,-3.3418,-3.3418,-3.3066,-3.2812,-3.2871,-3.2129,-3.1777,-3.2207,-3.2148,-3.1758,-3.0957,-3.123,-3.1269,-3.0918,-3.123,-3.1269,-3.0918,-3.123,-3.1269,-3.0898,-3.0898,-3.0898,-3.0898,-3.0898,-3.0898,-3.0898,-3.0898,-3.0898,-3.0898,-3.0898,-3.0898,-3.0898,-3.0898,-3.0898,-3.0898,-3.0898,-3.0898,-3.0898,-3.0898,-3.0898,-3.0898,-3.0898,-3.0898,-3.0898,-3.0898,-3.0898,-3.0898,-3.0898,-3.0898,-3.0957,-3.1328,-3.1426,-3.1523,-3.1953,-3.209,-3.209,-3.2148,-3.2402,-3.2617,-3.2617,-3.2051,-3.1621,-3.2012,-3.1738,-3.1426,-3.1426,-3.1133,-3.0898,-3.0898,-3.0898,-3.0898,-3.0898,-3.0898,-3.0898,-3.0898,-3.0898,-3.0898,-3.0898,-3.0898,-3.0898,-3.0898,-3.0898,-3.0898,-3.0898,-3.0898,-3.0898,-3.0898,-3.0898,-3.0898,-3.0898,-3.0898,-3.0898,-3.0898,-3.0898,-3.0898,-3.0898,-3.0898,-3.0898,-3.0898,-3.0898,-3.0898,-3.0879,-3.082,-3.0527,-3.0156,-3.0566,-2.998,-2.8887,-2.8574,-2.8652,-2.8867,-3.3379,-3.3418,-3.3418,-3.3418,-3.3418,-3.334,-3.3105,-3.2715,-3.2441,-3.2441,-3.1699,-3.1328,-3.1758,-3.1601,-3.1309,-3.0918,-3.1055,-3.1094,-3.0898,-3.1055,-3.1094,-3.0898,-3.1074,-3.1074,-3.0898,-3.0898,-3.0898,-3.0898,-3.0898,-3.0898,-3.0898,-3.0898,-3.0898,-3.0898,-3.0898,-3.0898,-3.0898,-3.0898,-3.0898,-3.0898,-3.0898,-3.0898,-3.0898,-3.0898,-3.0898,-3.0898,-3.0898,-3.0898,-3.0898,-3.0898,-3.0898,-3.0898,-3.0898,-3.0898,-3.0976,-3.1387,-3.1523,-3.166,-3.2344,-3.2519,-3.2578,-3.2812,-3.2832,-3.2851,-3.3086,-3.2676,-3.2285,-3.248,-3.2187,-3.1875,-3.1875,-3.1738,-3.1601,-3.1601,-3.1406,-3.125,-3.125,-3.1035,-3.0898,-3.0898,-3.0898,-3.0898,-3.0898,-3.0898,-3.0898,-3.0898,-3.0898,-3.0898,-3.0898,-3.0898,-3.0898,-3.0898,-3.0898,-3.0898,-3.0898,-3.0898,-3.0898,-3.0898,-3.0898,-3.0898,-3.0898,-3.0898,-3.0898,-3.0898,-3.0898,-3.0898,-3.0898,-3.0898,-3.0625,-3.0234,-3.0703,-3.0527,-3.0,-2.9805,-2.9707,-2.957]},{"header":{"parameterUnit":"m.s-1","parameterCategory":1,"la1":30.6,"la2":28.766,"lo1":-90.7593,"lo2":-88.6598,"dy":0.0162,"dx":0.0183,"nx":116,"ny":114,"refTime":"2023-05-09T12:00:00:Z","depth":0,"parameterNumber":3,"parameterNumberName":"V-component_of_WINDS"},"data":[0.0,0.0,0.0,0.0,0.0,0.0,0.0,0.0,0.0,0.0,0.0,0.0,0.0,0.0,0.0,0.0,0.0,0.0,0.0,0.0,0.0,0.0,0.0,0.0,0.0,0.0,0.0,0.0,0.0,0.0,0.0,0.0,0.0,0.0,0.0,0.0,0.0,0.0,0.0,0.0,0.0,0.0,0.0,0.0,0.0,0.0,0.0,0.0,0.0,0.0,0.0,0.0,0.0,0.0,0.0,0.0,0.0,0.0,0.0,0.0,0.0,0.0,0.0,0.0,0.0,0.0,0.0,0.0,0.0,0.0,0.0,0.0,0.0,0.0,0.0,0.0,0.0,0.0,0.0,0.0,0.0,0.0,0.0,0.0,0.0,0.0,0.0,0.0,0.0,0.0,0.0,0.0,0.0,0.0,0.0,0.0,0.0,0.0,0.0,0.0,0.0,0.0,0.0,0.0,0.0,0.0,0.0,0.0,0.0,0.0,0.0,0.0,0.0,0.0,0.0,0.0,0.0,0.0,0.0,0.0,0.0,0.0,0.0,0.0,0.0,0.0,0.0,0.0,0.0,0.0,0.0,0.0,0.0,0.0,0.0,0.0,0.0,0.0,0.0,0.0,0.0,0.0,0.0,0.0,0.0,0.0,0.0,0.0,0.0,0.0,0.0,0.0,0.0,0.0,0.0,0.0,0.0,0.0,0.0,0.0,0.0,0.0,0.0,0.0,0.0,0.0,0.0,0.0,0.0,0.0,0.0,0.0,0.0,0.0,0.0,0.0,0.0,0.0,0.0,0.0,0.0,0.0,0.0,0.0,0.0,0.0,0.0,0.0,0.0,0.0,0.0,0.0,0.0,0.0,0.0,0.0,0.0,0.0,0.0,0.0,0.0,0.0,0.0,0.0,0.0,0.0,0.0,0.0,0.0,0.0,0.0,0.0,0.0,0.0,0.0,0.0,0.0,0.0,0.0,0.0,0.0,0.0,0.0,0.0,0.0,0.0,0.0,0.0,0.0,0.0,0.0,0.0,0.0,0.0,0.0,0.0,0.0,0.0,0.0,0.0,0.0,0.0,0.0,0.0,0.0,0.0,0.0,0.0,0.0,0.0,0.0,0.0,0.0,0.0,0.0,0.0,0.0,0.0,0.0,0.0,0.0,0.0,0.0,0.0,0.0,0.0,0.0,0.0,0.0,0.0,0.0,0.0,0.0,0.0,0.0,0.0,0.0,0.0,0.0,0.0,0.0,0.0,0.0,0.0,0.0,0.0,0.0,0.0,0.0,0.0,0.0,0.0,0.0,0.0,0.0,0.0,0.0,0.0,0.0,0.0,0.0,0.0,0.0,0.0,0.0,0.0,0.0,0.0,0.0,0.0,0.0,0.0,0.0,0.0,0.0,0.0,0.0,0.0,0.0,0.0,0.0,0.0,0.0,0.0,0.0,0.0,0.0,0.0,0.0,0.0,0.0,0.0,0.0,0.0,0.0,0.0,0.0,0.0,0.0,0.0,0.0,0.0,0.0,0.0,0.0,0.0,0.0,0.0,0.0,0.0,0.0,0.0,0.0,0.0,0.0,0.0,0.0,0.0,0.0,0.0,0.0,0.0,0.0,0.0,0.0,0.0,0.0,0.0,0.0,0.0,0.0,0.0,0.0,0.0,0.0,0.0,0.0,0.0,0.0,0.0,0.0,0.0,0.0,0.0,0.0,0.0,0.0,0.0,0.0,0.0,0.0,0.0,0.0,0.0,0.0,0.0,0.0,0.0,0.0,0.0,0.0,0.0,0.0,0.0,0.0,0.0,0.0,0.0,0.0,0.0,0.0,0.0,0.0,0.0,0.0,0.0,0.0,0.0,0.0,0.0,0.0,0.0,0.0,0.0,0.0,0.0,0.0,0.0,0.0,0.0,0.0,0.0,0.0,0.0,0.0,0.0,0.0,0.0,0.0,0.0,0.0,0.0,0.0,0.0,0.0,0.0,0.0,0.0,0.0,0.0,0.0,0.0,0.0,0.0,0.0,0.0,0.0,0.0,0.0,0.0,0.0,0.0,0.0,0.0,0.0,0.0,0.0,0.0,0.0,0.0,0.0,0.0,0.0,0.0,0.0,0.0,0.0,0.0,0.0,0.0,0.0,0.0,0.0,0.0,0.0,0.0,0.0,0.0,0.0,0.0,0.0,0.0,0.0,0.0,0.0,0.0,0.0,0.0,0.0,0.0,0.0,0.0,0.0,0.0,0.0,0.0,0.0,0.0,0.0,0.0,0.0,0.0,0.0,0.0,0.0,0.0,0.0,0.0,0.0,0.0,0.0,0.0,0.0,0.0,0.0,0.0,0.0,0.0,0.0,0.0,0.0,0.0,0.0,0.0,0.0,0.0,0.0,0.0,0.0,0.0,0.0,0.0,0.0,0.0,0.0,0.0,0.0,0.0,0.0,0.0,0.0,0.0,0.0,0.0,0.0,0.0,0.0,0.0,0.0,0.0,0.0,0.0,0.0,0.0,0.0,0.0,0.0,0.0,0.0,0.0,0.0,0.0,0.0,0.0,0.0,0.0,0.0,0.0,0.0,0.0,0.0,0.0,0.0,0.0,0.0,0.0,0.0,0.0,0.0,0.0,0.0,0.0,0.0,0.0,0.0,0.0,0.0,0.0,0.0,0.0,0.0,0.0,0.0,0.0,0.0,0.0,0.0,0.0,0.0,0.0,0.0,0.0,0.0,0.0,0.0,0.0,0.0,0.0,0.0,0.0,0.0,0.0,0.0,0.0,0.0,0.0,0.0,0.0,0.0,0.0,0.0,0.0,0.0,0.0,0.0,0.0,0.0,0.0,0.0,0.0,0.0,0.0,0.0,0.0,0.0,0.0,0.0,0.0,0.0,0.0,0.0,0.0,0.0,0.0,0.0,0.0,0.0,0.0,0.0,0.0,0.0,0.0,0.0,0.0,0.0,0.0,0.0,0.0,0.0,0.0,0.0,0.0,0.0,0.0,0.0,0.0,0.0,0.0,0.0,0.0,0.0,0.0,0.0,0.0,0.0,0.0,0.0,0.0,0.0,0.0,0.0,0.0,0.0,0.0,0.0,0.0,0.0,0.0,0.0,0.0,0.0,0.0,0.0,0.0,0.0,0.0,0.0,0.0,0.0,0.0,0.0,0.0,0.0,0.0,0.0,0.0,0.0,0.0,0.0,0.0,0.0,0.0,0.0,0.0,0.0,0.0,0.0,0.0,0.0,0.0,0.0,0.0,0.0,0.0,0.0,0.0,0.0,0.0,0.0,0.0,0.0,0.0,0.0,0.0,0.0,0.0,0.0,0.0,0.0,0.0,0.0,0.0,0.0,0.0,0.0,0.0,0.0,0.0,0.0,0.0,0.0,0.0,0.0,0.0,0.0,0.0,0.0,0.0,0.0,0.0,0.0,0.0,0.0,0.0,0.0,0.0,0.0,0.0,0.0,0.0,0.0,0.0,0.0,0.0,0.0,0.0,0.0,0.0,0.0,0.0,0.0,0.0,0.0,0.0,0.0,0.0,0.0,0.0,0.0,0.0,0.0,0.0,0.0,0.0,0.0,0.0,0.0,0.0,0.0,0.0,0.0,0.0,0.0,0.0,0.0,0.0,0.0,0.0,0.0,0.0,0.0,0.0,0.0,0.0,0.0,0.0,0.0,0.0,0.0,0.0,0.0,0.0,0.0,0.0,0.0,0.0,0.0,0.0,0.0,0.0,0.0,0.0,0.0,0.0,0.0,0.0,0.0,0.0,0.0,0.0,0.0,0.0,0.0,0.0,0.0,0.0,0.0,0.0,0.0,0.0,0.0,0.0,0.0,0.0,0.0,0.0,0.0,0.0,0.0,0.0,0.0,0.0,0.0,0.0,0.0,0.0,0.0,0.0,0.0,0.0,0.0,0.0,0.0,0.0,0.0,0.0,0.0,0.0,0.0,0.0,0.0,0.0,0.0,0.0,0.0,0.0,0.0,0.0,0.0,0.0,0.0,0.0,0.0,0.0,0.0,0.0,0.0,0.0,0.0,0.0,0.0,0.0,0.0,0.0,0.0,0.0,0.0,0.0,0.0,0.0,0.0,0.0,0.0,0.0,0.0,0.0,0.0,0.0,0.0,0.0,0.0,0.0,0.0,0.0,0.0,0.0,0.0,0.0,0.0,0.0,0.0,0.0,0.0,0.0,0.0,0.0,0.0,0.0,0.0,0.0,0.0,0.0,0.0,0.0,0.0,0.0,0.0,0.0,0.0,0.0,0.0,0.0,0.0,0.0,0.0,0.0,0.0,0.0,0.0,0.0,0.0,0.0,0.0,0.0,0.0,0.0,0.0,0.0,0.0,0.0,0.0,0.0,0.0,0.0,0.0,0.0,0.0,0.0,0.0,0.0,0.0,0.0,0.0,0.0,0.0,0.0,0.0,0.0,0.0,0.0,0.0,0.0,0.0,0.0,0.0,0.0,0.0,0.0,0.0,0.0,0.0,0.0,0.0,0.0,0.0,0.0,0.0,0.0,0.0,0.0,0.0,0.0,0.0,0.0,0.0,0.0,0.0,0.0,0.0,0.0,0.0,0.0,0.0,0.0,0.0,0.0,0.0,0.0,0.0,0.0,0.0,0.0,0.0,0.0,0.0,0.0,0.0,0.0,0.0,0.0,0.0,0.0,0.0,0.0,0.0,0.0,0.0,0.0,0.0,0.0,0.0,0.0,0.0,0.0,0.0,0.0,0.0,0.0,0.0,0.0,0.0,0.0,0.0,0.0,0.0,0.0,0.0,0.0,0.0,0.0,0.0,0.0,0.0,0.0,0.0,0.0,0.0,0.0,0.0,0.0,0.0,0.0,0.0,0.0,0.0,0.0,0.0,0.0,0.0,0.0,0.0,0.0,0.0,0.0,0.0,0.0,0.0,0.0,0.0,0.0,0.0,0.0,0.0,0.0,0.0,0.0,0.0,0.0,0.0,0.0,0.0,0.0,0.0,0.0,0.0,0.0,0.0,0.0,0.0,0.0,0.0,0.0,0.0,0.0,0.0,0.0,0.0,0.0,0.0,0.0,0.0,0.0,0.0,0.0,0.0,0.0,0.0,0.0,0.0,0.0,0.0,0.0,0.0,0.0,0.0,0.0,0.0,0.0,0.0,0.0,0.0,0.0,0.0,0.0,0.0,0.0,0.0,0.0,0.0,0.0,0.0,0.0,0.0,0.0,0.0,0.0,0.0,0.0,0.0,0.0,0.0,0.0,0.0,0.0,0.0,0.0,0.0,0.0,0.0,0.0,0.0,0.0,0.0,0.0,0.0,0.0,0.0,0.0,0.0,0.0,0.0,0.0,0.0,0.0,0.0,0.0,0.0,0.0,0.0,0.0,0.0,0.0,0.0,0.0,0.0,0.0,0.0,0.0,0.0,0.0,0.0,0.0,0.0,0.0,0.0,0.0,0.0,0.0,0.0,0.0,0.0,0.0,0.0,0.0,0.0,0.0,0.0,0.0,0.0,0.0,0.0,0.0,0.0,0.0,0.0,0.0,0.0,0.0,0.0,0.0,0.0,0.0,0.0,0.0,0.0,0.0,0.0,0.0,0.0,0.0,0.0,0.0,0.0,0.0,0.0,0.0,0.0,0.0,0.0,0.0,0.0,0.0,0.0,0.0,0.0,0.0,0.0,0.0,0.0,0.0,0.0,0.0,0.0,0.0,0.0,0.0,0.0,0.0,0.0,0.0,0.0,0.0,0.0,0.0,0.0,0.0,0.0,0.0,0.0,0.0,0.0,0.0,0.0,0.0,0.0,0.0,0.0,0.0,0.0,0.0,0.0,0.0,0.0,0.0,0.0,0.0,0.0,0.0,0.0,0.0,0.0,0.0,0.0,0.0,0.0,0.0,0.0,0.0,0.0,0.0,0.0,0.0,0.0,0.0,0.0,0.0,0.0,0.0,0.0,0.0,0.0,0.0,0.0,0.0,0.0,0.0,0.0,0.0,0.0,0.0,0.0,0.0,0.0,0.0,0.0,0.0,0.0,0.0,0.0,0.0,0.0,0.0,0.0,0.0,0.0,0.0,0.0,0.0,0.0,0.0,0.0,0.0,0.0,0.0,0.0,0.0,0.0,0.0,0.0,0.0,3.3721,3.2431,0.0,0.0,0.0,0.0,0.0,0.0,0.0,0.0,0.0,0.0,0.0,0.0,0.0,0.0,0.0,0.0,0.0,0.0,0.0,0.0,0.0,0.0,0.0,0.0,0.0,0.0,0.0,0.0,0.0,0.0,0.0,0.0,0.0,0.0,0.0,0.0,0.0,0.0,3.9475,3.9756,3.9567,3.8871,3.8314,3.7941,0.0,0.0,0.0,0.0,0.0,0.0,0.0,0.0,0.0,0.0,0.0,0.0,0.0,0.0,0.0,0.0,0.0,0.0,0.0,0.0,0.0,0.0,0.0,0.0,0.0,0.0,0.0,0.0,0.0,0.0,0.0,0.0,0.0,0.0,0.0,0.0,0.0,0.0,0.0,0.0,0.0,0.0,0.0,0.0,0.0,0.0,0.0,0.0,0.0,0.0,0.0,0.0,0.0,0.0,0.0,0.0,0.0,0.0,0.0,0.0,0.0,0.0,0.0,0.0,0.0,0.0,0.0,0.0,0.0,0.0,3.6045,3.4876,0.0,0.0,0.0,0.0,0.0,0.0,0.0,0.0,0.0,0.0,0.0,0.0,0.0,0.0,0.0,0.0,0.0,0.0,0.0,0.0,0.0,0.0,0.0,3.2791,3.3388,3.3045,3.3596,3.4002,0.0,0.0,0.0,0.0,0.0,0.0,0.0,3.8582,3.8966,3.9084,4.0089,4.0917,4.1607,4.2218,4.2128,4.1429,4.0187,0.0,0.0,0.0,0.0,0.0,0.0,0.0,0.0,0.0,0.0,0.0,0.0,0.0,0.0,0.0,0.0,0.0,0.0,0.0,0.0,0.0,0.0,0.0,0.0,0.0,0.0,0.0,0.0,0.0,0.0,0.0,0.0,0.0,0.0,0.0,0.0,0.0,0.0,0.0,0.0,0.0,0.0,0.0,0.0,0.0,0.0,0.0,0.0,0.0,0.0,0.0,0.0,0.0,0.0,0.0,0.0,0.0,0.0,0.0,0.0,0.0,0.0,0.0,3.9816,4.0155,4.005,4.0155,4.0389,4.0627,3.9329,3.8326,3.7556,3.6146,0.0,0.0,0.0,0.0,0.0,0.0,0.0,0.0,0.0,0.0,0.0,0.0,0.0,0.0,0.0,0.0,0.0,0.0,0.0,0.0,0.0,3.3659,3.4002,3.4539,3.4673,3.4835,3.5001,0.0,0.0,0.0,0.0,0.0,3.8322,3.8979,3.9636,4.0203,4.2563,4.4056,4.4713,4.54,4.5543,4.5166,4.2559,4.138,4.1352,0.0,0.0,0.0,0.0,0.0,0.0,0.0,0.0,0.0,0.0,0.0,0.0,0.0,0.0,0.0,0.0,0.0,0.0,0.0,0.0,0.0,0.0,0.0,0.0,0.0,0.0,0.0,0.0,0.0,0.0,0.0,0.0,0.0,0.0,0.0,0.0,0.0,0.0,0.0,0.0,0.0,4.1328,4.1339,0.0,0.0,0.0,0.0,0.0,0.0,0.0,0.0,0.0,0.0,0.0,0.0,0.0,4.0454,4.2205,4.2703,4.2968,4.3078,4.4584,4.5106,4.4661,4.5134,4.5134,4.4771,4.4979,0.0,3.9314,3.9109,0.0,0.0,0.0,0.0,0.0,0.0,0.0,0.0,0.0,0.0,0.0,0.0,0.0,0.0,0.0,0.0,0.0,0.0,0.0,0.0,0.0,3.4661,3.5477,3.6238,3.6658,3.6752,3.6462,3.6432,0.0,0.0,0.0,3.7883,3.896,3.926,4.0277,4.2073,4.3569,4.5035,4.6441,4.7231,4.7635,4.746,4.673,4.4838,4.2286,4.1656,0.0,0.0,0.0,0.0,0.0,0.0,0.0,0.0,0.0,0.0,0.0,0.0,0.0,0.0,0.0,0.0,0.0,0.0,0.0,0.0,0.0,0.0,0.0,0.0,0.0,0.0,0.0,0.0,0.0,0.0,0.0,0.0,0.0,0.0,0.0,0.0,0.0,0.0,0.0,4.1351,4.2711,4.1875,4.1546,4.0515,0.0,0.0,0.0,0.0,0.0,0.0,0.0,0.0,0.0,4.3406,4.3592,4.435,4.5962,4.6511,4.6771,4.6771,4.7483,4.7684,4.7483,4.7349,4.7153,4.6929,4.7521,4.6459,4.4257,4.256,4.114,3.9769,0.0,0.0,0.0,0.0,3.6125,3.6277,0.0,0.0,0.0,0.0,0.0,0.0,0.0,0.0,0.0,0.0,0.0,0.0,3.4612,3.5765,3.682,3.7614,3.8093,3.8182,3.7704,3.7345,3.7315,3.7644,3.7494,3.8033,3.9343,3.9955,4.1633,4.4403,4.5202,4.6538,4.8358,4.9212,4.9605,4.9605,5.0222,4.8275,4.4499,4.3988,4.2818,4.1308,0.0,0.0,0.0,0.0,0.0,0.0,0.0,0.0,0.0,0.0,0.0,0.0,0.0,0.0,0.0,0.0,0.0,0.0,0.0,0.0,0.0,0.0,0.0,0.0,0.0,0.0,0.0,0.0,0.0,0.0,0.0,0.0,0.0,0.0,0.0,0.0,0.0,4.3897,4.5166,4.3239,4.463,4.4305,0.0,0.0,0.0,0.0,0.0,0.0,4.3574,4.4242,4.5373,4.7205,4.7549,4.8399,4.971,5.0026,5.0169,5.0169,5.0096,5.0096,5.0068,4.9531,4.9216,4.9102,4.9538,4.9395,4.8574,4.5845,4.416,4.2944,4.0374,3.9507,3.9718,3.9113,3.9081,3.9564,0.0,0.0,0.0,0.0,0.0,0.0,0.0,0.0,0.0,0.0,0.0,3.5466,3.629,3.6952,3.7614,3.8272,3.8362,3.8392,3.8332,3.7195,3.7075,3.8302,3.7734,3.8033,3.9343,4.146,4.4055,4.7201,4.8396,4.9779,5.131,5.1781,5.205,5.2009,5.196,5.1046,4.941,4.7498,4.6166,4.5118,4.3211,0.0,0.0,0.0,0.0,0.0,0.0,0.0,0.0,0.0,0.0,0.0,0.0,0.0,0.0,0.0,0.0,0.0,0.0,0.0,0.0,0.0,0.0,0.0,0.0,0.0,0.0,0.0,0.0,0.0,0.0,0.0,0.0,0.0,0.0,0.0,0.0,0.0,0.0,4.7388,5.0217,0.0,0.0,0.0,0.0,4.4503,4.4514,4.5452,4.7619,4.8272,4.9879,5.27,5.2192,5.255,5.3893,5.3296,5.2968,5.2968,5.2968,5.2968,5.2968,5.2938,5.258,5.1983,5.2043,5.1685,5.084,4.8702,4.6392,4.4246,4.3589,4.2282,4.0873,4.1351,4.1521,4.1649,0.0,0.0,0.0,0.0,0.0,0.0,0.0,0.0,3.3705,3.4673,3.5518,3.6141,3.6477,3.7823,3.896,3.9619,4.0068,4.0381,4.0528,3.8903,3.8366,3.938,3.8348,3.9047,4.178,4.3461,4.5733,4.8684,4.9553,5.0914,5.2797,5.3534,5.4082,5.4422,5.4966,5.4861,5.4085,5.0909,4.8604,4.7076,4.6322,4.4565,0.0,0.0,0.0,0.0,0.0,0.0,0.0,0.0,0.0,0.0,0.0,0.0,0.0,0.0,0.0,0.0,0.0,0.0,0.0,0.0,0.0,0.0,0.0,0.0,0.0,0.0,0.0,0.0,0.0,0.0,0.0,0.0,0.0,0.0,0.0,0.0,0.0,5.069,5.3168,0.0,5.033,5.0124,5.0217,5.0217,5.0964,5.1788,5.2585,5.3594,5.4458,5.5089,5.5269,5.5388,5.5478,5.5239,5.5119,5.514,5.467,5.4251,5.3803,5.2935,5.2187,5.1558,5.1558,5.1439,5.1105,5.0364,4.9069,4.7457,4.6148,4.5386,4.4979,4.45,4.4763,4.5302,0.0,0.0,0.0,0.0,0.0,0.0,0.0,0.0,3.4312,3.5166,3.5992,3.6656,3.7075,3.8691,4.0098,4.0995,4.134,4.1573,4.1686,3.9888,3.9178,3.9985,3.9589,4.0826,4.3926,4.5314,4.7435,5.0376,5.083,5.1994,5.3889,5.4382,5.4929,5.5578,5.6374,5.6887,5.6984,5.4496,5.2152,5.0147,4.9335,4.7909,4.6031,0.0,0.0,0.0,0.0,0.0,0.0,0.0,0.0,0.0,0.0,0.0,0.0,0.0,0.0,0.0,0.0,0.0,0.0,0.0,0.0,0.0,0.0,0.0,0.0,0.0,0.0,0.0,0.0,0.0,0.0,0.0,0.0,0.0,0.0,5.2276,5.4521,5.2755,5.5867,5.6944,5.3832,5.4341,5.485,5.485,5.5269,5.5628,5.5807,5.6645,5.6795,5.6248,5.6765,5.6705,5.5837,5.6128,5.6218,5.6218,5.5508,5.5089,5.482,5.3473,5.2516,5.1858,5.1648,5.1439,5.1229,5.1229,5.0451,4.9179,4.807,4.7644,4.7521,4.6609,4.6726,4.7309,0.0,0.0,0.0,0.0,0.0,0.0,0.0,3.3394,3.4375,3.5389,3.6118,3.6985,3.8272,3.9619,4.0965,4.2291,4.1964,4.1716,4.1746,4.0031,3.9317,4.0016,4.1438,4.3256,4.5527,4.6936,4.9179,5.2266,5.2295,5.3098,5.4566,5.4427,5.4727,5.5432,5.599,5.6943,5.8086,5.8119,5.6816,5.4507,5.2292,5.1359,5.0937,0.0,0.0,0.0,0.0,0.0,0.0,0.0,0.0,0.0,0.0,0.0,0.0,0.0,0.0,0.0,0.0,0.0,0.0,0.0,0.0,0.0,0.0,0.0,0.0,0.0,0.0,0.0,0.0,0.0,0.0,0.0,0.0,0.0,5.0554,5.4341,5.6256,5.3743,5.856,6.0595,5.6817,5.7513,5.8231,5.8231,5.7064,5.6585,5.7154,5.7184,5.6915,5.6338,5.6855,5.6555,5.5299,5.5897,5.6248,5.6248,5.5508,5.5508,5.6128,5.476,5.3773,5.3084,5.2456,5.1798,5.1229,5.1229,5.0451,4.9329,4.9329,4.891,4.8177,4.7549,4.7309,4.7309,0.0,0.0,0.0,0.0,0.0,0.0,0.0,3.3533,3.4689,3.6048,3.6776,3.7674,3.899,4.0307,4.152,4.2543,4.207,4.201,4.2795,4.0522,3.9736,4.1095,4.2977,4.5011,4.7239,4.8161,4.9585,5.1522,5.2034,5.2809,5.3822,5.4835,5.5338,5.5432,5.6673,5.7335,5.7577,5.8491,5.9126,5.9315,5.6909,5.504,5.3427,0.0,0.0,0.0,0.0,0.0,0.0,0.0,0.0,0.0,0.0,0.0,0.0,0.0,0.0,0.0,0.0,0.0,0.0,0.0,0.0,0.0,0.0,0.0,0.0,0.0,0.0,0.0,0.0,0.0,0.0,0.0,5.236,5.4401,5.4521,5.7274,5.9368,5.9608,6.1104,6.1852,6.1253,6.1074,6.1014,6.1014,6.0236,5.9608,5.9279,5.9279,5.8979,5.8321,5.8471,5.8141,5.7334,5.7004,5.6825,5.6825,5.5718,5.5029,5.47,5.3354,5.2396,5.1738,5.1558,5.1379,5.1229,5.1229,5.072,4.9912,4.9464,4.8566,4.7549,4.7369,4.7309,4.7309,0.0,0.0,0.0,0.0,0.0,0.0,0.0,3.3463,3.468,3.6186,3.6982,3.7913,3.9224,4.0337,4.131,4.2114,4.1723,4.1546,4.1858,4.0543,4.0565,4.2397,4.4194,4.62,4.8385,4.9102,5.0033,5.1185,5.1623,5.2232,5.301,5.389,5.4565,5.5135,5.6282,5.7217,5.7939,5.8696,6.0111,6.1708,5.999,5.8681,5.7502,5.5522,5.412,5.3062,5.2107,5.1681,5.1327,4.9764,0.0,0.0,0.0,0.0,0.0,0.0,0.0,0.0,0.0,0.0,0.0,0.0,0.0,0.0,0.0,0.0,0.0,0.0,0.0,0.0,0.0,0.0,0.0,0.0,5.5983,5.8294,5.8934,6.0131,6.1313,6.2391,6.251,6.266,6.3049,6.248,6.2091,6.2091,6.1493,6.0805,6.0116,6.0086,5.9668,5.871,5.8949,5.865,5.7693,5.7304,5.7094,5.7064,5.5508,5.473,5.4551,5.2935,5.2007,5.1618,5.1349,5.1229,5.1199,5.0883,5.0421,4.9793,0.0,0.0,0.0,0.0,4.7309,4.7279,0.0,0.0,0.0,0.0,0.0,0.0,0.0,3.3122,3.4466,3.6094,3.6935,3.7973,3.9469,4.0098,4.0666,4.1362,4.1157,4.0709,4.0016,4.0427,4.1629,4.3622,4.5106,4.6824,4.8827,4.9596,5.0338,5.1082,5.1082,5.1454,5.2198,5.2367,5.3112,5.4363,5.531,5.6691,5.8399,5.8597,6.0114,6.2299,6.165,6.1692,6.1757,5.8502,5.8005,5.8786,5.6897,5.5513,5.4463,5.3496,0.0,0.0,0.0,0.0,0.0,0.0,0.0,0.0,0.0,0.0,0.0,0.0,0.0,0.0,0.0,0.0,0.0,0.0,0.0,0.0,0.0,0.0,0.0,0.0,6.0114,6.2409,6.3259,6.2875,6.2714,6.3134,6.3194,6.3194,6.3194,6.2597,6.2268,6.2268,6.1583,6.0954,6.0356,6.0176,0.0,0.0,0.0,5.853,5.7334,5.7244,5.7184,5.7064,5.5209,5.4551,5.491,5.3054,5.2157,5.2067,5.1468,5.1229,5.1169,5.0554,4.9912,4.9299,4.9149,4.8686,4.8117,4.7519,4.7309,4.7219,0.0,0.0,0.0,0.0,0.0,0.0,0.0,3.2379,3.4023,3.6534,3.7192,3.8332,4.0726,4.0636,4.074,4.1558,4.1267,4.0817,4.0397,4.1497,4.2635,4.3663,4.5571,4.7071,4.8063,4.8839,4.956,5.0304,5.0304,5.0676,5.1454,5.2706,5.3078,5.2841,5.4837,5.5918,5.6389,5.7995,5.9665,6.1233,6.1339,6.136,6.1285,6.1152,6.0556,5.9786,5.9961,6.0654,6.1117,5.9169,5.8288,5.7696,5.5774,5.3929,0.0,0.0,0.0,0.0,0.0,0.0,0.0,0.0,0.0,0.0,0.0,0.0,0.0,0.0,0.0,0.0,0.0,0.0,0.0,6.0626,6.2056,6.3467,6.546,6.5447,6.4883,6.3914,6.3823,6.3823,6.3823,6.3475,6.3213,6.3213,6.2385,6.1852,6.1702,6.0685,5.9967,5.9727,5.9308,5.8979,5.871,5.8201,5.7633,5.7064,5.5688,0.0,5.3533,5.2606,5.1917,5.1409,5.1289,5.1229,5.1199,5.1079,5.0331,4.9209,4.8087,4.7608,4.7489,4.7369,4.7309,4.7219,0.0,0.0,0.0,0.0,0.0,0.0,0.0,3.1609,3.3073,3.5955,3.6247,3.7157,3.9612,3.929,3.9056,3.9493,3.9809,4.0121,4.0366,4.1778,4.3074,4.412,4.5531,4.6947,4.8431,4.8457,4.9009,5.0101,5.0101,5.0473,5.1219,5.2367,5.2909,5.2976,5.4871,5.5919,5.6393,5.8109,5.9414,6.041,6.0799,6.0932,6.0976,6.2264,6.2278,6.1781,6.2875,6.3504,6.3703,6.2974,6.2187,6.1468,6.084,5.9413,5.738,0.0,0.0,0.0,0.0,0.0,0.0,0.0,0.0,0.0,0.0,0.0,0.0,0.0,0.0,5.7064,5.8216,0.0,6.2077,6.4715,6.6606,6.7886,6.8287,6.8839,6.804,6.4889,6.4479,6.43,6.3797,6.3595,6.3481,6.3309,6.2894,6.245,6.2121,6.1463,6.0775,6.0116,6.0086,5.9787,5.9129,5.8471,5.7782,5.7064,5.5119,5.3832,5.3144,5.2157,5.1528,5.1229,5.1229,5.1229,5.1199,5.0823,4.9972,4.8716,4.8057,4.7608,4.7309,4.7309,4.7309,4.7219,0.0,0.0,0.0,0.0,0.0,0.0,0.0,3.097,3.2159,3.4843,3.4946,3.5629,3.786,3.755,3.7267,3.7439,3.8379,3.9382,4.0379,4.1759,4.3176,4.4562,4.5301,4.654,4.8327,4.8067,4.853,4.9886,5.0015,5.0518,5.1428,5.22,5.2976,5.3788,5.5108,5.619,5.7103,5.8457,5.9426,6.0112,6.0617,6.0845,6.1046,6.2565,6.3202,6.3401,6.4951,6.4884,6.4231,6.5227,6.4596,6.361,6.4824,6.4267,6.2541,5.9003,5.8936,0.0,0.0,0.0,0.0,0.0,0.0,0.0,0.0,5.6139,5.6513,5.8338,5.9716,6.1219,6.3203,6.5013,6.689,6.8991,7.1084,7.2096,7.1253,7.1999,7.1004,6.6796,6.5932,6.5216,6.4065,6.3891,6.3716,6.3367,6.3309,6.3012,6.2472,6.2202,6.1631,6.0671,6.0856,6.0441,5.9417,5.865,5.7902,5.7064,5.47,5.3443,5.3144,5.1947,5.1349,5.1229,5.1229,5.1229,5.1169,5.0361,4.9434,4.8446,4.8207,4.7788,4.7309,4.7309,4.7309,4.7219,0.0,0.0,0.0,0.0,0.0,0.0,0.0,0.0,3.1739,3.3281,3.3808,3.4808,3.6932,3.6707,3.6781,3.7605,3.831,3.935,4.0836,4.179,4.2953,4.4297,4.5201,4.5814,4.6044,4.7229,4.8196,4.902,4.9682,5.0753,5.2217,5.301,5.3754,5.4499,5.5344,5.6461,5.7814,5.866,5.9806,6.1153,6.1468,6.1696,6.1883,6.2407,6.2699,6.3125,6.5057,6.4567,6.33,6.534,6.5039,6.4161,6.6286,6.6387,6.5191,6.2078,6.0002,5.8093,5.5311,5.598,5.8064,6.0578,6.0197,6.0796,0.0,6.5607,6.4009,6.7021,6.8311,6.9153,7.0052,7.0703,7.1572,7.3126,7.2854,7.2809,7.3977,7.3631,7.2723,7.1175,6.9335,6.7543,6.5786,6.5355,6.4911,6.4331,6.4019,6.3849,6.3759,6.2637,6.2213,6.2637,6.1327,6.053,6.0464,5.9447,5.8351,5.7064,5.5658,5.4341,5.3144,5.2426,5.1768,5.1229,5.1229,5.1229,5.1139,4.9883,4.9329,4.909,4.7878,4.7369,4.7309,4.7309,4.7309,4.7219,0.0,0.0,0.0,0.0,0.0,0.0,0.0,0.0,0.0,3.2405,3.2434,3.3047,3.4823,3.4982,3.5361,3.633,3.782,3.931,4.0746,4.2386,4.386,4.516,4.5624,4.6098,4.6674,4.7294,4.7988,4.886,4.9466,5.0395,5.1549,5.2163,5.3122,5.4356,5.5521,5.6608,5.7648,5.9228,6.0073,6.0337,6.116,6.1127,6.0617,6.1499,6.1287,6.0656,6.2698,6.259,0.0,6.3074,6.3141,6.3007,6.5386,6.5295,6.3993,6.1917,6.1239,6.1071,6.0567,6.0265,6.0578,6.2459,6.337,6.4484,6.6973,6.6973,6.7167,6.9813,7.165,7.2868,7.3172,7.4094,7.4981,7.5619,7.604,7.6387,7.6535,7.6269,7.5087,7.2433,7.1348,6.9736,6.7077,6.6331,6.5639,6.4828,6.4684,6.4388,6.4023,6.3447,6.3113,6.2991,6.2698,6.2006,6.0826,6.0052,5.913,5.8187,5.5711,5.4443,5.4201,5.2735,5.192,5.1649,5.1649,5.1649,5.1588,5.0698,5.0064,4.9597,4.8662,4.8028,4.7666,4.7396,4.7309,4.7279,0.0,0.0,0.0,0.0,0.0,0.0,0.0,0.0,0.0,0.0,3.1182,3.1463,3.2864,3.3438,3.4075,3.4971,3.6722,3.8571,4.0497,4.2349,4.4092,4.5748,4.5879,4.6253,4.6975,4.72,4.7606,4.83,4.9305,5.0217,5.1076,5.1866,5.2928,5.4293,5.5338,5.6455,5.7648,5.9212,6.0004,6.0163,6.0832,6.0572,5.9862,6.0291,5.9449,5.8283,6.0415,6.0348,5.9348,6.0086,6.0354,6.0695,6.2636,6.2778,6.1975,6.0565,6.0593,6.1262,6.2205,6.2312,6.256,6.4032,6.6271,6.7963,6.7624,6.8538,6.9958,7.1853,7.351,7.4661,7.4864,7.6149,7.7198,7.7198,7.828,7.8991,7.8653,7.8077,7.6625,7.379,7.2854,7.1403,6.8789,6.7315,6.6273,6.5586,6.5189,6.4854,6.4549,6.4127,6.3792,6.3543,6.3706,6.3066,6.1392,6.0646,5.9834,5.8975,5.5766,5.4522,5.4916,5.2913,5.2002,5.2002,5.2002,5.1911,5.1668,5.1,5.0332,4.9664,4.8997,4.842,4.7964,4.7624,4.7495,4.7495,0.0,0.0,0.0,0.0,0.0,0.0,0.0,0.0,0.0,0.0,0.0,0.0,0.0,3.2371,3.3227,3.3979,3.4888,3.6858,4.018,4.125,4.293,4.5484,4.5798,4.592,4.5961,4.6629,4.7034,4.7045,4.9171,5.0549,5.1288,5.2771,5.3853,5.4608,5.4598,5.5942,5.806,5.8125,5.9506,6.1535,6.0665,6.0445,6.0403,5.8797,5.7406,5.6593,5.9026,5.8133,5.5952,5.6696,5.6932,5.7067,5.7881,5.9099,5.9911,5.8423,5.7036,5.6222,5.7712,6.0182,6.3091,6.6,6.8977,7.1345,7.2056,7.2766,7.3544,7.4356,7.4559,7.483,7.554,7.6927,7.7942,7.7942,7.8619,7.9363,8.004,7.828,7.6739,7.6144,7.4169,7.236,7.1088,6.8492,6.6831,6.6831,6.5601,6.5195,6.5786,6.4525,6.4125,6.4857,6.3936,6.3067,6.2364,6.1423,6.0312,5.8975,5.6222,5.4947,5.4916,5.2913,5.2002,5.2002,5.2002,5.1638,5.097,5.0302,4.9634,4.8966,4.8311,4.8037,4.8007,4.7964,4.7964,4.7964,0.0,0.0,0.0,0.0,0.0,0.0,0.0,0.0,0.0,0.0,0.0,0.0,0.0,0.0,0.0,0.0,3.3747,3.5079,3.7261,3.941,4.1411,4.3271,4.4713,4.5593,4.5787,4.6422,4.6838,4.6993,4.8468,4.9573,5.0419,5.0734,5.1847,5.3545,5.3589,5.4525,5.6178,5.7223,5.8423,5.961,5.9448,5.9425,5.9339,5.7919,5.6192,5.4467,0.0,5.3245,5.2606,5.2876,5.3315,5.4025,5.531,5.6055,5.6359,5.5852,5.6393,5.7712,6.0216,6.3057,6.6034,6.9045,7.165,7.3443,7.3172,7.4086,7.4728,7.4018,7.3883,7.3781,7.3544,7.4728,7.5912,7.6386,7.7942,7.9363,8.0107,7.916,7.7479,7.5052,7.4105,7.2626,7.0034,6.8689,6.7762,6.7347,6.6226,6.5472,6.5257,6.4795,6.4641,6.4888,6.4562,6.3585,6.1989,6.1721,6.0871,5.9492,5.7254,5.5231,5.3438,5.2764,5.2427,5.2427,5.2427,5.235,5.2074,5.094,5.0358,5.0021,4.8856,4.8427,4.8427,4.8427,4.8427,4.8385,0.0,0.0,0.0,0.0,0.0,0.0,0.0,0.0,0.0,0.0,0.0,0.0,0.0,0.0,0.0,0.0,0.0,3.3578,3.532,3.7299,3.9057,4.0481,4.2041,4.2955,4.323,4.3614,4.414,4.481,4.6079,4.7342,4.8536,4.8953,5.0047,5.1707,5.1952,5.2905,5.4311,5.5332,5.6424,5.7372,5.7036,5.6909,5.6779,5.5472,5.395,0.0,5.0393,4.9657,4.9518,4.9142,4.9909,5.1186,5.1929,5.2942,5.389,5.4431,5.5987,5.8287,6.1839,6.4546,6.7184,7.05,7.2766,7.4153,7.395,7.4627,7.5033,7.4086,7.3037,7.2157,7.1684,7.2394,7.3172,7.3646,7.5642,7.7536,7.8855,7.7908,7.6583,7.5238,7.437,7.2909,7.0535,6.9714,6.9081,6.8468,6.6986,6.6019,6.5833,6.5232,6.4888,6.4888,6.4888,6.4026,6.2179,6.2179,6.1132,5.9039,5.7549,5.5468,5.3067,5.2821,5.2698,5.2698,5.2452,5.2206,5.1898,5.079,5.0174,4.9866,4.8974,4.8604,4.8604,4.8604,4.8604,4.8563,0.0,0.0,0.0,0.0,0.0,0.0,0.0,0.0,0.0,0.0,0.0,0.0,0.0,0.0,0.0,0.0,0.0,0.0,3.4241,3.5055,3.6031,3.7251,3.8028,3.8486,3.8689,3.8746,3.9407,4.0704,4.2305,4.3963,4.5694,4.7288,4.8402,4.9105,4.9657,5.0835,5.2359,5.2435,5.3455,5.4875,5.3596,5.315,5.3093,5.1709,5.0749,4.9953,4.8498,4.7634,4.6993,4.5924,4.7083,4.8899,4.845,5.027,5.2841,5.4397,5.5953,5.8084,6.2415,6.4715,6.6779,7.0466,7.2496,7.3781,7.4458,7.4661,7.4593,7.439,7.2022,6.9958,6.9823,6.9891,7.006,7.0161,7.2124,7.4458,7.6758,7.5202,7.4627,7.669,7.5033,7.3409,7.2597,7.156,7.0749,7.0234,6.7904,6.6775,6.7439,6.5857,6.4888,6.4888,6.4857,6.418,6.2764,6.2702,6.1009,5.7795,5.7148,5.5684,5.3714,5.3037,5.2698,5.2667,5.2021,5.1374,5.0697,5.002,4.9312,4.8666,4.8635,4.8604,4.8604,4.8604,4.8604,4.8604,0.0,0.0,0.0,0.0,0.0,0.0,0.0,0.0,0.0,0.0,0.0,0.0,0.0,0.0,0.0,0.0,0.0,0.0,3.1213,3.2863,3.4024,3.4489,3.6196,3.7107,3.7147,3.7606,3.7997,3.8374,4.0364,4.181,4.2722,4.373,4.4873,4.6109,4.6245,4.692,4.8011,4.9193,5.0009,5.042,5.0175,5.0435,5.0826,4.9993,4.9521,4.9162,4.8298,4.7901,4.7766,4.7715,4.9375,5.1659,5.3213,5.46,5.6055,5.8084,6.0182,6.2178,6.3869,6.6643,6.9553,7.1616,7.3646,7.5033,7.4695,7.5033,7.4492,7.1176,6.9011,6.7015,6.4783,6.617,6.8233,6.9925,7.3477,7.6792,7.9025,7.8855,7.828,7.7773,7.7198,7.6115,7.4221,7.3278,7.2539,7.1888,6.8489,6.6554,6.6744,6.5608,6.4888,6.4888,6.4364,6.3441,6.2086,6.1071,5.9624,5.7795,5.7148,5.5684,5.3714,5.3037,5.2698,5.2698,5.2544,5.2082,5.1374,5.0728,5.002,4.9343,4.882,4.8604,4.8604,4.8604,4.8604,4.8543,0.0,0.0,0.0,0.0,0.0,0.0,0.0,0.0,0.0,0.0,0.0,0.0,0.0,0.0,0.0,0.0,0.0,0.0,0.0,3.1074,3.1759,3.185,3.2998,3.3656,3.3772,3.431,3.478,3.5103,3.6976,3.8339,3.9242,4.0321,4.1645,4.306,4.3466,4.4216,4.5341,4.602,4.6548,0.0,0.0,4.6843,4.7284,4.7201,4.7329,4.7612,4.7861,4.9057,5.059,5.106,5.2135,5.3585,5.5918,5.7408,5.8626,6.0554,6.2245,6.3802,6.5189,6.759,7.006,7.1548,7.3105,7.3984,7.2902,7.2732,7.1819,6.8335,6.5899,6.3903,6.2212,6.3802,6.5899,6.7489,7.1515,7.5337,7.7874,7.8213,7.828,7.845,7.8179,7.7232,7.527,7.4424,7.3544,7.2496,6.9581,6.7701,6.724,6.6205,6.5406,6.4888,6.421,6.3164,6.1809,6.0455,5.9255,5.8258,5.7272,5.5869,5.4099,5.3775,5.3283,5.2698,5.2698,5.2144,5.1221,5.0543,4.9835,4.9189,4.8758,4.8604,4.8573,4.8296,4.8173,4.8019,0.0,0.0,0.0,0.0,0.0,0.0,0.0,0.0,0.0,0.0,0.0,0.0,0.0,0.0,0.0,0.0,0.0,0.0,0.0,0.0,2.9854,2.9804,2.9804,2.9856,3.0049,3.0531,3.1105,3.1789,3.3185,3.446,3.5639,3.703,3.8483,3.994,4.0723,4.1861,4.3159,4.2882,4.3141,4.3738,4.3155,4.3077,4.3343,0.0,4.4875,4.5715,4.744,5.0358,5.3554,5.4822,5.5144,5.5469,5.7977,5.9674,6.1028,6.2651,6.3565,6.4512,6.644,6.8064,6.9586,7.0973,7.1853,7.1954,7.0263,6.9383,6.8166,6.5493,6.2922,6.1095,6.0892,6.2144,6.3599,6.4715,6.8436,7.2293,7.554,7.5912,7.669,7.8991,7.8517,7.7435,7.598,7.51,7.3984,7.2529,7.0837,6.9427,6.8371,6.7137,6.5897,6.4666,6.4026,6.3041,6.1686,6.0424,5.9439,5.8762,5.7457,5.6053,5.4683,5.4683,5.3991,5.2698,5.2821,5.2021,5.0636,5.0051,4.9343,4.8604,4.8728,4.8687,4.8543,4.7957,4.7669,4.7404,0.0,0.0,0.0,0.0,0.0,0.0,0.0,0.0,0.0,0.0,3.0482,3.0507,0.0,0.0,0.0,0.0,0.0,0.0,0.0,0.0,0.0,2.9804,2.9804,2.9818,2.9856,2.9957,3.0058,3.0198,3.1083,3.1889,3.2658,3.3554,3.4788,3.6399,3.7063,3.7936,3.9025,3.9558,3.9921,4.0038,4.0094,4.045,4.1122,4.2386,0.0,0.0,4.7634,5.0058,5.2314,5.6216,5.8122,5.9333,6.2272,6.3472,6.4241,6.6339,6.7049,6.7218,6.759,6.8842,7.0229,7.1109,7.1853,7.1684,6.8944,6.8199,6.6779,6.2042,6.0655,5.9945,5.8693,6.025,6.2719,6.5899,6.8639,7.2056,7.6893,7.7063,7.7536,7.9735,7.8822,7.7638,7.6792,7.5439,7.3984,7.2529,7.1536,7.0561,6.9475,6.7599,6.5458,6.3195,6.3071,6.2333,6.0978,6.0178,5.9439,5.8762,5.7457,5.6053,5.4683,5.4683,5.3991,5.2729,5.3314,5.2452,5.0697,5.0574,4.9774,4.8646,4.939,4.9228,4.8594,4.8576,4.8159,4.7404,0.0,0.0,0.0,0.0,0.0,0.0,0.0,3.0194,3.0588,3.0984,3.1537,3.1788,3.1486,3.1662,3.1813,0.0,0.0,0.0,0.0,0.0,0.0,0.0,0.0,0.0,2.9804,3.008,3.008,2.9804,0.0,3.0773,3.0817,3.146,3.2435,3.3656,3.439,3.543,3.6678,3.7187,3.7849,3.8506,3.8686,3.9354,4.0382,0.0,0.0,0.0,4.7654,5.0131,5.2688,5.4924,5.7358,6.0141,6.3732,6.5294,6.6034,6.7489,6.7895,6.8064,6.8876,6.962,7.0364,7.1142,7.1278,7.0263,6.6474,6.5324,6.3768,5.9302,5.8389,5.8287,5.7949,5.9742,6.2009,6.4174,6.7387,7.0906,7.4559,7.5777,7.6961,7.8822,7.8416,7.7536,7.6386,7.527,7.3984,7.2529,7.1718,7.0837,6.9794,6.7701,6.549,6.3379,6.301,6.2333,6.1317,6.0301,5.9624,5.9285,5.798,5.6577,5.5222,5.5222,5.4299,5.276,5.3437,5.2575,5.0697,5.0697,5.0162,4.934,4.971,4.963,4.9247,4.893,4.8286,4.7404,0.0,0.0,0.0,0.0,0.0,0.0,0.0,3.0437,3.0817,3.1813,3.2692,3.3119,3.2792,3.2742,3.2692,0.0,0.0,0.0,0.0,0.0,0.0,0.0,0.0,0.0,2.9804,0.0,0.0,2.9955,3.0507,0.0,0.0,0.0,0.0,0.0,3.2407,3.3542,3.5038,3.5439,3.6377,0.0,0.0,3.9066,4.0226,0.0,0.0,0.0,0.0,5.0,5.2909,5.3452,5.5824,5.917,6.2904,6.5068,6.6356,6.7015,6.7658,6.8402,6.962,7.0297,7.077,7.121,7.0872,6.918,6.4377,6.2685,6.1095,5.734,5.6562,5.6833,5.7712,5.937,6.0926,6.1975,6.5121,6.847,7.1515,7.3409,7.5337,7.7502,7.7604,7.6961,7.5608,7.4796,7.3747,7.2293,7.165,7.0837,6.9794,6.7942,6.613,6.4315,6.3577,6.2893,6.2208,6.1045,6.036,6.0204,5.8794,5.7346,5.6014,5.5933,5.4822,5.2944,5.3498,5.2575,5.0667,5.0727,5.0424,4.9947,5.0299,5.0299,5.0087,4.9356,4.8561,4.7645,0.0,0.0,0.0,0.0,0.0,0.0,0.0,3.0927,3.1639,3.3427,3.3746,3.3997,3.4449,3.45,3.4299,0.0,0.0,0.0,0.0,0.0,0.0,0.0,0.0,0.0,0.0,0.0,0.0,3.0532,3.106,0.0,0.0,0.0,0.0,0.0,0.0,3.1963,3.3473,3.4292,0.0,0.0,0.0,0.0,0.0,0.0,0.0,0.0,0.0,4.9236,5.1588,5.3623,5.5199,5.6692,5.9031,6.1991,6.457,6.4843,6.6846,6.9011,6.9147,7.0669,7.2056,7.1447,7.1278,6.9688,6.3835,6.1941,6.0351,5.6596,5.5783,5.6258,5.7645,5.8051,5.8896,6.1061,6.1738,6.3971,6.9586,7.0567,7.2259,7.6487,7.6352,7.5574,7.4796,7.4018,7.2969,7.1515,7.1345,7.0837,6.9794,6.888,6.7585,6.5738,6.4981,6.432,6.3611,6.2916,6.2206,6.1515,5.9945,5.8371,5.6955,5.676,5.5561,5.3622,5.3637,5.2575,5.0722,5.0839,5.0483,5.0026,5.1512,5.1623,5.0898,5.0154,4.9411,4.8474,0.0,0.0,0.0,0.0,0.0,0.0,3.0163,3.049,3.1141,3.2674,3.347,3.4123,3.463,3.4981,3.4831,3.3972,0.0,0.0,0.0,0.0,0.0,0.0,0.0,0.0,0.0,0.0,3.0934,3.1562,3.1461,0.0,0.0,0.0,0.0,0.0,0.0,3.1809,3.2632,3.3808,0.0,0.0,0.0,0.0,0.0,0.0,0.0,0.0,0.0,0.0,4.919,5.0639,5.2248,5.3813,5.4372,5.7072,6.0543,6.3518,6.5597,6.7327,6.9204,7.1041,7.2225,7.1481,7.0263,6.8064,6.3429,6.1095,5.8998,5.5716,5.5412,5.6021,5.7036,5.6867,5.7171,5.8964,5.9641,6.1231,6.4952,6.6271,6.8335,7.2394,7.2563,7.2631,7.3206,7.3003,7.2428,7.1379,7.1312,7.0895,7.0062,6.9097,6.7772,6.5886,6.5174,6.4462,6.375,6.307,6.2358,6.1601,6.0155,5.8824,5.7737,5.635,5.4974,5.3683,5.2852,5.1805,5.0722,5.0859,5.0819,5.0729,5.1842,5.2128,5.1809,5.1514,5.0579,4.9379,0.0,0.0,0.0,0.0,0.0,2.9114,3.017,3.0431,3.1041,3.2499,3.3545,3.4349,3.4856,3.5408,3.5403,3.4474,3.3596,0.0,0.0,0.0,0.0,0.0,0.0,0.0,0.0,0.0,3.1461,3.2215,3.1989,3.1989,0.0,0.0,3.1361,3.0834,0.0,0.0,0.0,0.0,0.0,0.0,0.0,0.0,0.0,0.0,0.0,0.0,0.0,0.0,0.0,0.0,0.0,5.1875,5.177,5.3584,5.6558,6.1004,6.3788,6.5952,6.8494,7.077,7.2225,7.1481,6.9586,6.6981,6.3531,6.0791,5.8287,5.575,5.5683,5.619,5.6697,5.6393,5.6292,5.7103,5.7679,5.8896,6.1366,6.2821,6.485,6.8132,6.8741,6.9451,7.0939,7.1684,7.1853,7.1345,7.1109,7.0669,6.9891,6.892,6.7803,6.6467,6.5548,6.4826,6.4289,6.3612,6.2923,6.2158,6.0881,5.9596,5.8242,5.6449,5.4804,5.3345,5.244,5.1549,5.0765,5.116,5.1371,5.1516,5.2343,5.2659,5.2659,5.2378,5.1586,5.0554,0.0,0.0,0.0,0.0,0.0,0.0,3.0868,3.1083,3.1763,3.3627,3.4374,3.4881,3.5433,3.6031,3.6132,3.5533,3.4022,0.0,0.0,0.0,0.0,0.0,0.0,0.0,0.0,0.0,3.2215,3.2215,3.2792,3.2767,3.2215,3.2215,3.1913,3.1361,0.0,0.0,0.0,0.0,0.0,0.0,0.0,0.0,0.0,0.0,0.0,0.0,0.0,0.0,0.0,0.0,0.0,0.0,0.0,5.2442,5.3147,5.6633,6.1363,6.5615,6.6559,6.9553,7.2225,7.1481,6.9586,6.7117,6.4174,6.1163,5.8592,5.707,5.6799,5.6799,5.6799,5.6799,5.6562,5.5817,5.5715,5.6765,5.9708,6.0825,6.2178,6.4377,6.529,6.6305,6.7793,6.9992,7.1312,7.1312,7.0635,6.9891,6.9147,6.8368,6.7929,6.7852,6.6474,6.5696,6.5696,6.4945,6.4201,6.3491,6.2499,6.0863,5.8551,5.7554,5.5507,5.2712,5.2844,5.2124,5.0968,5.188,5.2272,5.2378,5.3178,5.3518,5.3382,5.259,5.2307,5.2032,0.0,0.0,0.0,0.0,0.0,0.0,0.0,3.003,3.0678,3.2014,3.2667,3.337,3.4324,3.4901,3.5328,3.5483,3.468,0.0,0.0,0.0,0.0,0.0,0.0,0.0,0.0,3.2114,3.2767,3.3922,3.3721,3.3746,3.3922,3.3545,3.2867,3.1938,3.1788,3.1909,0.0,0.0,0.0,0.0,0.0,0.0,4.313,0.0,0.0,0.0,0.0,0.0,0.0,0.0,0.0,0.0,0.0,0.0,0.0,5.4611,5.7775,6.1043,6.2606,6.5392,6.7523,6.6305,6.5053,6.3599,6.1637,5.9674,5.7814,5.6359,5.6461,5.6664,5.6156,5.5649,5.5547,5.6325,5.6055,5.6224,5.7645,5.9844,6.1941,6.3666,6.7218,6.9722,7.0195,7.0906,7.1109,7.0601,7.0331,6.962,6.8335,6.7557,6.7151,6.7151,6.6203,6.5459,6.4952,6.4241,6.3226,6.2009,6.1127,5.9998,5.8618,5.7348,5.5628,5.3558,5.3273,5.2261,5.0968,5.1917,5.2307,5.2378,5.3212,5.3518,5.3484,5.3212,5.2438,5.1531,0.0,0.0,0.0,0.0,0.0,0.0,0.0,2.976,3.0407,3.1286,3.2064,3.2968,3.4098,3.4655,3.5207,3.5805,3.5529,0.0,0.0,0.0,0.0,0.0,0.0,0.0,3.2541,3.2742,3.337,3.4399,3.4274,3.4374,3.468,3.4374,3.3721,3.2842,3.2641,3.2507,0.0,0.0,0.0,0.0,0.0,0.0,4.2694,0.0,0.0,0.0,0.0,0.0,0.0,0.0,0.0,0.0,0.0,0.0,0.0,0.0,5.5043,5.7406,6.0102,6.2618,6.4343,6.4005,6.2719,6.1366,6.0689,5.8964,5.7205,5.6325,5.6258,5.6156,5.5412,5.4905,5.4803,5.5446,5.5175,5.5344,5.663,5.8896,6.1197,6.326,6.7117,6.962,6.962,7.0398,7.0703,7.0229,6.9654,6.8774,6.7557,6.6779,6.6271,6.6,6.5256,6.4647,6.4208,6.3193,6.2212,6.1298,6.0486,5.9492,5.8263,5.7144,5.5541,5.3665,5.3383,5.2551,0.0,5.2365,5.2764,5.2799,5.3314,5.3518,5.3518,5.3518,5.2706,5.1657,0.0,0.0,0.0,0.0,0.0,0.0,0.0,3.0192,3.0758,3.1311,3.229,3.337,3.4474,3.5082,3.568,3.6254,0.0,0.0,0.0,0.0,0.0,0.0,0.0,0.0,3.3111,3.3621,3.3922,3.3947,3.45,3.4776,3.4776,3.4776,3.4474,3.3872,3.337,3.2885,3.255,3.4887,3.7149,3.9377,4.0985,4.1775,0.0,0.0,0.0,0.0,0.0,0.0,0.0,0.0,0.0,0.0,0.0,0.0,0.0,0.0,0.0,0.0,0.0,6.0791,6.2245,6.3565,6.1873,6.0047,6.0757,5.8761,0.0,5.6731,5.619,5.548,5.4735,5.46,5.4363,5.3687,5.3585,5.4329,5.6494,5.8321,6.052,6.3565,6.5831,6.7083,6.6981,6.8944,7.0161,7.0128,6.8741,6.7557,6.6779,6.6,6.5256,6.4546,6.3802,6.3463,6.3531,6.2042,6.1264,6.1197,6.0452,5.9228,5.7625,5.6923,5.5375,5.3195,5.3338,5.3006,5.2343,5.3178,5.3518,5.3518,5.3518,5.3484,5.3416,5.3416,5.2875,5.2063,0.0,0.0,0.0,0.0,0.0,0.0,0.0,0.0,0.0,0.0,3.1612,3.2215,3.3345,3.4324,3.4977,0.0,0.0,0.0,0.0,0.0,0.0,0.0,0.0,0.0,3.3111,3.3621,3.4098,3.4525,3.5031,3.5307,3.5307,3.5307,3.4826,3.3897,3.3771,3.3987,3.4562,3.5868,3.7662,3.9687,4.0625,4.1312,0.0,0.0,0.0,0.0,4.3838,4.4646,0.0,0.0,0.0,0.0,0.0,0.0,0.0,0.0,5.2863,5.3542,5.5198,0.0,5.7239,5.7002,5.7273,5.7476,0.0,5.69,5.663,5.6089,5.5817,5.548,5.4735,5.46,5.4532,5.4363,5.4329,5.4905,5.6562,6.0554,6.441,6.7421,6.9248,6.9823,6.8673,6.9553,6.9958,6.9383,6.8436,6.732,6.6034,6.5256,6.4512,6.3802,6.3057,6.2922,6.3497,6.2042,6.0994,6.0385,6.0182,5.9021,5.6982,5.6814,5.5506,5.3379,5.4006,5.3538,5.2343,5.3178,5.3518,5.3518,5.3518,5.3112,5.257,5.257,5.1758,5.0574,0.0,0.0,0.0,0.0,0.0,0.0,0.0,0.0,0.0,0.0,0.0,0.0,0.0,0.0,0.0,0.0,0.0,0.0,0.0,0.0,0.0,0.0,0.0,3.3345,3.3136,3.3872,3.4424,3.468,3.5529,3.5906,3.5906,3.5906,3.5328,3.4248,3.3746,3.3799,3.4315,3.5748,3.7296,3.8894,4.04,0.0,0.0,0.0,0.0,0.0,4.3389,4.4077,0.0,4.6061,4.7592,4.9036,0.0,0.0,0.0,0.0,5.2427,5.3004,5.351,5.4426,5.5277,5.5547,5.5953,5.6292,5.6224,5.5987,5.5683,5.5277,5.4938,5.4566,5.416,5.4363,5.4465,5.416,5.4938,5.6359,5.8558,6.1873,6.5222,6.8199,6.9586,7.0128,6.9654,6.9654,6.9248,6.8132,6.732,6.6237,6.4783,6.4309,6.3768,6.3024,6.2279,6.2245,6.299,6.1501,6.052,6.008,5.9404,5.8287,5.6799,5.6461,5.5437,5.3975,5.4056,5.3617,5.2868,5.3314,5.3518,5.3518,5.3518,5.3247,5.2807,5.2435,5.1589,5.0574,0.0,0.0,0.0,0.0,0.0,0.0,0.0,0.0,0.0,0.0,0.0,0.0,0.0,0.0,0.0,0.0,0.0,0.0,0.0,0.0,0.0,0.0,3.4248,3.3671,3.3219,3.4123,3.4675,3.4806,3.5881,3.6455,3.6531,3.6531,3.5855,3.4675,3.3746,3.3319,3.3481,3.5331,3.6758,3.8027,4.0238,0.0,0.0,0.0,0.0,0.0,0.0,0.0,0.0,4.4766,4.637,4.7959,4.8415,0.0,0.0,0.0,0.0,0.0,5.3072,5.4088,5.5277,5.6089,5.6021,5.5818,5.6224,5.5412,5.4566,5.4465,5.3923,5.3551,5.3653,5.4093,5.4296,5.389,5.5886,5.8524,6.1535,6.3362,6.529,6.7793,6.8876,6.9553,6.9823,6.9383,6.847,6.6948,6.6102,6.5053,6.3599,6.3531,6.3159,6.2415,6.167,6.1603,6.2212,6.0791,6.0047,5.9911,5.866,5.7543,5.663,5.5987,5.5243,5.4397,5.3788,5.3518,5.3518,5.3518,5.3518,5.3518,5.3518,5.3382,5.3078,5.2401,5.1589,5.0777,0.0,0.0,0.0,0.0,0.0,0.0,0.0,0.0,0.0,0.0,0.0,0.0,0.0,0.0,0.0,0.0,0.0,0.0,0.0,0.0,0.0,3.5382,3.4449,3.3847,3.3771,3.3947,3.4474,3.5382,3.6081,3.6634,3.7061,3.7061,3.6232,3.468,3.455,3.4474,3.4519,3.5642,3.7209,3.9043,4.0041,0.0,0.0,0.0,0.0,0.0,0.0,0.0,0.0,4.4407,4.5931,4.7751,4.7846,0.0,0.0,0.0,0.0,0.0,5.3848,5.5675,5.6833,5.4566,5.4871,5.5412,5.4262,5.4296,5.4397,5.3788,5.3585,5.3687,5.4329,5.4025,5.4059,5.5209,5.8321,6.1637,6.4613,6.688,6.8402,6.8876,7.0128,7.0263,6.8436,6.8774,6.847,6.6948,6.6102,6.5053,6.3599,6.3531,6.3159,6.2415,6.167,6.1366,6.1467,6.0554,5.981,5.9167,5.8964,5.7814,5.5886,5.5749,5.4972,5.3653,5.3551,5.3518,5.3518,5.3518,5.3518,5.3518,5.3518,5.2706,5.1555,5.1388,5.0507,4.9323,0.0,0.0,0.0,0.0,0.0,0.0,0.0,0.0,0.0,0.0,0.0,0.0,0.0,0.0,0.0,0.0,0.0,0.0,0.0,0.0,3.6107,3.5533,3.5006,3.465,3.4349,3.4349,3.4876,3.5981,3.6558,3.7111,3.7613,3.701,3.6332,3.5604,3.5002,3.468,3.4726,3.5194,3.6673,3.8825,0.0,0.0,0.0,0.0,0.0,0.0,0.0,0.0,0.0,0.0,4.5624,4.7182,4.7182,0.0,0.0,0.0,0.0,0.0,5.3447,5.4867,5.5987,5.5412,5.6697,5.7814,5.6731,5.6427,5.6055,5.4938,5.4702,5.4803,5.5141,5.5886,5.7509,6.0588,6.1873,6.326,6.5392,6.6576,6.7557,6.8368,6.9451,6.9722,6.8639,6.8876,6.8132,6.5797,6.529,6.4444,6.299,6.2922,6.2584,6.1839,6.1467,6.0892,6.008,5.9708,5.9336,5.8998,5.8186,5.707,5.5716,5.531,5.4532,5.3518,5.3518,5.3518,5.3518,5.3518,5.3518,5.3518,5.3518,5.3078,5.2367,5.1522,5.027,4.9018,0.0,0.0,0.0,0.0,0.0,0.0,0.0,0.0,0.0,0.0,0.0,0.0,0.0,0.0,0.0,0.0,0.0,0.0,0.0,3.5931,3.6031,3.5708,3.5583,3.5307,3.4881,3.4881,3.5454,3.6606,3.7111,3.7663,3.8191,3.7385,3.6807,3.6358,3.5504,3.5027,3.4881,3.4881,3.6385,3.8809,0.0,0.0,0.0,0.0,0.0,0.0,0.0,0.0,0.0,0.0,0.0,0.0,0.0,0.0,0.0,5.0159,5.0861,5.1765,5.2707,5.3889,5.5141,5.6258,5.7679,5.8896,5.9201,5.8423,5.7476,5.6867,5.6596,5.6427,5.6258,5.7746,6.0182,6.3802,6.4343,6.4816,6.6271,6.6779,6.7354,6.8335,6.8977,6.9214,6.8842,6.8808,6.7658,6.4816,6.4613,6.3971,6.2482,6.2381,6.2042,6.1332,6.1129,6.0283,5.8761,5.8592,5.849,5.849,5.734,5.6325,5.5446,5.4871,5.4194,5.3518,5.3518,5.3518,5.3518,5.3518,5.3518,5.3484,5.3281,5.301,5.2536,5.1183,4.9965,4.9018,0.0,0.0,0.0,0.0,0.0,0.0,0.0,0.0,0.0,0.0,0.0,0.0,0.0,0.0,0.0,0.0,0.0,0.0,0.0,3.5533,3.5805,3.6329,3.5805,3.5483,3.5433,3.5433,3.6031,3.7136,3.7688,3.8241,3.8818,3.8768,3.7913,3.6405,3.6329,3.5956,3.5433,3.5433,3.7215,4.0033,3.9612,0.0,0.0,0.0,0.0,0.0,0.0,0.0,0.0,0.0,0.0,0.0,0.0,0.0,4.926,4.9558,5.0191,5.0994,5.2099,5.3991,5.5649,5.5749,5.5378,5.5886,5.9235,5.8389,5.7442,5.937,5.9235,5.8558,5.7848,5.8423,5.9336,6.0351,6.3903,6.7117,6.8639,7.0026,7.0669,7.0094,7.0094,6.9553,6.8132,6.7996,6.7049,6.4783,6.4613,6.3971,6.2482,6.2381,6.2042,6.1332,6.0588,5.9471,5.7983,5.7306,5.6968,5.6968,5.6867,5.6055,5.4668,5.46,5.4194,5.3518,5.3518,5.3518,5.3518,5.3518,5.3518,5.345,5.2672,5.1555,5.0236,4.9458,4.9086,4.9018,0.0,0.0,0.0,0.0,0.0,0.0,0.0,0.0,0.0,0.0,0.0,0.0,0.0,0.0,0.0,0.0,0.0,0.0,0.0,3.4605,3.5232,3.583,3.5608,3.5508,3.5508,3.5859,3.6784,3.829,3.8793,3.8994,3.8919,3.8492,3.7814,3.6908,3.6556,3.6279,3.6031,3.5633,3.7292,4.0142,3.9179,4.0631,0.0,0.0,0.0,0.0,0.0,0.0,0.0,0.0,4.4358,4.5634,4.5155,4.6562,4.8497,4.8822,4.9421,5.0257,5.1323,5.2942,5.4566,5.548,5.5141,5.5818,6.0452,6.0892,6.0385,6.0757,6.1366,6.1434,6.0216,6.1366,6.2719,6.3463,6.5764,6.7861,6.8944,6.9586,6.9823,6.9553,6.9079,6.8538,6.7963,6.7049,6.6,6.4715,6.4174,6.3463,6.2448,6.1975,6.1366,6.0588,5.981,5.8727,5.7239,5.6934,5.6325,5.5412,5.5412,5.5141,5.4566,5.4126,5.3754,5.3518,5.3518,5.3518,5.3518,5.3518,5.3518,5.3416,5.2604,5.1386,5.0067,4.9796,4.939,4.9018,0.0,0.0,0.0,0.0,0.0,0.0,0.0,0.0,0.0,0.0,0.0,0.0,0.0,0.0,0.0,0.0,0.0,0.0,3.3086,3.3796,3.4449,3.4956,3.5157,3.5521,3.6197,3.6849,3.7715,3.8861,3.9728,3.988,3.9321,3.8686,3.8424,3.8398,3.7624,3.7392,3.7547,3.6908,3.8225,4.0546,3.9475,4.0731,0.0,0.0,0.0,0.0,0.0,0.0,0.0,0.0,4.3899,4.4961,4.4705,4.5971,4.7671,4.8057,4.8818,4.9754,5.0614,5.1792,5.3078,5.4329,5.46,5.5886,6.0892,6.2042,6.2313,6.3193,6.3091,6.2584,6.1806,6.2313,6.3159,6.414,6.5933,6.7387,6.7929,6.8233,6.8301,6.8064,6.7523,6.7117,6.688,6.5933,6.5053,6.4309,6.3802,6.3091,6.211,6.1569,6.0723,5.9438,5.893,5.7848,5.6122,5.6122,5.548,5.4262,5.4262,5.4262,5.4228,5.3721,5.3518,5.3518,5.3518,5.3518,5.3484,5.3247,5.2841,5.2367,5.1826,5.0845,4.9729,4.9729,4.9424,4.9018,0.0,0.0,0.0,0.0,0.0,0.0,0.0,0.0,0.0,0.0,0.0,0.0,0.0,0.0,0.0,0.0,0.0,0.0,3.3036,3.3111,3.3319,3.3872,3.4424,3.5658,3.7723,3.8437,3.8845,3.8824,4.0432,4.0856,4.0282,3.9685,3.9997,4.0947,3.9753,3.9563,4.0124,3.9454,4.014,4.1546,4.0856,4.1554,4.2976,0.0,0.0,0.0,0.0,0.0,0.0,0.0,4.2917,4.3605,4.4338,4.5591,4.6871,4.7265,4.845,4.9653,4.9972,5.0642,5.1386,5.2131,5.3484,5.5784,6.0283,6.1298,6.255,6.6981,6.4377,6.1535,6.2245,6.0554,5.9539,6.1061,6.3768,6.5662,6.5662,6.6305,6.6508,6.5764,6.5662,6.5392,6.4681,6.458,6.4275,6.3565,6.3497,6.2854,6.1366,6.1298,6.0216,5.7949,5.7881,5.6799,5.46,5.46,5.4228,5.3518,5.3518,5.3518,5.3518,5.3518,5.3518,5.3518,5.3484,5.3484,5.345,5.2638,5.142,5.0101,5.0101,4.9627,4.9018,4.9018,4.9018,4.9018,0.0,0.0,0.0,0.0,0.0,0.0,0.0,0.0,0.0,0.0,0.0,0.0,0.0,0.0,0.0,0.0,0.0,0.0,3.1888,3.224,3.2717,3.3294,3.3847,3.4895,3.6567,3.8966,4.0466,4.0905,4.1394,4.1105,4.0113,4.0381,4.0245,3.9753,3.9879,3.9771,3.9481,3.9292,4.014,4.1546,4.0856,4.1554,4.2976,0.0,0.0,0.0,0.0,0.0,0.0,0.0,0.0,0.0,4.3314,4.4788,4.6637,4.593,4.717,4.8882,4.9104,5.0546,5.2029,5.2266,5.4634,5.7679,6.0622,6.1298,6.2245,6.5628,6.4884,6.3362,6.255,6.2279,6.1975,6.14,6.2922,6.4343,6.485,6.5121,6.5155,6.4952,6.4478,6.4275,6.458,6.3666,6.2956,6.2753,6.2245,6.1501,6.052,5.9471,5.8592,5.7915,5.69,5.5784,5.46,5.46,5.4228,5.3518,5.3518,5.3518,5.3518,5.3518,5.3518,5.3484,5.2909,5.2672,5.2604,5.186,5.098,5.0101,5.0101,4.9627,4.9018,4.9018,4.9018,4.9018,0.0,0.0,0.0,0.0,0.0,0.0,0.0,0.0,0.0,0.0,3.4324,0.0,0.0,0.0,0.0,0.0,0.0,0.0,0.0,3.2039,3.2365,3.2717,3.3835,3.5574,3.7952,4.0405,4.1864,4.2266,4.2104,4.1535,4.0601,4.1233,4.1394,4.1128,4.1535,4.1323,4.0709,4.0709,4.0984,4.1383,4.1269,4.1778,4.2598,0.0,0.0,0.0,0.0,0.0,0.0,0.0,0.0,0.0,4.2573,4.3836,4.5422,4.508,4.6486,4.8327,4.9381,5.0953,5.2536,5.3416,5.6021,5.8998,6.1603,6.3091,6.4613,6.6981,6.5696,6.4072,6.3768,6.2854,6.2076,6.1772,6.2482,6.3226,6.3666,6.3734,6.3734,6.3734,6.3091,6.2821,6.326,6.2212,6.1467,6.1467,6.1061,6.0486,5.9708,5.8524,5.7611,5.7036,5.5886,5.4905,5.416,5.416,5.3923,5.3518,5.3518,5.3518,5.3518,5.3518,5.3348,5.2976,5.2198,5.1691,5.1386,5.0947,5.0338,4.9661,4.9661,4.9221,4.8612,4.8883,4.8815,4.8578,0.0,0.0,0.0,0.0,0.0,0.0,0.0,0.0,0.0,0.0,3.4299,3.3947,0.0,0.0,0.0,0.0,0.0,0.0,0.0,3.2215,3.2282,3.2391,3.4543,3.7304,4.0689,4.2165,4.2905,4.2947,4.2621,4.2181,4.159,4.231,4.3107,4.3935,4.3993,4.3615,4.2905,4.2905,4.2179,4.1076,4.1802,4.2034,4.1901,4.1522,0.0,0.0,0.0,0.0,0.0,0.0,0.0,0.0,4.2016,4.2707,4.3516,4.4522,4.5963,4.7803,5.0123,5.156,5.2942,5.5175,5.7541,6.0182,6.3159,6.5865,6.8166,6.9417,6.6542,6.4174,6.5358,6.2753,6.0858,6.2178,6.2347,6.2313,6.2381,6.2347,6.2279,6.2279,6.1704,6.1264,6.1197,6.052,6.008,6.0013,6.0013,5.9641,5.8863,5.8084,5.7036,5.5649,5.4871,5.416,5.3518,5.3518,5.3518,5.3518,5.345,5.3382,5.3382,5.3382,5.2909,5.2063,5.1386,5.0676,4.9965,4.9932,4.9492,4.8883,4.8849,4.8409,4.7872,4.8545,4.8376,4.7804,0.0,0.0,0.0,0.0,0.0,0.0,0.0,0.0,0.0,0.0,0.0,0.0,0.0,0.0,0.0,0.0,0.0,0.0,0.0,3.2215,3.2726,3.3929,3.7108,3.9368,4.0646,4.172,4.2349,4.2514,4.2918,4.2792,4.2225,4.3497,4.3873,4.3465,4.4004,4.351,4.2295,4.2295,4.1512,4.0408,4.1628,4.1453,4.0583,4.1,4.0695,0.0,0.0,0.0,0.0,0.0,0.0,0.0,4.0942,4.1365,4.2142,4.2923,4.4398,4.6319,4.8455,5.1091,5.3653,5.531,5.913,6.3159,6.5561,6.6609,6.6812,6.5967,6.5967,6.5831,6.4986,6.37,6.2685,6.2415,6.1907,6.1738,6.2313,6.1907,6.1535,6.1535,6.14,6.1061,6.0419,6.0216,5.9877,5.9302,5.9268,5.866,5.734,5.6562,5.5784,5.4871,5.4126,5.3653,5.3518,5.3518,5.3518,5.3484,5.2875,5.257,5.257,5.257,5.1826,5.0541,5.0405,4.9932,4.9187,4.8612,4.8277,4.8105,4.7496,4.7192,4.7056,4.7192,4.7158,4.7022,0.0,0.0,0.0,0.0,0.0,0.0,0.0,0.0,0.0,0.0,0.0,0.0,0.0,0.0,0.0,0.0,0.0,0.0,0.0,0.0,3.3649,3.5889,3.8408,4.0223,4.1296,4.1939,4.2269,4.2392,4.2919,4.2931,4.2555,4.3973,4.433,4.3783,4.4469,4.3757,4.2092,4.2092,4.1163,3.9741,4.0728,4.0728,4.0118,4.0176,4.0042,3.977,3.9445,0.0,0.0,0.0,0.0,0.0,0.0,0.0,4.1148,4.1922,4.3392,4.544,4.826,5.1226,5.4296,5.7577,6.0452,6.3024,6.5256,6.5493,6.5121,6.4681,6.5222,6.5425,6.4275,6.3463,6.2854,6.2448,6.1772,6.1434,6.1806,6.1197,6.0723,6.0723,6.0419,6.0047,5.9607,5.9235,5.8896,5.849,5.8152,5.7611,5.6833,5.5784,5.5006,5.46,5.389,5.3518,5.3518,5.3112,5.2942,5.2909,5.2131,5.1589,5.1251,5.1251,5.0811,5.0067,4.9729,4.9154,4.8443,4.8041,4.7669,4.7327,4.6955,4.6583,4.6346,4.7056,4.6887,4.638,0.0,0.0,0.0,0.0,0.0,0.0,0.0,0.0,0.0,0.0,0.0,0.0,0.0,0.0,0.0,0.0,0.0,0.0,0.0,0.0,0.0,3.7687,3.9187,4.057,4.1918,4.2123,4.2216,4.2257,4.2514,4.2752,4.3016,4.4199,4.4693,4.4627,4.4995,4.4046,4.2133,4.1976,4.0815,3.9102,3.9799,3.9973,3.9712,3.9373,3.9437,3.9563,3.904,3.909,3.9463,4.0038,0.0,0.0,0.0,0.0,3.9907,4.0807,4.2296,4.4397,4.7767,5.1126,5.4871,5.9844,6.1298,6.1975,6.3802,6.3869,6.3599,6.3971,6.414,6.4038,6.3429,6.2584,6.2009,6.2009,6.1366,6.096,6.1061,6.0419,5.9911,5.9911,5.937,5.8964,5.8829,5.8152,5.7712,5.7712,5.7036,5.6562,5.6427,5.5243,5.4532,5.4397,5.3822,5.3518,5.3518,5.2706,5.23,5.23,5.142,5.0642,4.9898,4.9763,4.9729,4.9661,4.8951,4.8274,4.7699,4.7567,4.7158,4.6583,4.6447,4.6041,4.5669,4.6887,4.6583,4.5669,0.0,0.0,0.0,0.0,0.0,0.0,0.0,0.0,0.0,0.0,3.4299,3.4173,0.0,0.0,0.0,0.0,0.0,0.0,0.0,0.0,0.0,3.8654,4.0122,4.1013,4.1221,4.1423,4.1624,4.1783,4.1498,4.2287,4.4116,4.4863,4.5424,4.5747,4.506,4.3847,4.2322,4.1535,4.0118,3.8434,3.9625,3.945,3.8559,3.9215,3.9228,3.8952,3.901,3.9228,3.9403,3.9529,3.914,0.0,0.0,0.0,3.7244,3.8536,4.0068,4.1884,4.4355,4.9624,5.5378,5.9302,6.1264,6.2313,6.2618,6.3125,6.3193,6.1975,6.2245,6.2651,6.255,6.1366,6.0419,6.0419,5.981,5.9539,6.0182,5.9641,5.9167,5.9167,5.9066,5.8761,5.8084,5.7374,5.6934,5.6934,5.6258,5.5581,5.4938,5.4702,5.4296,5.3687,5.3551,5.3518,5.3518,5.2706,5.23,5.2266,5.0913,4.9864,4.912,4.8511,4.8176,4.8173,4.7394,4.7022,4.6887,4.6278,4.594,4.5771,4.5128,4.4852,4.4784,4.4987,4.4919,4.4784,0.0,0.0,0.0,0.0,0.0,0.0,0.0,0.0,0.0,0.0,0.0,3.4324,0.0,0.0,0.0,3.1813,0.0,0.0,0.0,0.0,0.0,3.7737,3.9538,4.0525,4.0525,4.1222,4.1449,4.1185,4.1267,4.2324,4.4317,4.4616,4.518,4.5981,4.5213,4.401,4.2508,4.1389,3.9925,3.8448,3.9115,3.8961,3.8418,3.8935,3.8826,3.8411,3.8519,3.8424,3.8302,3.8302,3.8093,3.7793,3.7434,0.0,0.0,0.0,3.9305,4.1816,4.6225,5.0259,5.4091,5.7949,5.9066,5.9573,6.0825,6.1061,6.0926,6.0689,6.0554,6.0622,6.1028,6.0554,6.0114,6.0114,5.9471,5.8964,5.8863,5.8592,5.8084,5.7273,5.7881,5.8084,5.734,5.7002,5.6799,5.6799,5.5716,5.4938,5.46,5.4194,5.3822,5.3518,5.3078,5.2841,5.2841,5.1657,5.0845,5.0439,4.939,4.8714,4.8342,4.7192,4.7094,4.7838,4.7124,4.6549,4.6143,4.5838,4.5466,4.5026,4.475,4.4615,4.4649,4.506,4.4925,4.4716,0.0,0.0,0.0,0.0,0.0,0.0,0.0,0.0,0.0,0.0,0.0,0.0,0.0,0.0,0.0,0.0,3.1888,0.0,0.0,0.0,0.0,3.742,3.9024,3.9896,3.9935,4.0783,4.1047,4.0622,4.0815,4.2073,4.4317,4.4137,4.4851,4.6304,4.5578,4.4413,4.2917,4.1607,4.0283,3.9044,3.8907,3.8723,3.8575,3.8797,3.8648,3.8347,3.8234,3.8042,3.7883,3.7704,3.7644,3.7554,3.6926,3.6926,0.0,0.0,0.0,4.1778,4.7469,5.0259,5.2404,5.6121,5.6934,5.7273,5.9133,5.9133,5.8896,5.9438,5.8964,5.8626,5.9167,5.9404,5.9539,5.9539,5.893,5.8254,5.7679,5.7442,5.6934,5.5852,5.6664,5.7137,5.6562,5.6359,5.6224,5.6224,5.504,5.4329,5.4329,5.3788,5.3416,5.3213,5.2604,5.2198,5.2029,5.0744,4.9627,4.8714,4.8173,4.7804,4.7597,4.6312,4.6312,4.7327,4.6549,4.5906,4.5432,4.5432,4.5094,4.4615,4.4615,4.4615,4.4682,4.5196,4.506,4.4784,0.0,0.0,0.0,0.0,0.0,0.0,0.0,0.0,0.0,0.0,0.0,0.0,3.4625,3.3721,3.2616,3.1486,3.1888,3.3142,3.5346,3.6358,0.0,3.9016,3.918,0.0,3.9525,3.9774,4.0001,4.0129,3.9719,4.1175,4.4317,4.3648,4.4725,4.7176,4.6317,4.5191,4.3842,4.2296,4.1273,4.0566,3.9298,3.8797,3.8797,3.9017,3.909,3.9007,3.8531,3.8781,3.92,3.8571,3.8332,3.8212,3.7554,3.6985,3.6417,0.0,0.0,0.0,4.5342,4.8262,5.0753,5.3957,5.5784,5.7002,5.7814,5.7983,5.7949,5.7983,5.7442,5.6934,5.6968,5.7543,5.8017,5.8017,5.7408,5.69,5.6867,5.6258,5.5818,5.5716,5.5749,5.5818,5.5784,5.5108,5.4702,5.4702,5.3991,5.3551,5.3551,5.3518,5.3145,5.2401,5.2334,5.1961,5.1285,5.0473,4.939,4.7939,4.7906,4.753,4.6819,4.6041,4.5737,4.5771,4.5026,4.4716,4.4682,4.4682,4.4649,4.4615,4.4615,4.4615,4.4615,4.4649,4.4649,4.4716,0.0,0.0,0.0,0.0,0.0,0.0,0.0,0.0,0.0,0.0,0.0,0.0,0.0,3.6092,3.5352,3.4204,3.4446,3.4998,3.5803,3.6665,0.0,3.797,3.9131,3.947,3.8881,3.9862,4.0081,3.9446,3.942,4.0666,4.3099,4.2821,4.3898,4.5992,4.5221,4.4642,4.4046,4.182,4.0664,4.0291,3.9512,3.909,3.9017,3.9228,3.9032,3.865,3.8482,3.8272,3.8093,3.7853,3.7764,3.7734,3.7494,3.6985,3.6507,3.6686,3.7783,3.9815,4.3777,4.6126,4.8365,5.2068,5.3753,5.4833,5.6188,5.6494,5.6494,5.6494,5.6292,5.6258,5.6697,5.663,5.663,5.7103,5.6596,5.6089,5.6089,5.5886,5.5378,5.4397,5.5141,5.5513,5.504,5.4769,5.46,5.46,5.3923,5.3518,5.3518,5.301,5.2604,5.23,5.1386,5.0541,4.9796,4.9052,4.8443,4.7872,4.6955,4.6346,4.6075,4.5331,4.4993,4.4959,4.4716,4.4615,4.4615,4.4615,4.4615,4.4615,4.4615,4.4615,4.4615,4.4615,4.4615,4.4649,0.0,0.0,0.0,0.0,0.0,0.0,0.0,0.0,3.5895,3.7272,0.0,0.0,0.0,0.0,3.7338,3.6348,3.6547,3.6764,3.695,3.7577,3.7978,3.8053,3.9246,3.9507,3.8716,3.9858,4.0076,3.9192,3.9098,4.0098,4.2081,4.1841,4.288,4.4915,4.3808,4.3808,4.4526,4.2551,4.1368,4.0845,4.03,3.9725,3.9288,4.0121,3.9709,3.8781,3.899,3.8631,3.8063,3.7823,3.7734,3.7734,3.7734,3.7165,3.6596,3.7225,3.7946,3.9203,4.2386,4.4299,4.629,5.0056,5.136,5.2269,5.4464,5.4769,5.4735,5.5243,5.5141,5.5209,5.5919,5.548,5.5378,5.6596,5.5987,5.5344,5.5344,5.5141,5.46,5.3619,5.4363,5.4769,5.4262,5.4228,5.4228,5.4228,5.3788,5.3518,5.3518,5.2739,5.2063,5.1589,5.0135,4.912,4.8646,4.7902,4.7428,4.7128,4.6177,4.5568,4.5297,4.4818,4.4615,4.4615,4.4615,4.4615,4.4615,4.4615,4.4615,4.4615,4.4615,4.4615,4.4615,4.4615,4.4615,4.4649,0.0,0.0,0.0,0.0,0.0,0.0,0.0,0.0,3.8428,3.8499,0.0,0.0,0.0,0.0,0.0,3.7727,3.7932,3.8359,3.8899,3.9147,3.9334,3.9504,0.0,0.0,3.9149,3.9773,3.9913,3.9439,3.8751,3.9439,4.1354,4.0696,4.1773,4.4167,4.2252,4.2821,4.5155,4.4466,4.3479,4.2351,4.1662,4.0606,3.9679,4.1632,4.1145,3.9559,4.0187,3.9978,3.9349,3.8661,3.8422,3.8422,3.8362,3.7524,3.6656,3.7259,3.7946,3.8984,0.0,0.0,0.0,4.791,4.8765,4.9571,5.2706,5.2807,5.2672,5.4194,5.3957,5.3687,5.4465,5.3991,5.4228,5.6393,5.5513,5.4566,5.46,5.3957,5.3518,5.3518,5.3518,5.3518,5.3518,5.3518,5.3518,5.3518,5.3518,5.3518,5.3518,5.2706,5.1589,5.0067,4.8646,4.7872,4.7872,4.7158,4.6413,4.5703,4.5703,4.5297,4.4615,4.4615,4.4615,4.4615,4.4615,4.4615,4.4615,4.4615,4.4615,4.4615,4.4615,4.4615,4.4615,4.4615,4.4615,4.4716,0.0,0.0,0.0,0.0,0.0,4.0723,4.0257,3.97,3.9802,0.0,0.0,0.0,4.1427,4.07,4.0094,3.9931,3.9983,4.0071,4.0275,4.0324,4.0185,3.9753,4.0606,4.0693,3.9832,4.0456,4.0599,4.0127,3.9469,3.9679,4.0666,4.0487,4.1294,4.292,4.2381,4.253,4.3099,4.1444,4.1384,4.2291,4.1115,4.0726,4.0905,4.1482,4.1362,4.0816,4.0516,4.0277,4.0038,3.9349,3.914,3.896,3.7973,3.7764,3.7897,3.8138,3.8683,3.9703,4.1789,0.0,0.0,0.0,0.0,0.0,5.0544,5.0845,5.1116,5.2638,5.2773,5.3044,5.4363,5.3991,5.389,5.5006,5.4431,5.3991,5.4499,5.3957,5.3518,5.3518,5.3518,5.3518,5.3518,5.3518,5.3518,5.3518,5.3518,5.3518,5.3518,5.2232,5.0608,4.8578,4.8108,4.7635,4.7124,4.638,4.5906,4.5703,4.5162,4.4818,4.4615,4.4615,4.4615,4.4615,4.4615,4.4615,4.4615,4.4615,4.4615,4.4615,4.4615,4.4615,4.4615,4.4615,4.4615,4.4649,0.0,0.0,0.0,0.0,0.0,4.2907,4.2656,4.2178,4.2138,0.0,0.0,0.0,4.3472,4.264,4.202,4.202,4.1755,4.1607,4.1607,4.1106,4.0672,4.0356,4.1035,4.1092,4.0248,4.1173,4.1241,4.0397,3.9738,3.9619,3.9978,3.9709,4.0277,4.1572,4.1265,4.1482,4.1871,4.0127,4.0397,4.1961,4.1713,4.1534,4.1474,4.2282,4.2102,4.1414,4.1564,4.1444,4.1085,4.0157,3.9649,3.914,3.7524,3.7644,3.8382,3.8496,3.8972,3.9889,4.1659,4.2423,4.3258,4.5269,0.0,0.0,4.8658,4.8886,4.9052,5.0236,5.071,5.1285,5.2503,5.2875,5.3145,5.3551,5.3551,5.3653,5.4093,5.4025,5.3856,5.3551,5.3788,5.3822,5.3551,5.3518,5.3518,5.3518,5.3518,5.3213,5.257,5.1691,5.0338,4.8443,4.7767,4.7225,4.6786,4.5771,4.5229,4.5229,4.4818,4.4615,4.4615,4.4615,4.4615,4.4615,4.4615,4.4615,4.4615,4.4615,4.4615,4.4615,4.4615,4.4615,4.4615,4.4615,4.4615,4.4615,0.0,0.0,4.6609,4.6609,4.6108,4.5709,4.565,4.5178,4.4866,0.0,4.4866,4.4866,4.4866,4.4288,4.3874,4.3785,4.3212,4.2858,4.2769,4.1617,4.1083,4.1237,4.1237,4.1045,4.0636,4.1811,4.1782,4.0516,3.9858,3.9463,3.9373,3.8781,3.914,4.0277,3.9679,4.0068,4.1085,4.0068,4.0307,4.1474,4.2641,4.2521,4.1773,4.3539,4.312,4.1743,4.2821,4.2851,4.2201,4.0846,4.0008,3.92,3.7387,3.7661,3.8676,3.8787,3.9296,4.0121,4.1398,4.1705,4.2244,4.4348,4.4482,0.0,4.6922,4.7005,4.6891,4.7838,4.8514,4.9255,5.0067,5.1285,5.2164,5.2063,5.2807,5.3416,5.3484,5.4059,5.4262,5.3687,5.4126,5.4262,5.3687,5.3551,5.3518,5.3518,5.3416,5.2739,5.1285,5.115,5.0371,4.8815,4.7462,4.6718,4.6549,4.5258,4.4615,4.4615,4.4615,4.4615,4.4615,4.4615,4.4615,4.4615,4.4615,4.4615,4.4615,4.4615,4.4615,4.4615,4.4615,4.4615,4.4615,4.4615,4.4615,4.4615,0.0,4.6535,4.6609,4.6609,4.6491,4.6313,4.5984,4.5806,4.5802,4.5973,4.6015,4.6015,4.6015,4.5388,4.4762,4.4225,4.4075,4.3777,4.32,4.2494,4.2085,4.2124,4.2124,4.2102,4.2021,4.2261,4.2021,4.1175,4.0516,3.9948,3.9373,3.929,3.9349,3.9619,3.9433,3.9559,3.9858,4.0666,4.1145,4.1414,4.1654,4.2252,4.2961,4.3349,4.326,4.291,4.2641,4.25,4.2201,4.0846,4.0307,4.0057,3.9181,3.9477,4.0208,4.0833,4.1467,4.2171,4.2944,4.3188,4.3343,4.3972,4.4027,0.0,4.5399,4.5681,4.6241,4.8225,4.8824,4.9424,5.0744,5.1217,5.1217,5.0608,5.1657,5.2773,5.3416,5.3619,5.389,5.4329,5.3991,5.389,5.4329,5.3856,5.3518,5.3518,5.2909,5.2131,5.1219,5.0642,4.9357,4.7293,4.6955,4.621,4.5055,4.475,4.4615,4.4615,4.4615,4.4615,4.4615,4.4615,4.4615,4.4615,4.4615,4.4615,4.4615,4.4615,4.4615,4.4615,4.4615,4.4615,4.4615,4.4615,4.4615,4.4615,4.6697,4.6844,4.6961,4.6961,4.6961,4.6886,4.6688,4.6658,4.6821,4.7249,4.7309,4.7189,4.686,4.5903,4.5304,4.5304,4.4407,4.3798,4.3798,4.291,4.241,4.241,4.241,4.241,4.241,4.2671,4.2372,4.1422,4.1055,4.0397,3.9373,3.9373,3.9589,3.995,3.9553,3.9773,4.0505,4.1193,4.1876,4.2498,4.2379,4.2761,4.329,4.329,4.329,4.3339,4.3408,4.3229,4.2834,4.2129,4.1482,4.0798,4.0189,4.0445,4.1031,4.1467,4.2066,4.2741,4.3416,4.3598,4.3628,4.3717,4.3839,0.0,0.0,4.4666,4.5085,4.6193,4.6488,4.6885,4.7995,4.8897,4.9466,4.9466,5.0747,5.1894,5.23,5.3348,5.4059,5.4059,5.4059,5.4059,5.4059,5.3721,5.3518,5.3518,5.3145,5.2401,5.1285,5.0845,4.9796,4.797,4.7192,4.6413,4.5698,4.4987,4.4615,4.4615,4.4615,4.4615,4.4615,4.4615,4.4615,4.4615,4.4615,4.4615,4.4615,4.4615,4.4615,4.4615,4.4615,4.4615,4.4615,4.4615,4.4615,4.4615,4.6975,4.7149,4.7309,4.7309,4.7309,4.7309,4.7309,4.7309,4.7489,4.8027,4.8207,4.8027,4.7369,4.6441,4.6052,4.6471,4.4755,4.3888,4.4466,4.3189,4.244,4.259,4.247,4.244,4.259,4.306,4.2701,4.1422,4.1422,4.077,3.9625,3.9625,4.0021,4.0684,4.0091,4.0505,4.1713,4.1894,4.2716,4.3822,4.3754,4.3771,4.3771,4.3771,4.3771,4.3849,4.451,4.4366,4.3902,4.371,4.2934,4.1949,4.1486,4.1549,4.1941,4.2298,4.2704,4.3124,4.3842,4.3896,4.3797,4.3797,4.3817,4.3839,0.0,0.0,0.0,4.4269,4.4269,4.4532,4.5299,4.6525,4.7625,4.8265,4.9704,5.0779,5.0745,5.2604,5.3822,5.3551,5.3754,5.389,5.3721,5.3585,5.3518,5.3518,5.3382,5.2739,5.1488,5.115,5.0304,4.8849,4.7496,4.665,4.638,4.5224,4.4615,4.4615,4.4615,4.4615,4.4615,4.4615,4.4615,4.4615,4.4615,4.4615,4.4615,4.4615,4.4615,4.4615,4.4615,4.4615,4.4615,4.4615,4.4615,4.4615,4.7266,4.7266,4.7309,4.7309,4.7309,4.7309,4.7309,4.7309,4.7339,4.7399,4.7908,4.8027,4.7369,4.7698,4.7728,4.7249,4.5903,4.5095,4.5185,4.3459,4.2611,4.314,4.2671,4.2641,4.317,4.326,4.2701,4.1422,4.1422,4.1036,4.0374,4.0374,4.0752,4.1393,4.1294,4.1708,4.2507,4.3132,4.3826,4.4591,4.52,4.5442,4.5442,4.5442,4.5442,4.5442,4.5515,4.5488,4.5367,4.4768,4.4449,4.4331,4.4294,4.3912,4.3687,4.494,4.4927,4.4596,4.5351,4.5052,4.4556,4.4556,4.4092,4.3628,4.3628,0.0,4.4094,4.4757,0.0,4.5299,4.6039,0.0,0.0,4.672,4.806,4.9099,4.9224,5.0608,5.2063,5.3348,5.2367,5.2367,5.4296,5.389,5.3518,5.3518,5.2841,5.2367,5.2198,5.0947,4.956,4.8041,4.7225,4.6143,4.4886,4.4682,4.4615,4.4615,4.4615,4.4615,4.4615,4.4615,4.4615,4.4615,4.4615,4.4615,4.4615,4.4615,4.4615,4.4615,4.4615,4.4615,4.4615,4.4615,4.4615,4.4615,4.7309,4.7309,4.7309,4.7309,4.7309,4.7309,4.7309,4.7638,4.7728,4.7369,4.7878,4.8177,4.7908,4.7788,4.7758,4.7878,4.6651,4.5903,4.5903,4.4736,4.4197,4.4466,4.3838,4.3629,4.3858,4.3983,4.3518,4.2612,4.2658,4.2341,4.169,4.1281,4.168,4.2783,4.2325,4.3004,4.4496,4.4781,4.5332,4.6057,4.6739,4.7032,4.6929,4.602,4.5985,4.6304,4.5841,4.5985,4.6212,4.5507,4.526,4.5214,4.4854,4.4788,4.4886,4.5098,4.5251,4.5384,4.5715,4.5251,4.4688,4.4688,4.4158,4.3598,4.3598,4.3658,4.3817,4.4115,0.0,0.0,0.0,0.0,0.0,0.0,4.7732,4.8832,4.8987,4.9526,5.0507,5.1995,5.1589,5.1589,5.2536,5.2739,5.2435,5.1589,5.2435,5.2435,5.1082,5.0439,4.9627,4.8578,4.6989,4.5872,4.5229,4.479,4.4615,4.4615,4.4615,4.4615,4.4615,4.4615,4.4615,4.4615,4.4615,4.4615,4.4615,4.4615,4.4615,4.4615,4.4615,4.4615,4.4615,4.4615,4.4615,4.4615,4.7309,4.7309,4.7309,4.7309,4.7309,4.7309,4.7309,4.7698,4.7848,4.7369,4.7878,4.8356,4.8536,4.8117,4.8177,4.9015,4.7728,4.686,4.686,4.6274,4.5684,4.5035,4.5193,4.498,4.4338,4.4672,4.4508,4.3826,4.3678,4.3461,4.3191,4.2424,4.288,4.4234,4.3492,4.4269,4.6081,4.6094,4.652,4.7239,4.7769,4.8001,4.7902,4.6756,4.6655,4.7033,4.6515,4.6655,4.7036,4.6515,4.6338,4.6226,4.5532,4.55,4.5636,4.5129,4.5218,4.5582,4.598,4.5549,4.4986,4.4986,4.4456,4.383,4.3631,4.3764,4.3926,4.3926,4.3661,0.0,0.0,0.0,4.5496,4.6383,0.0,4.8534,4.8892,4.8818,4.9255,5.0744,5.1082,5.115,5.0913,5.1589,5.1555,5.0473,5.1758,5.186,5.0168,4.9729,4.9154,4.8409,4.665,4.5602,4.5399,4.4886,4.4615,4.4615,4.4615,4.4615,4.4615,4.4615,4.4615,4.4615,4.4615,4.4615,4.4615,4.4615,4.4615,4.4615,4.4615,4.4615,4.4615,4.4615,4.4615,4.4615,4.7309,4.7309,4.7309,4.7309,4.7309,4.7309,4.7309,4.7309,4.7339,4.7309,4.7878,4.8536,4.9209,4.9269,4.9733,5.102,4.9344,4.8237,4.8237,4.7798,4.658,4.4447,4.6532,4.6749,4.4534,4.5258,4.5313,4.4654,4.3959,4.3988,4.4723,4.3945,4.4363,4.5684,4.4956,4.5452,4.6874,4.6842,4.7273,4.7968,4.8001,4.8001,4.8001,4.7935,4.7935,4.7968,4.7935,4.7935,4.7968,4.7935,4.7902,4.7803,4.7073,4.6378,4.5783,4.5781,4.5284,4.5052,4.6477,4.6311,4.5748,4.5748,4.5185,4.4489,4.3764,4.4158,4.4655,4.4655,4.5185,4.5682,4.5715,4.5748,4.6076,4.7028,4.7318,0.0,0.0,4.8318,4.8477,4.9965,5.0777,5.0913,5.0202,5.0811,5.1219,5.1183,5.0574,5.0168,5.0101,4.8748,4.7631,4.6887,4.6109,4.5365,4.4649,4.4615,4.4615,4.4615,4.4615,4.4615,4.4615,4.4615,4.4615,4.4615,4.4615,4.4615,4.4615,4.4615,4.4615,4.4615,4.4615,4.4615,4.4615,4.4615,4.4615,4.4615,4.7309,4.7309,4.7309,4.7309,4.7309,4.7495,4.8061,4.8187,4.845,4.9291,4.9596,5.0371,5.2047,5.1758,5.1697,5.2154,5.1147,4.9877,4.8371,4.8651,4.8357,4.718,4.7997,4.8117,4.737,4.7203,4.7023,4.6834,4.612,4.5898,4.6157,4.494,4.49,4.5748,4.5019,4.5516,4.6908,4.6908,4.7338,4.8001,4.8001,4.8299,4.8663,4.8199,4.8001,4.8001,4.8001,4.8001,4.8001,4.8001,4.7669,4.7139,4.6378,4.598,4.5682,4.5218,4.5218,4.5516,4.6046,4.5616,4.5185,4.5682,4.4887,4.4026,4.4257,4.4522,4.4688,4.4688,4.5284,4.5781,4.5781,4.6179,4.6673,4.713,4.7593,4.7953,0.0,4.7511,4.753,4.8545,4.8852,4.912,4.9357,4.9187,4.9021,4.9021,4.9255,4.9154,4.868,4.8142,4.7564,4.6819,4.5602,4.4852,4.4615,4.4615,4.4615,4.4615,4.4615,4.4615,4.4615,4.4615,4.4615,4.4615,4.4615,4.4615,4.4615,4.4615,4.4615,4.4615,4.4615,4.4615,4.4615,4.4615,4.4615,4.4615,4.8175,4.8198,4.8019,4.7409,4.7538,4.8061,4.8872,4.9439,5.0196,5.1274,5.1907,5.2903,5.4753,5.4086,5.3619,5.3868,5.2984,5.1636,4.9708,5.061,5.0579,4.9138,4.9928,5.0069,4.9292,4.8904,4.8574,4.8313,4.7638,4.7305,4.7272,4.5781,4.5483,4.6146,4.5119,4.5516,4.6908,4.6971,4.7435,4.8099,4.8164,4.8462,4.8828,4.8362,4.8265,4.8365,4.81,4.8001,4.8001,4.8001,4.7669,4.7106,4.6113,4.5844,4.5675,4.468,4.4776,4.5239,4.541,4.5144,4.4848,4.5315,4.4688,4.4125,4.4589,4.4887,4.5086,4.5086,4.5881,4.6411,4.5881,4.6609,4.7238,4.7133,4.7697,4.799,0.0,4.6971,4.6989,4.7462,4.7736,4.8075,4.8578,4.8443,4.7939,4.7192,4.7564,4.7496,4.6786,4.6481,4.621,4.6007,4.5122,4.4615,4.4615,4.4615,4.4615,4.4615,4.4615,4.4615,4.4615,4.4615,4.4615,4.4615,4.4615,4.4615,4.4615,4.4615,4.4615,4.4615,4.4615,4.4615,4.4615,4.4615,4.4615,4.4615,4.9733,4.9805,4.9318,4.7764,4.8145,4.8913,4.9726,5.1159,5.2372,5.3143,5.456,5.5959,5.7159,5.6125,5.551,5.5993,5.4822,5.345,5.2049,5.3447,5.3021,5.0121,5.216,5.2379,5.0245,5.0237,4.9922,4.9226,4.8431,4.8067,4.8034,4.6543,4.6212,4.6841,4.5384,4.5549,4.6939,4.7132,4.7595,4.8227,4.842,4.8549,4.8549,4.8515,4.8759,4.9028,4.8299,4.8033,4.8033,4.8033,4.8,4.7703,4.6277,4.5872,4.5696,4.4297,4.4015,4.4236,4.4727,4.4867,4.4837,4.4749,4.4685,4.4685,4.4718,4.5249,4.5779,4.5779,4.6874,4.7471,4.6046,4.6941,4.7669,4.6974,4.75,4.769,4.6589,4.6596,4.6684,4.6718,4.7327,4.777,4.7872,4.8443,4.7936,4.5872,4.5669,4.5331,4.4581,4.391,4.3876,4.4513,4.4581,4.4615,4.4615,4.4615,4.4615,4.4615,4.4615,4.4615,4.4615,4.4615,4.4615,4.4615,4.4615,4.4615,4.4615,4.4615,4.4615,4.4615,4.4615,4.4615,4.4649,4.4615,4.4615,4.4649,4.9797,4.9805,4.9844,5.0073,4.9797,4.9765,5.0615,5.2481,5.4188,5.5297,5.6755,5.8022,5.8892,5.7689,5.6691,5.6337,5.55,5.431,5.2827,5.3736,5.3485,5.1714,5.2753,5.293,5.1825,5.131,5.0916,5.0717,4.9458,4.8829,4.8796,4.7305,4.6709,4.6841,4.5914,4.614,4.7132,4.7195,4.769,4.842,4.8483,4.8818,4.9254,4.8716,4.892,4.9391,4.8623,4.8356,4.8356,4.8356,4.7958,4.7263,4.6422,4.5724,4.503,4.4278,4.4068,4.4131,4.4273,4.4307,4.4382,4.4737,4.456,4.4352,4.477,4.5006,4.5139,4.5139,4.5777,4.6245,4.5847,4.6113,4.6311,4.6113,4.5998,4.5905,4.5715,4.538,4.5393,4.5906,4.5669,4.6075,4.7736,4.6583,4.5703,4.5703,4.5196,4.4519,4.3775,4.5128,4.5263,4.3775,4.4282,4.4615,4.4615,4.4615,4.4615,4.4615,4.4615,4.4615,4.4615,4.4615,4.4615,4.4615,4.4615,4.4615,4.4615,4.4615,4.4615,4.4615,4.4615,4.4925,4.5365,4.4818,4.4925,4.5432,5.0908,5.0919,5.1102,5.1582,5.1772,5.1912,5.2072,5.3422,5.4927,5.6293,5.832,5.967,5.9768,5.9605,5.9081,5.8035,5.6988,5.5912,5.4713,5.5082,5.4868,5.3755,5.3803,5.3699,5.3334,5.1976,5.1315,5.1315,4.9823,4.9094,4.9094,4.7603,4.6908,4.6874,4.6113,4.6306,4.7226,4.7686,4.8243,4.8704,4.8704,4.8974,0.0,4.8873,4.8974,4.9276,4.8873,4.861,4.8515,4.8515,4.8184,4.7621,4.6979,4.6444,4.5909,4.4955,4.4711,4.4707,4.4313,4.4184,4.4255,4.4482,4.4311,4.4269,4.4886,4.5023,4.5023,4.5023,4.5563,4.5832,4.5166,4.5599,4.6032,4.6032,4.5581,4.532,4.5408,4.5216,4.5229,4.5669,4.5906,4.6413,4.7327,4.5703,4.4784,4.5196,4.4852,4.4248,4.3443,4.4959,4.5094,4.3443,4.4485,4.4925,4.4615,4.4919,4.4919,4.4615,4.4615,4.4615,4.4615,4.4615,4.4615,4.4615,4.4615,4.4615,4.4615,4.4615,4.4615,4.4649,4.4925,4.5331,4.5703,4.5602,4.5805,4.6177,5.2398,5.244,5.2473,5.2442,5.3632,5.4494,5.393,5.4725,5.5885,5.7243,5.9827,6.1251,6.0523,6.1384,6.1483,6.0125,5.8734,5.7608,5.6879,5.6812,5.6481,5.5615,5.4986,5.4523,5.4357,5.2539,5.1547,5.1448,4.9955,4.926,4.9226,4.7636,4.6941,4.7039,4.631,4.6535,4.7456,4.8406,4.8894,4.9018,4.9018,4.9018,4.9018,4.9018,4.9018,4.9018,4.9018,4.8798,4.8578,4.8578,4.8547,4.8413,4.7709,4.7536,4.7325,4.5972,4.5718,4.564,4.4721,4.449,4.4428,4.4188,4.4155,4.4322,4.493,4.5068,4.5068,4.5068,4.5604,4.5607,4.4332,4.5139,4.6009,4.6039,4.5589,4.524,4.5269,4.5448,4.5568,4.5568,4.6684,0.0,4.6549,4.5529,4.4852,4.475,4.475,4.4316,4.3308,4.4181,4.4316,4.3409,4.4925,4.55,4.5055,4.5466,4.5432,4.4886,4.4682,4.4615,4.4615,4.4615,4.4615,4.4615,4.4615,4.4649,4.475,4.4649,4.4682,4.4818,4.5331,4.5737,4.6075,4.6583,4.6921,4.7056,5.2407,5.2837,5.3069,5.2473,5.4063,5.5587,5.6051,5.8303,6.0258,6.1127,6.2785,6.3537,6.2775,6.1848,6.0953,6.0092,5.9198,5.8403,5.7641,5.7608,5.7011,5.5648,5.545,5.4821,5.3632,5.3235,5.2771,5.221,5.0717,5.0021,4.9988,4.7868,4.727,4.793,4.7263,4.7552,4.8539,4.8827,4.8987,4.9018,4.9018,4.9018,4.9018,4.9018,4.9018,4.9018,4.9018,4.8954,4.8892,4.8892,4.8832,4.8635,4.7986,4.772,4.7457,4.6731,4.6583,4.6447,4.5674,4.5443,4.5245,4.4461,4.4384,4.4474,4.4495,4.4438,4.4438,4.4438,4.4486,4.4398,4.4164,4.4298,4.4528,4.4639,4.4567,4.4524,4.4699,4.4756,4.4818,4.4818,4.4993,4.5156,4.5021,4.5838,4.6143,4.5534,4.55,4.4621,4.2591,4.4418,4.4857,4.3443,4.4925,4.6244,4.7327,4.6244,4.594,4.638,4.519,4.4615,4.4615,4.4615,4.4615,4.4615,4.4615,4.4925,4.5466,4.4852,4.4959,4.5466,4.4959,4.5906,4.7462,4.6989,4.7564,4.8545,5.35,5.3434,5.3665,5.446,5.5786,5.7376,5.9231,6.1384,6.2378,6.1185,6.2312,6.2974,6.2245,6.2212,6.1947,6.1185,6.0125,5.9164,5.8403,5.8005,5.7309,5.6216,5.5819,5.5085,5.396,5.287,5.2343,5.2516,5.0257,4.9526,5.0257,4.8528,4.7894,4.8195,4.8085,4.8341,4.8801,4.8956,4.9018,4.9018,4.9018,4.9018,4.9018,4.9018,4.9018,4.9018,4.9018,4.9018,4.9018,4.9018,4.8956,4.8858,4.8548,4.8416,4.8186,4.7567,4.7361,4.7225,4.6481,4.6007,4.5674,4.5616,4.5099,4.4688,4.4975,4.471,4.4468,4.4468,4.4384,4.4355,4.4355,4.4355,4.4384,4.444,4.4468,4.4468,4.4587,4.4615,4.4445,4.4012,4.4378,4.475,4.5128,4.6143,4.6346,4.5196,4.5128,4.4282,4.2388,4.4079,4.4418,4.2895,4.4722,4.5872,4.6177,4.6244,4.6041,4.5664,4.4953,4.4615,4.4615,4.4615,4.4615,4.4615,4.4993,4.5365,4.5703,4.5737,4.594,4.6278,4.6312,4.6955,4.7906,4.7936,4.8376,4.8951,5.4957,5.4626,5.4924,5.6846,5.8038,5.9496,6.1857,6.3438,6.3603,6.145,6.2146,6.2643,6.208,6.2775,6.3083,6.2487,6.1086,5.986,5.8966,5.8409,5.7719,5.679,5.6264,5.5534,5.4638,5.2981,5.2221,5.2426,5.0093,4.9393,5.0226,4.9022,4.8319,4.809,4.8639,4.8832,4.8832,4.8956,4.9018,4.9018,4.9018,4.9018,4.9018,4.9018,4.9018,4.9018,4.9018,4.9018,4.9018,4.9018,4.9018,4.9018,4.9018,4.9018,4.8883,4.8308,4.8108,4.797,4.7225,4.6616,4.6278,4.6684,4.5935,4.5224,4.5805,4.5365,4.4886,4.5055,4.4953,4.4818,4.4649,4.4615,4.4649,4.4818,4.4852,4.4852,4.4852,4.4987,4.4654,4.3511,4.4384,4.5026,4.4993,4.594,4.5872,4.4242,4.4581,4.4215,4.2861,4.3938,4.4039,4.2828,4.4823,4.5805,4.5563,4.621,4.6041,4.5089,4.4919,4.4852,4.4852,4.4852,4.4919,4.5089,4.5534,4.5805,4.6007,4.6718,4.7022,4.709,4.7496,4.7868,4.8176,4.8612,4.8883,4.9018,5.6349,5.6978,5.7641,5.8535,6.039,6.189,6.2155,6.3438,6.4498,6.4862,6.5028,6.5094,6.5028,6.3968,6.3282,6.3216,6.1848,6.039,5.8999,5.9033,5.8447,5.7053,5.7072,5.6482,5.5077,5.4843,5.3805,5.1865,5.1631,5.0827,4.9656,4.8852,4.8243,4.7793,4.8622,4.8987,4.8987,4.8984,4.9018,4.9018,4.9018,4.9018,4.9018,4.9018,4.9018,4.9018,4.9018,4.9018,4.9018,4.9018,4.9018,4.9018,4.9018,4.9018,4.8984,4.8917,4.8917,4.8748,4.7973,4.7736,4.7534,4.6955,4.6684,4.6616,4.6684,4.6143,4.5805,4.6447,4.6075,4.5399,4.4716,4.4615,4.4818,4.55,4.5602,4.5602,4.5602,4.6177,4.5805,4.3646,4.5297,4.5534,4.2861,4.4553,4.4891,4.2658,4.4418,4.5229,4.4445,4.4513,4.4547,4.4412,4.5872,4.7293,4.8578,4.6752,4.6075,4.6583,4.5906,4.5602,4.5602,4.5602,4.5974,4.6549,4.5974,4.6075,4.6752,4.7496,4.78,4.7736,4.7124,4.7733,4.8815,4.821,4.8443,4.9018,5.8535,5.8568,5.9098,6.1152,6.1516,6.2022,6.3477,6.369,6.3889,6.4275,6.4221,6.4133,6.4133,6.3206,6.2695,6.2822,6.1891,6.0702,5.9358,5.9337,5.8747,5.7243,5.685,5.6151,5.5113,5.4242,5.3408,5.2639,5.1732,5.1228,5.1093,4.998,4.9099,4.8486,4.8852,4.9018,4.9018,4.9018,4.9018,4.9018,4.9018,4.9018,4.9018,4.9018,4.9018,4.9018,4.9018,4.9018,4.9018,4.9018,4.9018,4.9018,4.9018,4.9018,4.9018,4.9018,4.9018,4.8951,4.8646,4.824,4.797,4.8071,4.7462,4.6921,4.7361,4.6887,4.6312,4.6177,4.5534,4.506,4.5229,4.5263,4.5365,4.5669,4.6075,4.6346,4.6346,4.5838,4.4959,4.3544,4.3436,4.3132,4.2354,4.3538,4.4519,4.4959,4.5026,4.4485,4.3267,4.3227,4.3667,4.4581,4.4688,4.55,4.7022,4.6583,4.6041,4.5495,4.6075,4.6143,4.5737,4.6143,4.6752,4.7462,4.7158,4.7462,4.8139,4.8443,4.8578,4.8545,4.824,4.8477,4.8951,4.868,4.8748,4.9018,6.0362,6.0462,6.1127,6.3387,6.3121,6.3064,6.4557,6.4038,6.343,6.34,6.304,6.2946,6.3368,6.278,6.2399,6.2599,6.1699,6.0712,5.9561,5.9337,5.8705,5.7469,5.6969,5.6368,5.5629,5.4386,5.3547,5.3314,5.2269,5.1662,5.1494,5.034,4.9492,4.9018,4.9018,4.9018,4.9018,4.9018,4.9018,4.9018,4.9018,4.9018,4.9018,4.9018,4.9018,4.9018,4.9018,4.9018,4.9018,4.9018,4.9018,4.9018,4.9018,4.9018,4.9018,4.9018,4.9018,4.9018,4.9018,4.8612,4.8376,4.8883,4.8206,4.7564,4.8105,4.7665,4.6921,4.6177,4.5602,4.5427,4.594,4.5838,4.5838,4.6278,4.6786,4.7124,4.7124,4.621,4.5128,4.391,4.3031,4.2388,4.2016,4.2861,4.3978,4.5365,4.4688,4.3876,4.2997,4.299,4.3369,4.4215,4.4147,4.4722,4.6007,4.6312,4.6041,4.5258,4.6515,4.6853,4.638,4.7124,4.7631,4.7906,4.8108,4.8545,4.9018,4.9018,4.9018,4.9018,4.9018,4.9018,4.9018,4.9018,4.9018,4.9018,6.1575,6.2915,6.4153,6.4848,6.5593,6.5794,6.5082,6.4388,6.3651,6.2907,6.2137,6.2189,6.3448,6.3116,6.2773,6.2806,6.1475,6.0303,5.9527,5.8983,5.8395,5.7621,5.7772,5.7543,5.6799,5.6055,5.4938,5.3518,5.3484,5.2334,5.0101,4.9357,4.9018,4.9018,4.9018,4.9018,4.9018,4.9018,4.9018,4.9018,4.9018,4.9018,4.9018,4.9018,4.9018,4.9018,4.9018,4.9018,4.9018,4.9018,4.9018,4.9018,4.9018,4.9018,4.9018,4.9018,4.9018,4.9018,4.9018,4.8984,4.8984,4.9018,4.8984,4.8984,4.8984,4.8443,4.7699,4.6921,4.6786,4.6786,4.6786,4.6177,4.6177,4.7635,4.7872,4.7872,4.7872,4.7872,4.7056,4.4852,4.5196,4.4485,4.1508,4.2557,4.3132,4.2388,4.3031,4.3775,4.4547,4.4581,4.4215,4.3443,4.4891,4.6041,4.6786,4.6075,4.6075,4.6786,4.753,4.7872,4.7906,4.8646,4.8578,4.7939,4.868,4.8984,4.9018,4.9018,4.9018,4.9018,4.9018,4.9018,4.9018,4.9018,4.9018,4.9018,6.3182,6.402,6.4924,6.5627,6.5124,6.4564,6.4564,6.3299,6.2353,6.228,6.1608,6.13,6.173,6.1482,6.1147,6.0763,6.0802,6.0342,5.9212,5.9456,5.9089,5.7876,5.7372,5.7036,5.6799,5.5581,5.4735,5.4262,5.3754,5.2841,5.1589,5.0845,5.0236,4.9729,4.9221,4.9018,4.9018,4.9018,4.9018,4.9018,4.9018,4.9018,4.9018,4.9018,4.9018,4.9018,4.9018,4.9018,4.9018,4.9018,4.9018,4.9018,4.9018,4.9018,4.9018,4.9018,4.9018,4.9018,4.9018,4.9018,4.9018,4.9018,4.9018,4.9018,4.9018,4.8443,4.7973,4.824,4.7496,4.6955,4.7462,4.7361,4.7331,4.7804,4.8342,4.8477,4.7973,4.7027,4.5771,4.4012,4.3098,4.2049,4.0595,4.1779,4.2997,4.3802,4.4107,4.4079,4.3809,4.4282,4.4688,4.4959,4.4959,4.5771,4.753,4.6819,4.6549,4.6819,4.8071,4.8646,4.868,4.8883,4.8883,4.868,4.8917,4.9018,4.9018,4.9018,4.9018,4.9018,4.9018,4.9018,4.9018,4.9018,4.9018,4.9018,6.3396,6.4169,6.4909,6.511,6.4606,6.4143,6.3997,6.3074,6.2327,6.2183,6.1509,6.0936,6.0632,6.0247,5.9972,5.9919,6.0054,5.9861,5.9028,5.9167,5.8863,5.7915,5.7442,5.7205,5.7205,5.5784,5.5006,5.5006,5.3687,5.2807,5.2266,5.1251,5.0541,5.0067,4.9323,4.9018,4.9018,4.9018,4.9018,4.9018,4.9018,4.9018,4.9018,4.9018,4.9018,4.9018,4.9018,4.9018,4.9018,4.9018,4.9018,4.9018,4.9018,4.9018,4.9018,4.9018,4.9018,4.9018,4.9018,4.9018,4.9018,4.9018,4.9018,4.9018,4.9018,4.8646,4.8443,4.8917,4.8037,4.7428,4.8206,4.8075,4.7973,4.8274,4.8714,4.8748,4.8007,4.6887,4.5669,4.4418,4.32,4.2185,4.1407,4.2151,4.3098,4.4079,4.4445,4.4378,4.3876,4.4587,4.5094,4.5263,4.5365,4.621,4.7872,4.7462,4.7361,4.7631,4.8545,4.9018,4.9018,4.9018,4.9018,4.9018,4.9018,4.9018,4.9018,4.9018,4.9018,4.9018,4.9018,4.9018,4.9018,4.9018,4.9018,4.9018,6.2618,6.3599,6.4377,6.37,6.4106,6.4309,6.3632,6.3463,6.3193,6.2482,6.1704,6.0926,6.0182,5.9404,5.9201,5.9877,5.937,5.8998,5.893,5.8321,5.7915,5.7814,5.7848,5.7881,5.7814,5.6427,5.5683,5.5581,5.3416,5.2367,5.2367,5.0879,5.0168,5.0135,4.9357,4.9018,4.9018,4.9018,4.9018,4.9018,4.9018,4.9018,4.9018,4.9018,4.9018,4.9018,4.9018,4.9018,4.9018,4.9018,4.9018,4.9018,4.9018,4.9018,4.9018,4.9018,4.9018,4.9018,4.9018,4.9018,4.9018,4.9018,4.9018,4.9018,4.9018,4.9018,4.9018,4.9018,4.8477,4.8176,4.8883,4.8443,4.8206,4.8883,4.9018,4.8714,4.7906,4.7225,4.6481,4.5635,4.4959,4.4248,4.3436,4.3409,4.3477,4.3544,4.4248,4.4716,4.4818,4.5466,4.55,4.4784,4.6109,4.7225,4.7973,4.7906,4.8274,4.9018,4.9018,4.9018,4.9018,4.9018,4.9018,4.9018,4.9018,4.9018,4.9018,4.9018,4.9018,4.9018,4.9018,4.9018,4.9018,4.9018,4.9018,4.9018,6.3396,6.3971,6.4546,6.4377,6.4038,6.37,6.3531,6.3024,6.2584,6.2415,6.1231,6.0317,6.0114,5.893,5.822,5.8389,5.8795,5.8761,5.8186,5.8524,5.8254,5.7103,5.7577,5.7645,5.707,5.619,5.5175,5.4025,5.3484,5.3213,5.3179,5.1657,5.0947,5.0879,4.9593,4.9018,4.9018,4.9018,4.9018,4.9018,4.9018,4.9018,4.9018,4.9018,4.9018,4.9018,4.9018,4.9018,4.9018,4.9018,4.9018,4.9018,4.9018,4.9018,4.9018,4.9018,4.9018,4.9018,4.9018,4.9018,4.9018,4.9018,4.9018,4.9018,4.9018,4.9018,4.9018,4.9018,4.8849,4.8815,4.8984,4.8849,4.8815,4.8984,4.9018,4.8545,4.7225,4.6921,4.6075,4.4181,4.4316,4.4073,4.2692,4.3606,4.4553,4.5128,4.5331,4.594,4.7056,4.7293,4.7056,4.6278,4.7158,4.8003,4.8748,4.8206,4.8274,4.9018,4.9018,4.9018,4.9018,4.9018,4.9018,4.9018,4.9018,4.9018,4.9018,4.9018,4.9018,4.9018,4.9018,4.9018,4.9018,4.9018,4.9018,4.9018,6.3091,6.3328,6.3599,6.3599,6.326,6.299,6.299,6.2651,6.2279,6.1941,6.0858,5.9979,5.9641,5.8592,5.7881,5.7881,5.8254,5.8321,5.7915,5.8254,5.8152,5.734,5.734,5.7205,5.6799,5.575,5.4634,5.3518,5.3518,5.3518,5.3484,5.2266,5.1725,5.1657,5.0168,4.9492,4.9492,4.9154,4.9018,4.9018,4.9018,4.9187,4.9492,4.9492,4.9492,4.9492,4.9492,4.9289,4.9052,4.939,4.9289,4.912,4.9796,4.9763,4.956,4.9932,4.9526,4.9018,4.9018,4.9018,4.9018,4.9018,4.9018,4.9018,4.9018,4.9018,4.9018,4.9018,4.9018,4.912,4.9424,4.9492,4.9492,4.9492,4.9221,4.8477,4.6989,4.6515,4.5838,4.4621,4.4857,4.4891,4.4418,4.5094,4.5771,4.6177,4.6515,4.7056,4.7838,4.824,4.8071,4.7327,4.8037,4.8612,4.9018,4.8612,4.8612,4.9018,4.9018,4.9018,4.9018,4.9018,4.9018,4.9018,4.9018,4.9018,4.9018,4.9018,4.9018,4.9018,4.9018,4.9018,4.9018,4.9018,4.9018,4.9018,6.2381,6.2381,6.2381,6.2381,6.2381,6.2381,6.2381,6.2313,6.2009,6.1366,6.052,5.9708,5.9099,5.8355,5.7881,5.7881,5.7881,5.7881,5.7881,5.778,5.7712,5.7712,5.7036,5.663,5.663,5.5277,5.4228,5.3518,5.3518,5.3518,5.3484,5.2672,5.23,5.2232,5.0744,5.0101,5.0033,4.9323,4.9018,4.9018,4.9018,4.9424,5.0101,5.0101,5.0168,5.027,5.027,4.9864,4.9424,5.0033,4.9864,4.956,5.0811,5.0777,5.0371,5.1014,5.0338,4.9323,4.9187,4.9086,4.9018,4.9154,4.9086,4.9052,4.9289,4.9255,4.9187,4.9323,4.9255,4.939,5.0135,5.0067,4.9999,5.0236,4.956,4.8511,4.7158,4.6447,4.5974,4.5737,4.5906,4.6244,4.6752,4.6887,4.6955,4.6955,4.7564,4.7939,4.8041,4.868,4.8714,4.8075,4.868,4.9018,4.9018,4.9018,4.9052,4.9154,4.9052,4.9052,4.9154,4.9052,4.9018,4.9018,4.9018,4.9018,4.9018,4.9018,4.9018,4.9018,4.9018,4.9018,4.9018,4.9018,4.9018,4.9018,6.2381,6.2381,6.2381,6.2381,6.2381,6.2381,6.2381,6.1873,6.1434,6.1332,6.008,5.9133,5.9032,5.8355,5.7881,5.7881,5.7881,5.7881,5.7881,5.7306,5.6968,5.6968,5.6258,5.5886,5.5886,5.504,5.4228,5.3518,5.3518,5.3518,5.3484,5.2672,5.23,5.2232,5.0744,5.0101,5.0033,4.9323,4.9018,4.9018,4.9018,4.9424,5.0101,5.0101,5.0473,5.1048,5.1048,5.098,5.0879,5.1014,5.098,5.0913,5.1117,5.115,5.1082,5.1183,5.1048,5.0744,5.0101,4.9458,4.9154,4.9763,4.9458,4.9323,5.0574,5.0371,5.0101,5.0744,5.0371,5.0135,5.0913,5.0033,4.9593,5.0845,4.9898,4.8714,4.7868,4.7601,4.7094,4.5872,4.6819,4.7361,4.6853,4.7361,4.7733,4.7733,4.7838,4.8142,4.8815,4.8951,4.8951,4.8849,4.8951,4.9018,4.9018,4.9018,4.9323,4.9898,4.9289,4.9323,4.9898,4.9289,4.9018,4.9018,4.9018,4.9018,4.9018,4.9018,4.9018,4.9018,4.9018,4.9018,4.9018,4.9018,4.9018,4.9018,6.2381,6.2381,6.2381,6.2381,6.2381,6.2381,6.2381,6.1772,6.1129,6.0723,5.9708,5.8863,5.8457,5.8084,5.7881,5.7881,5.7881,5.7712,5.734,5.7002,5.6799,5.6799,5.5716,5.4938,5.4532,5.4194,5.3856,5.3518,5.3518,5.3518,5.3484,5.3112,5.2942,5.2909,5.1792,5.1048,5.0642,4.9898,4.9593,4.9593,4.9593,5.027,5.1285,5.1285,5.1488,5.1792,5.1792,5.1555,5.1285,5.1657,5.1555,5.1352,5.2198,5.2164,5.1894,5.2334,5.186,5.115,5.0777,5.0439,5.027,5.0608,5.0439,5.0371,5.1016,5.0947,5.0811,5.1117,5.0947,5.0913,5.1657,5.1251,5.1014,5.1691,5.0541,4.9323,4.8612,4.78,4.7192,4.6921,4.7466,4.7936,4.797,4.8308,4.868,4.9052,4.9086,4.9424,5.0168,4.9796,4.9763,5.0168,4.9424,4.9018,4.9018,4.939,4.956,4.9492,4.956,4.956,4.9492,4.9154,4.9018,4.9018,4.9018,4.9018,4.9018,4.9018,4.9018,4.9018,4.9018,4.9018,4.9018,4.9018,4.9018,4.9018,6.2347,6.2245,6.2178,6.2347,6.2381,6.2347,6.2144,6.1501,6.0757,5.9945,5.9201,5.8524,5.7949,5.7881,5.7881,5.7881,5.7881,5.7645,5.7103,5.6731,5.6562,5.6562,5.531,5.4262,5.3518,5.3518,5.3518,5.3518,5.3518,5.3518,5.3518,5.3518,5.3518,5.345,5.2672,5.1995,5.142,5.0676,5.0338,5.0338,5.0338,5.115,5.23,5.23,5.2435,5.257,5.257,5.2232,5.1826,5.2401,5.2198,5.1961,5.3145,5.3078,5.2706,5.3315,5.2672,5.1691,5.1522,5.1352,5.1251,5.1388,5.1352,5.1286,5.1624,5.1589,5.1522,5.1725,5.1589,5.1691,5.2435,5.23,5.2097,5.2266,5.1048,4.983,4.912,4.8037,4.7462,4.7838,4.8176,4.8646,4.9187,4.9424,4.9763,5.0304,5.0338,5.0608,5.1183,5.0676,5.0608,5.1151,5.0101,4.9424,4.9255,4.9999,4.9999,4.9255,4.9999,4.9965,4.9255,4.9255,4.9154,4.9018,4.9018,4.9018,4.9018,4.9018,4.9018,4.9018,4.9018,4.9018,4.9018,4.9018,4.9018,4.9018,6.2245,6.1839,6.1603,6.2279,6.2381,6.2144,6.1501,6.0689,5.9911,5.9201,5.8457,5.7949,5.7881,5.7881,5.7881,5.7881,5.7881,5.7881,5.7814,5.6562,5.5784,5.5784,5.5006,5.4262,5.3518,5.3518,5.3518,5.3518,5.3518,5.3518,5.3518,5.3518,5.3518,5.345,5.2672,5.2266,5.2164,5.1454,5.115,5.115,5.115,5.1589,5.23,5.23,5.2773,5.3416,5.3416,5.3382,5.3348,5.3382,5.3382,5.3348,5.345,5.345,5.3416,5.3484,5.3416,5.3179,5.2435,5.1725,5.1386,5.2063,5.1725,5.1589,5.301,5.2739,5.2435,5.3179,5.2739,5.2469,5.3281,5.2266,5.1522,5.2198,5.1048,4.983,4.912,4.8917,4.8612,4.7973,4.912,4.9965,4.9999,5.0642,5.105,5.1083,5.115,5.115,5.1185,5.1151,5.115,5.1185,5.1083,5.071,5.0033,5.0744,5.0744,5.0033,5.0777,5.0744,4.9999,4.9999,4.9627,4.9018,4.9018,4.9018,4.9018,4.9018,4.9018,4.9018,4.9018,4.9018,4.9018,4.9018,4.9018,4.9018,6.1569,6.1501,6.14,6.167,6.1704,6.1637,6.1332,6.025,5.9336,5.9066,5.8355,5.7881,5.7881,5.7881,5.7881,5.7881,5.7881,5.7509,5.6596,5.6021,5.531,5.4397,5.4059,5.3788,5.3518,5.3518,5.3518,5.3518,5.3518,5.3518,5.3518,5.3518,5.3518,5.3484,5.3179,5.2773,5.2266,5.1995,5.1894,5.1894,5.1894,5.2367,5.3044,5.3044,5.3247,5.3518,5.3518,5.3518,5.3518,5.3518,5.3518,5.3518,5.3518,5.3518,5.3518,5.3518,5.3518,5.345,5.3145,5.2841,5.2706,5.2976,5.2841,5.2773,5.3382,5.3281,5.3145,5.345,5.3281,5.3145,5.345,5.3044,5.2739,5.301,5.2164,5.1352,5.1082,5.0642,5.027,4.9968,5.0439,5.0777,5.0777,5.1048,5.1386,5.186,5.1894,5.2097,5.2604,5.2638,5.2401,5.1894,5.2367,5.2029,5.0811,5.1522,5.1522,5.0811,5.1522,5.1522,5.0777,5.0777,5.0371,4.9661,4.9661,4.9424,4.9018,4.9018,4.9018,4.9018,4.9018,4.9018,4.9018,4.9018,4.9018,4.9018,6.0757,6.0757,6.0655,6.0892,6.0926,6.0858,6.0622,5.9674,5.893,5.8693,5.822,5.7881,5.7881,5.7881,5.7881,5.7881,5.7881,5.7374,5.6156,5.5615,5.4803,5.3551,5.3518,5.3518,5.3518,5.3518,5.3518,5.3518,5.3518,5.3518,5.3518,5.3518,5.3518,5.3518,5.3518,5.3179,5.2672,5.2672,5.2672,5.2672,5.2672,5.301,5.3518,5.3518,5.3518,5.3518,5.3518,5.3518,5.3518,5.3518,5.3518,5.3518,5.3518,5.3518,5.3518,5.3518,5.3518,5.3518,5.3518,5.3518,5.3518,5.3518,5.3518,5.3518,5.3518,5.3518,5.3518,5.3518,5.3518,5.3518,5.3518,5.3518,5.3416,5.3179,5.2672,5.2232,5.1995,5.1522,5.1185,5.1185,5.142,5.1555,5.1555,5.1792,5.2131,5.2638,5.2672,5.2909,5.3484,5.3518,5.3247,5.2706,5.3213,5.301,5.1928,5.2435,5.2198,5.1185,5.2198,5.2164,5.1217,5.1454,5.115,5.0439,5.0202,4.9796,4.9323,4.9086,4.9018,4.9018,4.9018,4.9018,4.9018,4.9018,4.9018,4.9018,5.9945,5.9505,5.9235,5.9979,6.008,5.9844,5.9133,5.9032,5.8727,5.7983,5.7881,5.7881,5.7881,5.7881,5.7881,5.7881,5.7881,5.7577,5.6833,5.5412,5.4262,5.3551,5.3518,5.3518,5.3518,5.3518,5.3518,5.3518,5.3518,5.3518,5.3518,5.3518,5.3518,5.3518,5.3518,5.3518,5.3518,5.3518,5.3518,5.3518,5.3518,5.3518,5.3518,5.3518,5.3518,5.3518,5.3518,5.3518,5.3518,5.3518,5.3518,5.3518,5.3518,5.3518,5.3518,5.3518,5.3518,5.3518,5.3518,5.3518,5.3518,5.3518,5.3518,5.3518,5.3518,5.3518,5.3518,5.3518,5.3518,5.3518,5.3518,5.3518,5.3247,5.2435,5.23,5.2063,5.132,5.1219,5.1219,5.1219,5.186,5.23,5.23,5.3044,5.3518,5.3518,5.3518,5.3518,5.3518,5.3518,5.3518,5.3518,5.3518,5.3518,5.3518,5.3518,5.2739,5.1251,5.2773,5.2706,5.1251,5.1995,5.1928,5.1183,5.0439,5.0101,5.0033,4.9323,4.9018,4.9018,4.9018,4.9018,4.9018,4.9018,4.9018,4.9018,5.9201,5.9167,5.9099,5.9302,5.9336,5.9268,5.9032,5.8558,5.8152,5.7915,5.7881,5.7881,5.7881,5.7881,5.7881,5.7881,5.7881,5.7374,5.6122,5.4668,5.3721,5.3518,5.3518,5.3518,5.3518,5.3518,5.3518,5.3518,5.3518,5.3518,5.3518,5.3518,5.3518,5.3518,5.3518,5.3518,5.3518,5.3518,5.3518,5.3518,5.3518,5.3518,5.3518,5.3518,5.3518,5.3518,5.3518,5.3518,5.3518,5.3518,5.3518,5.3518,5.3518,5.3518,5.3518,5.3518,5.3518,5.3518,5.3518,5.3518,5.3518,5.3518,5.3518,5.3518,5.3518,5.3518,5.3518,5.3518,5.3518,5.3518,5.3518,5.3518,5.3416,5.3179,5.3145,5.3078,5.2841,5.2807,5.2807,5.2807,5.301,5.3145,5.3145,5.3382,5.3518,5.3518,5.3518,5.3518,5.3518,5.3518,5.3518,5.3518,5.3518,5.3518,5.3518,5.3518,5.3281,5.2841,5.3281,5.3281,5.2841,5.3044,5.2706,5.1928,5.1183,5.0879,5.0777,4.9526,4.9289,4.9729,4.9187,4.9018,4.9018,4.9018,4.9018,4.9018,5.849,5.8558,5.8558,5.8558,5.8558,5.8558,5.8558,5.8186,5.7881,5.7881,5.7881,5.7881,5.7881,5.7645,5.7442,5.7442,5.6934,5.6224,5.531,5.416,5.3518,5.3518,5.3518,5.3518,5.3518,5.3518,5.3518,5.3518,5.3518,5.3518,5.3518,5.3518,5.3518,5.3518,5.3518,5.3518,5.3518,5.3518,5.3518,5.3518,5.3518,5.3518,5.3518,5.3518,5.3518,5.3518,5.3518,5.3518,5.3518,5.3518,5.3518,5.3518,5.3518,5.3518,5.3518,5.3518,5.3518,5.3518,5.3518,5.3518,5.3518,5.3518,5.3518,5.3518,5.3518,5.3518,5.3518,5.3518,5.3518,5.3518,5.3518,5.3518,5.3518,5.3518,5.3518,5.3518,5.3518,5.3518,5.3518,5.3518,5.3518,5.3518,5.3518,5.3518,5.3518,5.3518,5.3518,5.3518,5.3518,5.3518,5.3518,5.3518,5.3518,5.3518,5.3518,5.3518,5.3518,5.3518,5.3518,5.3518,5.3518,5.3518,5.3247,5.2739,5.1961,5.1657,5.1522,5.0033,4.9695,5.0033,4.9289,4.9018,4.9018,4.9018,4.9018,4.9018,5.7881,5.7881,5.7881,5.7881,5.7881,5.7881,5.7881,5.7881,5.7881,5.7881,5.7814,5.7814,5.7881,5.7171,5.6731,5.6799,5.5446,5.46,5.46,5.3923,5.3518,5.3518,5.3518,5.3518,5.3518,5.3518,5.3518,5.3518,5.3518,5.3518,5.3518,5.3518,5.3518,5.3518,5.3518,5.3518,5.3518,5.3518,5.3518,5.3518,5.3518,5.3518,5.3518,5.3518,5.3518,5.3518,5.3518,5.3518,5.3518,5.3518,5.3518,5.3518,5.3518,5.3518,5.3518,5.3518,5.3518,5.3518,5.3518,5.3518,5.3518,5.3518,5.3551,5.3585,5.3518,5.3518,5.3518,5.3518,5.3518,5.3518,5.3518,5.3518,5.3518,5.3518,5.3518,5.3518,5.3518,5.3518,5.3518,5.3518,5.3518,5.3518,5.3518,5.3518,5.3518,5.3518,5.3518,5.3518,5.3518,5.3518,5.3518,5.3518,5.3518,5.3518,5.3518,5.3518,5.3518,5.3518,5.3518,5.3518,5.3518,5.3518,5.3518,5.345,5.2638,5.2334,5.23,5.0811,5.0202,5.0135,4.9458,4.912,4.9018,4.9086,4.9052,4.9018,5.7881,5.7881,5.7881,5.7881,5.7881,5.7881,5.7881,5.7881,5.7881,5.7881,5.7408,5.7273,5.7814,5.6731,5.619,5.6765,5.5446,5.46,5.46,5.3923,5.3518,5.3518,5.3518,5.3518,5.3518,5.3518,5.3518,5.3518,5.3518,5.3518,5.3518,5.3518,5.3518,5.3518,5.3518,5.3518,5.3518,5.3518,5.3518,5.3518,5.3518,5.3518,5.3518,5.3518,5.3518,5.3518,5.3518,5.3518,5.3518,5.3518,5.3518,5.3518,5.3518,5.3518,5.3518,5.3518,5.3518,5.3518,5.3518,5.3518,5.3518,5.3518,5.3923,5.4194,5.3619,5.3518,5.3518,5.3518,5.3518,5.3518,5.3518,5.3518,5.3518,5.3518,5.3518,5.3518,5.3518,5.3518,5.3518,5.3518,5.3518,5.3518,5.3518,5.3518,5.3518,5.3518,5.3518,5.3518,5.3518,5.3518,5.3518,5.3518,5.3518,5.3518,5.3518,5.3518,5.3518,5.3518,5.3518,5.3518,5.3518,5.3518,5.3518,5.345,5.2638,5.2672,5.3112,5.1589,5.098,5.0947,5.0811,5.0033,4.9086,4.9627,4.9492,4.9018,5.7881,5.7881,5.7881,5.7881,5.7881,5.7881,5.7881,5.7577,5.7476,5.7848,5.6934,5.6562,5.7273,5.6055,5.5209,5.5209,5.4532,5.4059,5.4059,5.3721,5.3518,5.3518,5.3518,5.3518,5.3518,5.3518,5.3518,5.3518,5.3518,5.3518,5.3518,5.3518,5.3518,5.3518,5.3518,5.3518,5.3518,5.3518,5.3518,5.3518,5.3518,5.3518,5.3518,5.3518,5.3518,5.3518,5.3518,5.3518,5.3518,5.3518,5.3518,5.3518,5.3518,5.3518,5.3518,5.3518,5.3518,5.3585,5.3923,5.4025,5.4126,5.4465,5.4566,5.4499,5.4093,5.4025,5.4025,5.4025,5.3754,5.3518,5.3518,5.3518,5.3518,5.3518,5.3518,5.3518,5.3518,5.3518,5.3518,5.3518,5.3518,5.3518,5.3518,5.3518,5.3518,5.3518,5.3518,5.3518,5.3518,5.3518,5.3518,5.3518,5.3518,5.3518,5.3518,5.3518,5.3518,5.3518,5.3518,5.3518,5.3518,5.3518,5.3518,5.3484,5.3078,5.3112,5.3416,5.2232,5.1522,5.1185,5.1185,5.0507,4.9593,5.0338,5.0168,4.9526,5.7881,5.7881,5.7881,5.7881,5.7881,5.7881,5.7881,5.7273,5.7036,5.7611,5.6427,5.5818,5.6528,5.5513,5.4431,5.3585,5.3619,5.3619,5.3518,5.3619,5.3619,5.3518,5.3619,5.3619,5.3518,5.3518,5.3518,5.3518,5.3518,5.3518,5.3518,5.3518,5.3518,5.3518,5.3518,5.3518,5.3518,5.3518,5.3518,5.3518,5.3518,5.3518,5.3518,5.3518,5.3518,5.3518,5.3518,5.3518,5.3518,5.3518,5.3518,5.3518,5.3518,5.3518,5.3518,5.3653,5.3687,5.3856,5.46,5.4769,5.4938,5.5547,5.5344,5.4972,5.4972,5.4769,5.4634,5.4769,5.4194,5.3687,5.3687,5.3585,5.3518,5.3518,5.3518,5.3518,5.3518,5.3518,5.3518,5.3518,5.3518,5.3518,5.3518,5.3518,5.3518,5.3518,5.3518,5.3518,5.3518,5.3518,5.3518,5.3518,5.3518,5.3518,5.3518,5.3518,5.3518,5.3518,5.3518,5.3518,5.3518,5.3518,5.3518,5.3518,5.3518,5.3518,5.345,5.2773,5.2063,5.142,5.1555,5.098,5.0135,5.0642,5.0541,5.0067,5.7746,5.7881,5.7881,5.7881,5.7881,5.7881,5.7881,5.7273,5.6833,5.6934,5.5649,5.504,5.5784,5.5683,5.5006,5.3619,5.4093,5.416,5.3551,5.4093,5.416,5.3551,5.4093,5.416,5.3518,5.3518,5.3518,5.3518,5.3518,5.3518,5.3518,5.3518,5.3518,5.3518,5.3518,5.3518,5.3518,5.3518,5.3518,5.3518,5.3518,5.3518,5.3518,5.3518,5.3518,5.3518,5.3518,5.3518,5.3518,5.3518,5.3518,5.3518,5.3518,5.3518,5.3619,5.4262,5.4431,5.46,5.5344,5.5581,5.5581,5.5683,5.6122,5.6494,5.6494,5.5513,5.4769,5.5446,5.4972,5.4431,5.4431,5.3923,5.3518,5.3518,5.3518,5.3518,5.3518,5.3518,5.3518,5.3518,5.3518,5.3518,5.3518,5.3518,5.3518,5.3518,5.3518,5.3518,5.3518,5.3518,5.3518,5.3518,5.3518,5.3518,5.3518,5.3518,5.3518,5.3518,5.3518,5.3518,5.3518,5.3518,5.3518,5.3518,5.3518,5.3518,5.3484,5.3382,5.2875,5.2232,5.2942,5.1928,5.0033,4.9492,4.9627,4.9999,5.7814,5.7881,5.7881,5.7881,5.7881,5.7746,5.734,5.6664,5.619,5.619,5.4905,5.4262,5.5006,5.4735,5.4228,5.3551,5.3788,5.3856,5.3518,5.3788,5.3856,5.3518,5.3822,5.3822,5.3518,5.3518,5.3518,5.3518,5.3518,5.3518,5.3518,5.3518,5.3518,5.3518,5.3518,5.3518,5.3518,5.3518,5.3518,5.3518,5.3518,5.3518,5.3518,5.3518,5.3518,5.3518,5.3518,5.3518,5.3518,5.3518,5.3518,5.3518,5.3518,5.3518,5.3653,5.4363,5.46,5.4837,5.6021,5.6325,5.6427,5.6833,5.6867,5.69,5.7306,5.6596,5.5919,5.6258,5.575,5.5209,5.5209,5.4972,5.4735,5.4735,5.4397,5.4126,5.4126,5.3754,5.3518,5.3518,5.3518,5.3518,5.3518,5.3518,5.3518,5.3518,5.3518,5.3518,5.3518,5.3518,5.3518,5.3518,5.3518,5.3518,5.3518,5.3518,5.3518,5.3518,5.3518,5.3518,5.3518,5.3518,5.3518,5.3518,5.3518,5.3518,5.3518,5.3518,5.3044,5.2367,5.3179,5.2875,5.1961,5.1623,5.1454,5.1217]}]]